[[{"header":{"parameterUnit":"m.s-1","parameterCategory":1,"la1":30.6,"la2":28.766,"lo1":-90.7593,"lo2":-88.6598,"dy":0.0162,"dx":0.0183,"nx":116,"ny":114,"refTime":"2023-06-05T00:00:00:Z","depth":0,"parameterNumber":2,"parameterNumberName":"U-component_of_WINDS"},"data":[0.0,0.0,0.0,0.0,0.0,0.0,0.0,0.0,0.0,0.0,0.0,0.0,0.0,0.0,0.0,0.0,0.0,0.0,0.0,0.0,0.0,0.0,0.0,0.0,0.0,0.0,0.0,0.0,0.0,0.0,0.0,0.0,0.0,0.0,0.0,0.0,0.0,0.0,0.0,0.0,0.0,0.0,0.0,0.0,0.0,0.0,0.0,0.0,0.0,0.0,0.0,0.0,0.0,0.0,0.0,0.0,0.0,0.0,0.0,0.0,0.0,0.0,0.0,0.0,0.0,0.0,0.0,0.0,0.0,0.0,0.0,0.0,0.0,0.0,0.0,0.0,0.0,0.0,0.0,0.0,0.0,0.0,0.0,0.0,0.0,0.0,0.0,0.0,0.0,0.0,0.0,0.0,0.0,0.0,0.0,0.0,0.0,0.0,0.0,0.0,0.0,0.0,0.0,0.0,0.0,0.0,0.0,0.0,0.0,0.0,0.0,0.0,0.0,0.0,0.0,0.0,0.0,0.0,0.0,0.0,0.0,0.0,0.0,0.0,0.0,0.0,0.0,0.0,0.0,0.0,0.0,0.0,0.0,0.0,0.0,0.0,0.0,0.0,0.0,0.0,0.0,0.0,0.0,0.0,0.0,0.0,0.0,0.0,0.0,0.0,0.0,0.0,0.0,0.0,0.0,0.0,0.0,0.0,0.0,0.0,0.0,0.0,0.0,0.0,0.0,0.0,0.0,0.0,0.0,0.0,0.0,0.0,0.0,0.0,0.0,0.0,0.0,0.0,0.0,0.0,0.0,0.0,0.0,0.0,0.0,0.0,0.0,0.0,0.0,0.0,0.0,0.0,0.0,0.0,0.0,0.0,0.0,0.0,0.0,0.0,0.0,0.0,0.0,0.0,0.0,0.0,0.0,0.0,0.0,0.0,0.0,0.0,0.0,0.0,0.0,0.0,0.0,0.0,0.0,0.0,0.0,0.0,0.0,0.0,0.0,0.0,0.0,0.0,0.0,0.0,0.0,0.0,0.0,0.0,0.0,0.0,0.0,0.0,0.0,0.0,0.0,0.0,0.0,0.0,0.0,0.0,0.0,0.0,0.0,0.0,0.0,0.0,0.0,0.0,0.0,0.0,0.0,0.0,0.0,0.0,0.0,0.0,0.0,0.0,0.0,0.0,0.0,0.0,0.0,0.0,0.0,0.0,0.0,0.0,0.0,0.0,0.0,0.0,0.0,0.0,0.0,0.0,0.0,0.0,0.0,0.0,0.0,0.0,0.0,0.0,0.0,0.0,0.0,0.0,0.0,0.0,0.0,0.0,0.0,0.0,0.0,0.0,0.0,0.0,0.0,0.0,0.0,0.0,0.0,0.0,0.0,0.0,0.0,0.0,0.0,0.0,0.0,0.0,0.0,0.0,0.0,0.0,0.0,0.0,0.0,0.0,0.0,0.0,0.0,0.0,0.0,0.0,0.0,0.0,0.0,0.0,0.0,0.0,0.0,0.0,0.0,0.0,0.0,0.0,0.0,0.0,0.0,0.0,0.0,0.0,0.0,0.0,0.0,0.0,0.0,0.0,0.0,0.0,0.0,0.0,0.0,0.0,0.0,0.0,0.0,0.0,0.0,0.0,0.0,0.0,0.0,0.0,0.0,0.0,0.0,0.0,0.0,0.0,0.0,0.0,0.0,0.0,0.0,0.0,0.0,0.0,0.0,0.0,0.0,0.0,0.0,0.0,0.0,0.0,0.0,0.0,0.0,0.0,0.0,0.0,0.0,0.0,0.0,0.0,0.0,0.0,0.0,0.0,0.0,0.0,0.0,0.0,0.0,0.0,0.0,0.0,0.0,0.0,0.0,0.0,0.0,0.0,0.0,0.0,0.0,0.0,0.0,0.0,0.0,0.0,0.0,0.0,0.0,0.0,0.0,0.0,0.0,0.0,0.0,0.0,0.0,0.0,0.0,0.0,0.0,0.0,0.0,0.0,0.0,0.0,0.0,0.0,0.0,0.0,0.0,0.0,0.0,0.0,0.0,0.0,0.0,0.0,0.0,0.0,0.0,0.0,0.0,0.0,0.0,0.0,0.0,0.0,0.0,0.0,0.0,0.0,0.0,0.0,0.0,0.0,0.0,0.0,0.0,0.0,0.0,0.0,0.0,0.0,0.0,0.0,0.0,0.0,0.0,0.0,0.0,0.0,0.0,0.0,0.0,0.0,0.0,0.0,0.0,0.0,0.0,0.0,0.0,0.0,0.0,0.0,0.0,0.0,0.0,0.0,0.0,0.0,0.0,0.0,0.0,0.0,0.0,0.0,0.0,0.0,0.0,0.0,0.0,0.0,0.0,0.0,0.0,0.0,0.0,0.0,0.0,0.0,0.0,0.0,0.0,0.0,0.0,0.0,0.0,0.0,0.0,0.0,0.0,0.0,0.0,0.0,0.0,0.0,0.0,0.0,0.0,0.0,0.0,0.0,0.0,0.0,0.0,0.0,0.0,0.0,0.0,0.0,0.0,0.0,0.0,0.0,0.0,0.0,0.0,0.0,0.0,0.0,0.0,0.0,0.0,0.0,0.0,0.0,0.0,0.0,0.0,0.0,0.0,0.0,0.0,0.0,0.0,0.0,0.0,0.0,0.0,0.0,0.0,0.0,0.0,0.0,0.0,0.0,0.0,0.0,0.0,0.0,0.0,0.0,0.0,0.0,0.0,0.0,0.0,0.0,0.0,0.0,0.0,0.0,0.0,0.0,0.0,0.0,0.0,0.0,0.0,0.0,0.0,0.0,0.0,0.0,0.0,0.0,0.0,0.0,0.0,0.0,0.0,0.0,0.0,0.0,0.0,0.0,0.0,0.0,0.0,0.0,0.0,0.0,0.0,0.0,0.0,0.0,0.0,0.0,0.0,0.0,0.0,0.0,0.0,0.0,0.0,0.0,0.0,0.0,0.0,0.0,0.0,0.0,0.0,0.0,0.0,0.0,0.0,0.0,0.0,0.0,0.0,0.0,0.0,0.0,0.0,0.0,0.0,0.0,0.0,0.0,0.0,0.0,0.0,0.0,0.0,0.0,0.0,0.0,0.0,0.0,0.0,0.0,0.0,0.0,0.0,0.0,0.0,0.0,0.0,0.0,0.0,0.0,0.0,0.0,0.0,0.0,0.0,0.0,0.0,0.0,0.0,0.0,0.0,0.0,0.0,0.0,0.0,0.0,0.0,0.0,0.0,0.0,0.0,0.0,0.0,0.0,0.0,0.0,0.0,0.0,0.0,0.0,0.0,0.0,0.0,0.0,0.0,0.0,0.0,0.0,0.0,0.0,0.0,0.0,0.0,0.0,0.0,0.0,0.0,0.0,0.0,0.0,0.0,0.0,0.0,0.0,0.0,0.0,0.0,0.0,0.0,0.0,0.0,0.0,0.0,0.0,0.0,0.0,0.0,0.0,0.0,0.0,0.0,0.0,0.0,0.0,0.0,0.0,0.0,0.0,0.0,0.0,0.0,0.0,0.0,0.0,0.0,0.0,0.0,0.0,0.0,0.0,0.0,0.0,0.0,0.0,0.0,0.0,0.0,0.0,0.0,0.0,0.0,0.0,0.0,0.0,0.0,0.0,0.0,0.0,0.0,0.0,0.0,0.0,0.0,0.0,0.0,0.0,0.0,0.0,0.0,0.0,0.0,0.0,0.0,0.0,0.0,0.0,0.0,0.0,0.0,0.0,0.0,0.0,0.0,0.0,0.0,0.0,0.0,0.0,0.0,0.0,0.0,0.0,0.0,0.0,0.0,0.0,0.0,0.0,0.0,0.0,0.0,0.0,0.0,0.0,0.0,0.0,0.0,0.0,0.0,0.0,0.0,0.0,0.0,0.0,0.0,0.0,0.0,0.0,0.0,0.0,0.0,0.0,0.0,0.0,0.0,0.0,0.0,0.0,0.0,0.0,0.0,0.0,0.0,0.0,0.0,0.0,0.0,0.0,0.0,0.0,0.0,0.0,0.0,0.0,0.0,0.0,0.0,0.0,0.0,0.0,0.0,0.0,0.0,0.0,0.0,0.0,0.0,0.0,0.0,0.0,0.0,0.0,0.0,0.0,0.0,0.0,0.0,0.0,0.0,0.0,0.0,0.0,0.0,0.0,0.0,0.0,0.0,0.0,0.0,0.0,0.0,0.0,0.0,0.0,0.0,0.0,0.0,0.0,0.0,0.0,0.0,0.0,0.0,0.0,0.0,0.0,0.0,0.0,0.0,0.0,0.0,0.0,0.0,0.0,0.0,0.0,0.0,0.0,0.0,0.0,0.0,0.0,0.0,0.0,0.0,0.0,0.0,0.0,0.0,0.0,0.0,0.0,0.0,0.0,0.0,0.0,0.0,0.0,0.0,0.0,0.0,0.0,0.0,0.0,0.0,0.0,0.0,0.0,0.0,0.0,0.0,0.0,0.0,0.0,0.0,0.0,0.0,0.0,0.0,0.0,0.0,0.0,0.0,0.0,0.0,0.0,0.0,0.0,0.0,0.0,0.0,0.0,0.0,0.0,0.0,0.0,0.0,0.0,0.0,0.0,0.0,0.0,0.0,0.0,0.0,0.0,0.0,0.0,0.0,0.0,0.0,0.0,0.0,0.0,0.0,0.0,0.0,0.0,0.0,0.0,0.0,0.0,0.0,0.0,0.0,0.0,0.0,0.0,0.0,0.0,0.0,0.0,0.0,0.0,0.0,0.0,0.0,0.0,0.0,0.0,0.0,0.0,0.0,0.0,0.0,0.0,0.0,0.0,0.0,0.0,0.0,0.0,0.0,0.0,0.0,0.0,0.0,0.0,0.0,0.0,0.0,0.0,0.0,0.0,0.0,0.0,0.0,0.0,0.0,0.0,0.0,0.0,0.0,0.0,0.0,0.0,0.0,0.0,0.0,0.0,0.0,0.0,0.0,0.0,0.0,0.0,0.0,0.0,0.0,0.0,0.0,0.0,0.0,0.0,0.0,0.0,0.0,0.0,0.0,0.0,0.0,0.0,0.0,0.0,0.0,0.0,0.0,0.0,0.0,0.0,0.0,0.0,0.0,0.0,0.0,0.0,0.0,0.0,0.0,0.0,0.0,0.0,0.0,0.0,0.0,0.0,0.0,0.0,0.0,0.0,0.0,0.0,0.0,0.0,0.0,0.0,0.0,0.0,0.0,0.0,0.0,0.0,0.0,0.0,0.0,0.0,0.0,0.0,0.0,0.0,0.0,0.0,0.0,0.0,0.0,0.0,0.0,0.0,0.0,0.0,0.0,0.0,0.0,0.0,0.0,0.0,0.0,0.0,0.0,0.0,0.0,0.0,0.0,0.0,0.0,0.0,0.0,0.0,0.0,0.0,0.0,0.0,0.0,0.0,0.0,0.0,0.0,0.0,0.0,0.0,0.0,0.0,0.0,0.0,0.0,0.0,0.0,0.0,0.0,0.0,0.0,0.0,0.0,0.0,0.0,0.0,0.0,0.0,0.0,0.0,0.0,0.0,0.0,0.0,0.0,0.0,0.0,0.0,0.0,0.0,0.0,0.0,0.0,0.0,0.0,0.0,0.0,0.0,0.0,0.0,0.0,0.0,0.0,0.0,0.0,0.0,0.0,0.0,0.0,0.0,0.0,0.0,0.0,0.0,0.0,0.0,0.0,0.0,0.0,0.0,0.0,0.0,0.0,0.0,0.0,0.0,0.0,0.0,0.0,0.0,0.0,0.0,0.0,0.0,0.0,0.0,0.0,0.0,0.0,0.0,0.0,0.0,0.0,0.0,0.0,0.0,0.0,0.0,0.0,0.0,0.0,0.0,0.0,0.0,0.0,0.0,0.0,0.0,0.0,0.0,0.0,0.0,0.0,0.0,0.0,0.0,0.0,0.0,0.0,0.0,0.0,0.0,0.0,0.0,0.0,0.0,0.0,0.0,0.0,0.0,0.0,0.0,0.0,0.0,0.0,0.0,0.0,0.0,0.0,0.0,0.0,0.0,0.0,0.0,0.0,0.0,0.0,0.0,0.0,0.0,0.0,0.0,0.0,0.0,0.0,0.0,0.0,0.0,0.0,0.0,0.0,0.0,0.0,0.0,0.0,0.0,0.0,0.0,0.0,0.0,0.0,0.0,0.0964,0.0,0.0,0.0,0.0,0.0,0.0,0.0,0.0,0.0,0.0,0.0,0.0,0.0,0.0,0.0,0.0,0.0,0.0,0.0,0.0,0.0,0.0,0.0,0.0,0.0,0.0,0.0,0.0,0.0,0.0,0.0,0.0,0.0,0.0,0.0,0.0,0.0,0.0,0.1447,0.1422,0.1363,0.1295,0.1206,0.107,0.0881,0.0,0.0,0.0,0.0,0.0,0.0,0.0,0.0,0.0,0.0,0.0,0.0,0.0,0.0,0.0,0.0,0.0,0.0,0.0,0.0,0.0,0.0,0.0,0.0,0.0,0.0,0.0,0.0,0.0,0.0,0.0,0.0,0.0,0.0,0.0,0.0,0.0,0.0,0.0,0.0,0.0,0.0,0.0,0.0,0.0,0.0,0.0,0.0,0.0,0.0,0.0,0.0,0.0,0.0,0.0,0.0,0.0,0.0,0.0,0.0,0.0,0.0,0.0,0.0,0.0,0.0,0.0,0.0,0.0,0.0,0.0,0.0274,0.0,0.0,0.0,0.0,0.0,0.0,0.0,0.0,0.0,0.0,0.0,0.0,0.0,0.0,0.0,0.0,0.0,0.0,0.0,0.0,0.0,0.0,0.0,0.1731,0.1585,0.1479,0.1399,0.1321,0.0,0.0,0.0,0.0,0.0,0.0,0.1313,0.1377,0.1421,0.1422,0.1293,0.117,0.1059,0.0969,0.095,0.0984,0.0642,0.0,0.0,0.0,0.0,0.0,0.0,0.0,0.0,0.0,0.0,0.0,0.0,0.0,0.0,0.0,0.0,0.0,0.0,0.0,0.0,0.0,0.0,0.0,0.0,0.0,0.0,0.0,0.0,0.0,0.0,0.0,0.0,0.0,0.0,0.0,0.0,0.0,0.0,0.0,0.0,0.0,0.0,0.0,0.0,0.0,0.0,0.0,0.0,0.0,0.0,0.0,0.0,0.0,0.0,0.0,0.0,0.0,0.0,0.0,0.0,0.0,0.0,0.0,0.0,-0.2338,-0.2691,-0.2691,-0.2763,-0.2814,-0.1656,-0.1024,-0.082,0.0,0.0,0.0,0.0,0.0,0.0,0.0,0.0,0.0,0.0,0.0,0.0,0.0,0.0,0.0,0.0,0.0,0.0,0.0,0.0,0.0,0.0,0.1497,0.1353,0.1327,0.1213,0.1109,0.1036,0.0,0.0,0.0,0.0,0.0,0.0973,0.1039,0.1065,0.1065,0.1001,0.0941,0.0926,0.0679,0.0577,0.0571,0.0472,0.0397,0.0373,0.0,0.0,0.0,0.0,0.0,0.0,0.0,0.0,0.0,0.0,0.0,0.0,0.0,0.0,0.0,0.0,0.0,0.0,0.0,0.0,0.0,0.0,0.0,0.0,0.0,0.0,0.0,0.0,0.0,0.0,0.0,0.0,0.0,0.0,0.0,0.0,0.0,0.0,0.0,0.0,0.0,0.2946,0.2927,0.0,0.0,0.0,0.0,0.0,0.0,0.0,0.0,0.0,0.0,0.0,0.0,0.0,0.0,-0.2165,-0.2542,-0.2874,-0.3183,-0.3437,-0.3636,-0.3804,-0.3906,-0.3981,-0.3977,-0.3799,0.0,-0.2125,-0.1879,0.0,0.0,0.0,0.0,0.0,0.0,0.0,0.0,0.0,0.0,0.0,0.0,0.0,0.0,0.0,0.0,0.0,0.0,0.0,0.0,0.0,0.1183,0.1042,0.0972,0.0845,0.0742,0.0723,0.0719,0.0,0.0,0.0,0.0703,0.0615,0.0686,0.0645,0.0503,0.0491,0.0509,0.051,0.039,0.0341,0.0312,0.0114,0.0109,0.0277,0.0151,0.0,0.0,0.0,0.0,0.0,0.0,0.0,0.0,0.0,0.0,0.0,0.0,0.0,0.0,0.0,0.0,0.0,0.0,0.0,0.0,0.0,0.0,0.0,0.0,0.0,0.0,0.0,0.0,0.0,0.0,0.0,0.0,0.0,0.0,0.0,0.0,0.0,0.0,0.0,0.2564,0.2419,0.2343,0.2185,0.1964,0.0,0.0,0.0,0.0,0.0,0.0,0.0,0.0,0.0,-0.2203,-0.2659,-0.3139,-0.3636,-0.4,-0.4403,-0.4815,-0.5077,-0.529,-0.5401,-0.5456,-0.5488,-0.548,-0.5326,-0.4954,-0.4392,-0.3422,-0.293,-0.2792,0.0,0.0,0.0,0.0,0.0,-0.2945,0.0,0.0,0.0,0.0,0.0,0.0,0.0,0.0,0.0,0.0,0.0,0.0,0.0973,0.0811,0.0661,0.0529,0.0437,0.038,0.038,0.0364,0.0369,0.0373,0.0364,0.0333,0.0232,0.0219,0.0126,-0.0078,-0.0083,-0.0058,0.0,-0.003,-0.0062,-0.0062,-0.0309,-0.0233,0.0079,0.0079,0.0052,0.0026,0.0,0.0,0.0,0.0,0.0,0.0,0.0,0.0,0.0,0.0,0.0,0.0,0.0,0.0,0.0,0.0,0.0,0.0,0.0,0.0,0.0,0.0,0.0,0.0,0.0,0.0,0.0,0.0,0.0,0.0,0.0,0.0,0.0,0.0,0.0,0.0,0.0,0.1966,0.1798,0.1648,0.1449,0.1208,0.0,0.0,0.0,0.0,0.0,0.0,-0.211,-0.2666,-0.318,-0.362,-0.4108,-0.4658,-0.5286,-0.5559,-0.5984,-0.6481,-0.6693,-0.6858,-0.6982,-0.6982,-0.6982,-0.6977,-0.6759,-0.6663,-0.6501,-0.493,-0.418,-0.4041,-0.3912,-0.3836,-0.3832,-0.4111,-0.4211,-0.4285,0.0,0.0,0.0,0.0,0.0,0.0,0.0,0.0,0.0,0.0,0.0,0.0821,0.0559,0.0361,0.0176,0.0039,0.002,0.0021,0.0021,0.0022,0.0023,0.0024,-0.0166,-0.0265,-0.0276,-0.0457,-0.0557,-0.0558,-0.0745,-0.0738,-0.0553,-0.0678,-0.0741,-0.0741,-0.0772,-0.0575,-0.0263,-0.0263,-0.0169,0.0,0.0159,0.0,0.0,0.0,0.0,0.0,0.0,0.0,0.0,0.0,0.0,0.0,0.0,0.0,0.0,0.0,0.0,0.0,0.0,0.0,0.0,0.0,0.0,0.0,0.0,0.0,0.0,0.0,0.0,0.0,0.0,0.0,0.0,0.0,0.0,0.0,0.0,0.0,0.0,0.0871,0.0402,0.0,0.0,0.0,0.0,-0.205,-0.2476,-0.2978,-0.3559,-0.422,-0.4823,-0.5368,-0.6019,-0.6623,-0.715,-0.7318,-0.7629,-0.8087,-0.8099,-0.8169,-0.8298,-0.8298,-0.8298,-0.8292,-0.8281,-0.8211,-0.7955,-0.6216,-0.5432,-0.5293,-0.5155,-0.5026,-0.496,-0.5231,-0.5329,-0.5374,0.0,0.0,0.0,0.0,0.0,0.0,0.0,0.0,0.1309,0.1021,0.067,0.0307,-0.0038,-0.0299,-0.0524,-0.0755,-0.0769,-0.0785,-0.0829,-0.0842,-0.0829,-0.0841,-0.0915,-0.1017,-0.1185,-0.1355,-0.149,-0.1551,-0.1493,-0.1396,-0.1238,-0.1295,-0.1306,-0.1306,-0.1437,-0.1413,-0.1247,-0.0796,-0.0503,-0.0312,-0.0083,0.008,0.0,0.0,0.0,0.0,0.0,0.0,0.0,0.0,0.0,0.0,0.0,0.0,0.0,0.0,0.0,0.0,0.0,0.0,0.0,0.0,0.0,0.0,0.0,0.0,0.0,0.0,0.0,0.0,0.0,0.0,0.0,0.0,0.0,0.0,0.0,0.0,0.0,-0.0343,-0.0837,0.0,0.0,-0.2103,-0.2732,-0.3496,-0.4045,-0.4694,-0.5531,-0.6094,-0.6624,-0.7226,-0.7549,-0.7946,-0.8446,-0.8681,-0.892,-0.9168,-0.9297,-0.9383,-0.942,-0.942,-0.942,-0.9408,-0.9302,-0.9198,-0.9101,-0.83,-0.7625,-0.7054,-0.6794,-0.6666,-0.6607,-0.6618,-0.6691,-0.679,0.0,0.0,0.0,0.0,0.0,0.0,0.0,0.0,0.1059,0.0647,0.0248,-0.019,-0.0659,-0.0932,-0.1188,-0.1444,-0.1493,-0.1521,-0.156,-0.1563,-0.1572,-0.1591,-0.1683,-0.186,-0.2137,-0.2238,-0.236,-0.244,-0.2376,-0.2255,-0.2123,-0.2149,-0.2175,-0.2175,-0.2315,-0.228,-0.2153,-0.1691,-0.1223,-0.0746,-0.0462,-0.028,-0.0162,0.0,0.0,0.0,0.0,0.0,0.0,0.0,0.0,0.0,0.0,0.0,0.0,0.0,0.0,0.0,0.0,0.0,0.0,0.0,0.0,0.0,0.0,0.0,0.0,0.0,0.0,0.0,0.0,0.0,0.0,0.0,0.0,0.0,0.0,0.0,-0.1375,-0.1679,-0.2197,-0.2733,-0.319,-0.3748,-0.4428,-0.5245,-0.5836,-0.6492,-0.7274,-0.7779,-0.83,-0.8854,-0.9136,-0.9485,-0.9917,-1.0154,-1.0346,-1.0469,-1.0622,-1.0679,-1.0679,-1.0679,-1.0679,-1.0672,-1.0544,-1.0493,-1.0448,-1.028,-0.9864,-0.928,-0.8514,-0.8212,-0.8217,-0.8207,-0.83,-0.8473,0.0,0.0,0.0,0.0,0.0,0.0,0.157,0.1196,0.0788,0.0251,-0.0171,-0.0659,-0.1274,-0.1519,-0.1762,-0.2022,-0.212,-0.2168,-0.217,-0.217,-0.2181,-0.2262,-0.2533,-0.2781,-0.3048,-0.3107,-0.3157,-0.3129,-0.3345,-0.333,-0.3157,-0.3269,-0.3342,-0.3342,-0.3342,-0.319,-0.2943,-0.2942,-0.2342,-0.133,-0.0988,-0.0753,-0.0588,0.0,0.0,0.0,0.0,0.0,0.0,0.0,0.0,0.0,0.0,0.0,0.0,0.0,0.0,0.0,0.0,0.0,0.0,0.0,0.0,0.0,0.0,0.0,0.0,0.0,0.0,0.0,0.0,0.0,0.0,0.0,0.0,0.0,-0.1721,-0.2113,-0.2651,-0.3143,-0.3714,-0.4439,-0.5285,-0.592,-0.6577,-0.7314,-0.7803,-0.8281,-0.8763,-0.9282,-0.9797,-1.0272,-1.0777,-1.1219,-1.156,-1.1747,-1.1895,-1.2042,-1.2042,-1.2042,-1.2042,-1.2042,-1.2042,-1.2042,-1.2042,-1.2042,-1.2042,-1.2042,-1.2042,-1.1858,-1.0292,-0.9657,-0.9686,-0.9948,-1.0179,-1.0365,0.0,0.0,0.0,0.0,0.0,0.0,0.1426,0.0901,0.0337,-0.0305,-0.0856,-0.1454,-0.2107,-0.2488,-0.2807,-0.3131,-0.3298,-0.3437,-0.3471,-0.3477,-0.3556,-0.3702,-0.3921,-0.403,-0.4027,-0.403,-0.4064,-0.4099,-0.4163,-0.4164,-0.4101,-0.4164,-0.4179,-0.4179,-0.4179,-0.4126,-0.4058,-0.3808,-0.3453,-0.2932,-0.1829,-0.1359,-0.1257,0.0,0.0,0.0,0.0,0.0,0.0,0.0,0.0,0.0,0.0,0.0,0.0,0.0,0.0,0.0,0.0,0.0,0.0,0.0,0.0,0.0,0.0,0.0,0.0,0.0,0.0,0.0,0.0,0.0,0.0,0.0,0.0,-0.4071,-0.3417,-0.3964,-0.4622,-0.5135,-0.5783,-0.6432,-0.7042,-0.7555,-0.8157,-0.8854,-0.9451,-1.003,-1.0557,-1.1034,-1.1618,-1.228,-1.229,-1.2546,-1.3012,-1.2779,-1.2681,-1.2742,-1.2742,-1.2742,-1.2742,-1.2742,-1.2742,-1.2742,-1.2742,-1.2742,-1.2742,-1.2742,-1.2742,-1.2602,-1.1488,-1.1064,-1.1056,-1.1033,-1.1274,-1.1632,0.0,0.0,0.0,0.0,0.0,0.0,0.1183,0.062,0.0,-0.0797,-0.1384,-0.2025,-0.2716,-0.3267,-0.372,-0.3999,-0.4306,-0.45,-0.4536,-0.4573,-0.4675,-0.489,-0.4986,-0.5008,-0.4893,-0.499,-0.5001,-0.4954,-0.5104,-0.5162,-0.5167,-0.518,-0.5204,-0.5204,-0.5204,-0.514,-0.5012,-0.4762,-0.4484,-0.4139,-0.3119,-0.2408,-0.1969,-0.1397,-0.1088,-0.0911,-0.0358,0.0027,0.0333,0.0667,0.0,0.0,0.0,0.0,0.0,0.0,0.0,0.0,0.0,0.0,0.0,0.0,0.0,0.0,0.0,0.0,0.0,0.0,0.0,0.0,0.0,0.0,0.0,0.0,-0.5452,-0.5955,-0.6032,-0.6023,-0.6258,-0.6923,-0.7531,-0.8162,-0.8866,-0.9265,-0.9797,-1.0479,-1.1185,-1.1818,-1.2359,-1.2885,-1.3435,-1.401,-1.3967,-1.4084,-1.438,-1.4055,-1.3865,-1.3865,-1.3701,-1.3623,-1.3623,-1.3623,-1.3623,0.0,-1.3623,-1.3623,-1.3623,-1.3623,-1.3644,0.0,0.0,0.0,0.0,0.0,-1.2785,-1.3112,0.0,0.0,0.0,0.0,0.0,0.0,0.0894,0.0358,-0.0297,-0.1236,-0.1855,-0.2487,-0.3249,-0.3961,-0.4485,-0.4722,-0.5161,-0.5429,-0.5498,-0.5559,-0.5697,-0.5907,-0.5911,-0.5868,-0.5771,-0.5954,-0.5973,-0.5797,-0.608,-0.6227,-0.6211,-0.6298,-0.6318,-0.6279,-0.6279,-0.6131,-0.5897,-0.5701,-0.5433,-0.5123,-0.4588,-0.3731,-0.2718,-0.2351,-0.1979,-0.1566,-0.1171,-0.0774,-0.0375,0.0026,0.0,0.0,0.0,0.0,0.0,0.0,0.0,0.0,0.0,0.0,0.0,0.0,0.0,0.0,0.0,0.0,0.0,0.0,0.0,0.0,0.0,0.0,0.0,0.0,-0.725,-0.8074,-0.8991,-0.8253,-0.7903,-0.8604,-0.9135,-0.9801,-1.0744,-1.1067,-1.1525,-1.2282,-1.2988,-1.3588,-1.4087,0.0,0.0,0.0,0.0,-1.5675,-1.5721,-1.5422,-1.5263,-1.5216,-1.4837,-1.4664,-1.4588,-1.4588,-1.4588,-1.4588,-1.4588,-1.4588,-1.4588,-1.4588,-1.4677,-1.4765,-1.3953,-1.3653,-1.3752,-1.4181,-1.4478,0.0,0.0,0.0,0.0,0.0,0.0,0.0,0.081,0.014,-0.0663,-0.1658,-0.2338,-0.3089,-0.3992,-0.4596,-0.5121,-0.5527,-0.5898,-0.6265,-0.6656,-0.6745,-0.6894,-0.714,-0.715,-0.7067,-0.6891,-0.6933,-0.6958,-0.696,-0.7028,-0.7027,-0.6981,-0.7011,-0.6907,-0.6745,-0.6745,-0.6727,-0.6656,-0.6341,-0.6192,-0.6066,-0.554,-0.468,-0.3664,-0.3191,-0.2733,-0.2323,-0.1933,-0.1566,-0.12,-0.0807,-0.0501,-0.0262,-0.0177,0.0,0.0,0.0,0.0,0.0,0.0,0.0,0.0,0.0,0.0,0.0,0.0,0.0,0.0,0.0,0.0,0.0,0.0,0.0,0.0,-0.8229,-0.894,-0.9624,-1.0399,-1.0777,-1.0843,-1.0464,-1.1021,-1.1797,-1.2767,-1.3112,-1.3614,-1.4367,-1.4801,-1.5144,-1.5423,-1.5803,0.0,-1.6811,-1.6638,-1.6715,-1.7021,-1.667,-1.6282,-1.5912,0.0,0.0,-1.5235,-1.5235,-1.5235,-1.5235,-1.5235,-1.5235,-1.5235,-1.5235,-1.541,-1.5613,-1.4913,-1.4736,-1.4903,-1.5089,-1.5352,-1.5623,0.0,0.0,0.0,0.0,0.0,0.0,0.0657,-0.0016,-0.0813,-0.1809,-0.2648,-0.3479,-0.4316,-0.5089,-0.5761,-0.6256,-0.6799,-0.7213,-0.7492,-0.7608,-0.7722,-0.7892,-0.7962,-0.7923,-0.7763,-0.7837,-0.7868,-0.7844,-0.7867,-0.7849,-0.7791,-0.768,-0.7603,-0.7484,-0.7484,-0.7484,-0.7476,-0.7231,-0.7116,-0.7058,-0.6615,-0.6001,-0.5269,-0.4361,-0.3679,-0.3202,-0.2954,-0.2623,-0.225,-0.1924,-0.1604,-0.1329,-0.123,-0.1124,-0.1053,0.0,0.0,0.0,0.0,0.0,0.0,0.0,0.0,0.0,0.0,0.0,0.0,0.0,0.0,-0.6486,0.0,0.0,-0.8767,-0.9741,-1.036,-1.0997,-1.1842,-1.2651,-1.2852,-1.2063,-1.2621,-1.341,-1.4221,-1.4642,-1.5092,-1.5707,-1.6132,-1.6458,-1.6741,-1.7106,-1.7461,-1.7852,-1.7711,-1.7757,-1.7942,-1.7538,-1.7233,-1.7014,-1.6805,-1.6586,-1.6367,-1.6427,-1.6457,-1.6457,-1.6548,-1.6608,-1.6587,-1.6424,-1.6451,-1.6547,-1.6061,-1.5826,-1.5768,-1.5826,-1.6056,-1.6371,0.0,0.0,0.0,0.0,0.0,0.0,0.0,-0.0109,-0.0873,-0.1877,-0.2794,-0.366,-0.4484,-0.5367,-0.6202,-0.6919,-0.7575,-0.8018,-0.8183,-0.8311,-0.8443,-0.8511,-0.8605,-0.8614,-0.8503,-0.8672,-0.8694,-0.8548,-0.8609,-0.8594,-0.8513,-0.8365,-0.8255,-0.8217,-0.8217,-0.8217,-0.8217,-0.8055,-0.7974,-0.7957,-0.7579,-0.7251,-0.6797,-0.5674,-0.4823,-0.4177,-0.4054,-0.3725,-0.3345,-0.3112,-0.2842,-0.2559,-0.2435,-0.2374,-0.2374,-0.2407,-0.2501,0.0,0.0,0.0,0.0,0.0,0.0,0.0,0.0,0.0,-0.6243,-0.7007,-0.7611,-0.8246,-0.9132,-0.9688,-1.0281,-1.1122,-1.1766,-1.2418,-1.3197,-1.4157,-1.4506,-1.3773,-1.424,-1.4877,-1.5554,-1.598,-1.6398,-1.6902,-1.7318,-1.7688,-1.7994,-1.8315,-1.8573,-1.8717,-1.8707,-1.8707,-1.8707,-1.8408,-1.8173,-1.8082,-1.7767,-1.7574,-1.7492,-1.7595,-1.7657,-1.7657,-1.7812,-1.7863,-1.7873,-1.7617,-1.7495,-1.7408,-1.718,-1.6864,-1.6581,-1.6524,-1.6694,-1.6948,0.0,0.0,0.0,0.0,0.0,0.0,0.0,0.0,-0.089,-0.1942,-0.2691,-0.3566,-0.4733,-0.5275,-0.6109,-0.7482,-0.7907,-0.832,-0.8852,-0.902,-0.9145,-0.9273,-0.9227,-0.9196,-0.9203,-0.9335,-0.9305,-0.9098,-0.936,-0.9273,-0.8927,-0.8927,-0.8813,-0.8627,-0.8627,-0.8627,-0.8627,-0.8623,-0.8585,-0.8552,-0.8165,-0.7891,-0.7615,-0.712,-0.6235,-0.5219,-0.5086,-0.4777,-0.4412,-0.4335,-0.4147,-0.3953,-0.3825,-0.374,-0.3722,-0.3841,-0.3907,-0.4055,-0.4365,-0.4784,-0.5224,-0.5654,-0.6279,-0.6843,0.0,0.0,-0.8438,-0.8763,-0.9125,-0.9648,-1.0523,-1.1049,-1.1644,-1.2463,-1.3425,-1.4183,-1.4382,-1.539,-1.6084,-1.6103,-1.6097,-1.6341,-1.7093,-1.7464,-1.7923,-1.8491,-1.8762,-1.8969,-1.9102,-1.9154,-1.9285,-1.9473,-1.9473,-1.9473,-1.9473,-1.942,-1.9188,-1.8807,-1.8744,-1.85,-1.8098,-1.8098,-1.8129,-1.8129,-1.8159,-1.8159,-1.8159,-1.8319,-1.82,-1.7926,-1.7998,-1.7838,-1.7507,-1.7267,-1.7295,-1.7451,0.0,0.0,0.0,0.0,0.0,0.0,0.0,0.0,0.0,-0.153,-0.2522,-0.3474,-0.4295,-0.5431,-0.6535,-0.7488,-0.8083,-0.8508,-0.8815,-0.9076,-0.9288,-0.9515,-0.95,-0.9532,-0.965,-0.9711,-0.965,-0.9474,-0.95,-0.9473,-0.9453,-0.9342,-0.9335,-0.9387,-0.9387,-0.9387,-0.9377,-0.9143,-0.9055,-0.9025,-0.8561,-0.8259,-0.8063,-0.7909,-0.7358,-0.663,-0.6172,-0.5902,0.0,-0.554,-0.5386,-0.5242,-0.5273,-0.5248,-0.5268,-0.5397,-0.558,-0.5831,-0.6308,-0.6796,-0.7274,-0.7777,-0.8303,-0.8761,-0.9164,-0.9517,-0.9889,-1.0331,-1.0704,-1.116,-1.1873,-1.2388,-1.297,0.0,-1.4471,-1.5157,-1.5625,-1.6584,-1.7328,-1.7574,-1.789,-1.8021,-1.8005,-1.8434,-1.8868,-1.9231,-1.9341,-1.9407,-1.9483,-1.9473,-1.9506,-1.9605,-1.9605,-1.9605,-1.9605,-1.9605,-1.9509,-1.9318,-1.9318,-1.9211,-1.902,-1.9147,-1.9306,-1.9465,-1.9465,-1.9571,-1.9632,-1.9397,-1.9216,-1.9066,-1.887,-1.8742,-1.8611,-1.7812,-1.7617,-1.7744,0.0,0.0,0.0,0.0,0.0,0.0,0.0,0.0,0.0,0.0,-0.2178,-0.3183,-0.403,-0.5474,-0.6653,-0.7293,-0.7933,-0.8403,-0.8668,-0.8963,-0.9245,-0.9482,-0.9515,-0.9655,-0.9906,-0.9894,-0.9825,-0.9742,-0.9638,-0.9621,-0.9757,-0.9614,-0.967,-0.9834,-0.9834,-0.9834,-0.9828,-0.955,-0.9408,-0.9387,-0.8966,-0.8743,-0.8586,-0.8473,-0.8216,-0.784,-0.7238,-0.6913,-0.6783,-0.6707,-0.6597,-0.6497,-0.6659,-0.6713,-0.6767,-0.7004,-0.7272,-0.7637,-0.8238,-0.8699,-0.915,-0.9736,-1.0186,-1.0567,-1.0927,-1.1089,-1.1342,-1.1824,-1.2146,-1.2495,-1.3028,-1.3472,-1.4025,-1.4763,-1.5393,-1.6023,-1.674,-1.7646,-1.8308,-1.8568,-1.9098,-1.9303,-1.8922,-1.9262,-1.9561,-1.9736,-1.9802,-1.9813,-1.9813,-1.978,-1.9747,-1.9747,-1.9747,-1.9747,-1.9747,-1.9747,-1.9747,-1.9747,-1.9747,-1.9747,-1.9736,-1.9944,-2.0205,-2.0475,-2.0475,-2.0572,-2.0679,-2.0317,-2.0081,-1.9966,-1.9648,-1.9512,-1.9386,-1.8555,-1.8221,-1.8146,0.0,0.0,0.0,0.0,0.0,0.0,0.0,0.0,0.0,0.0,0.0,0.0,0.0,-0.5307,-0.6227,-0.6944,-0.7337,-0.7835,-0.8547,-0.8851,-0.9079,-0.9211,-0.9332,-0.9574,-0.9903,-0.9838,-0.9817,-0.9886,-0.9966,-0.9881,-0.9718,-0.9683,-0.9688,-0.9694,-0.9694,-0.9694,-0.9694,-0.9688,-0.9683,-0.966,-0.9468,-0.9371,-0.9326,-0.8946,-0.8775,-0.8696,-0.8233,-0.7714,-0.7339,-0.7785,-0.7819,-0.7691,-0.7945,-0.8045,-0.8131,-0.8587,-0.9014,-0.9444,-0.998,-1.0327,-1.067,-1.1208,-1.1775,-1.2243,-1.2243,-1.2601,-1.2984,-1.3213,-1.3342,-1.3563,-1.3881,-1.424,-1.4726,-1.5449,-1.623,-1.6973,-1.7588,-1.8469,-1.9077,-1.9088,-1.9561,-1.9922,0.0,-2.0063,-2.0074,-2.0063,-2.0259,-2.0378,-2.0378,-2.0183,-2.0074,-2.0074,-2.0074,-2.0074,-2.0074,-2.0074,-2.0074,-2.0074,-2.0074,-2.0074,-2.0074,-2.0281,-2.0508,-2.0701,-2.0701,-2.0701,-2.0701,-2.0828,-2.0608,-2.0188,-2.0308,-2.0102,-1.9688,-1.9654,-1.9321,-1.8833,0.0,0.0,0.0,0.0,0.0,0.0,0.0,0.0,0.0,0.0,0.0,0.0,0.0,0.0,0.0,0.0,-0.6776,-0.7304,-0.7964,-0.8218,-0.8556,-0.9031,-0.9018,-0.9192,-0.9554,-0.9539,-0.9454,-0.9297,-0.951,-0.9574,-0.9583,-0.9754,-0.9925,-1.009,-1.009,-1.009,-1.0078,-0.981,-0.9706,-0.9683,-0.9443,-0.9206,-0.9006,-0.9148,-0.901,-0.8767,0.0,-0.865,-0.8265,-0.8471,-0.8592,-0.8758,-0.9007,-0.9209,-0.9462,-0.9969,-1.0441,-1.0891,-1.135,-1.191,-1.249,-1.2837,-1.3244,-1.359,-1.3729,-1.3886,-1.4013,-1.4082,-1.4201,-1.438,-1.4606,-1.4893,-1.5407,-1.6377,-1.6934,-1.7568,-1.8514,-1.9081,-1.9473,-1.9605,-2.0009,0.0,0.0,0.0,0.0,-2.0496,-2.0561,-2.054,-2.041,-2.0346,-2.0248,-2.0118,-2.0118,-2.0118,-2.0118,-2.0118,-2.0118,-2.0118,-2.0248,-2.0313,-2.0313,-2.0508,-2.069,-2.085,-2.085,-2.0914,-2.1042,-2.1074,-2.1003,-2.0854,-2.0905,-2.0896,-2.0792,-2.0468,-2.0296,-2.0152,0.0,0.0,0.0,0.0,0.0,0.0,0.0,0.0,0.0,0.0,0.0,0.0,0.0,0.0,0.0,0.0,0.0,-0.6601,-0.7154,-0.7481,-0.7874,-0.8406,-0.8388,-0.858,-0.9043,-0.9,-0.8982,-0.8997,-0.91,-0.9187,-0.9233,-0.9402,-0.9564,-0.9727,-0.9792,-0.9825,-0.9813,-0.9623,-0.9524,-0.9506,-0.9325,-0.915,-0.8987,-0.923,-0.9135,0.0,-0.9323,-0.9302,-0.9106,-0.9188,-0.9387,-0.9629,-1.0002,-1.0387,-1.0786,-1.1311,-1.174,-1.2149,-1.2797,-1.3368,-1.3853,-1.4229,-1.4461,-1.4656,-1.4795,-1.4824,-1.4824,-1.4824,-1.4951,-1.5108,-1.5235,-1.543,-1.5871,-1.6778,-1.7307,-1.7915,-1.8831,-1.94,-1.978,-1.9868,-2.014,-2.0346,0.0,0.0,0.0,-2.0754,-2.0754,-2.069,-2.0508,-2.0443,-2.0313,-2.0118,-2.0118,-2.0118,-2.0118,-2.0118,-2.0151,-2.0216,-2.0346,-2.0464,-2.0593,-2.0722,-2.085,-2.0999,-2.0999,-2.1094,-2.119,-2.119,-2.1221,-2.1285,-2.1285,-2.138,-2.1471,-2.1187,-2.112,-2.1075,0.0,0.0,0.0,0.0,0.0,0.0,0.0,0.0,0.0,0.0,0.0,0.0,0.0,0.0,0.0,0.0,0.0,0.0,-0.6195,-0.6677,-0.7055,-0.7329,-0.7486,-0.7801,-0.8344,-0.8231,-0.84,-0.8916,-0.8743,-0.8668,-0.8668,-0.8692,-0.871,-0.871,-0.8909,-0.8997,-0.9003,-0.9132,-0.9197,-0.9197,-0.9197,-0.9214,-0.9205,-0.9212,-0.9198,-0.9261,-0.952,-0.9718,-0.9865,-0.9991,-1.0154,-1.0377,-1.0964,-1.1536,-1.2077,-1.2604,-1.2882,-1.3235,-1.433,-1.4655,-1.4799,-1.5312,-1.5439,-1.5439,-1.5439,-1.5439,-1.5439,-1.5439,-1.5575,-1.573,-1.573,-1.5856,-1.6142,-1.6756,-1.7389,-1.8041,-1.8638,-1.9382,-1.99,0.0,0.0,0.0,0.0,0.0,0.0,-2.0871,0.0,-2.0839,-2.0701,-2.0508,-2.0313,-2.0118,-2.0118,-2.0118,-2.0118,-2.0118,-2.0216,-2.041,-2.041,-2.0593,-2.0903,-2.0903,-2.1031,-2.119,-2.119,-2.119,-2.119,-2.119,-2.1273,-2.1388,-2.1388,-2.1537,-2.1698,-2.1698,-2.1698,-2.1557,0.0,0.0,0.0,0.0,0.0,0.0,0.0,0.0,0.0,0.0,0.0,0.0,0.0,0.0,0.0,0.0,0.0,0.0,-0.5286,-0.5722,-0.6144,-0.657,-0.6844,-0.7201,-0.7634,-0.7622,-0.7666,-0.7803,-0.8168,-0.8263,-0.8111,-0.8524,-0.871,-0.871,-0.8763,-0.8857,-0.8997,-0.9032,-0.9097,-0.9197,-0.9308,-0.9294,-0.9205,-0.9321,-0.9418,-0.952,-0.9814,-1.0146,-1.048,-1.0514,-1.0871,-1.1418,-1.1977,-1.2429,-1.2868,-1.332,-1.3962,-1.4629,-1.5022,-1.5341,-1.5591,-1.5739,-1.5759,-1.5759,-1.5759,-1.5759,-1.5759,-1.5759,-1.5894,-1.6038,-1.6202,-1.6335,-1.6623,-1.721,-1.7752,0.0,-1.8997,-1.9555,0.0,-2.0042,0.0,-2.0367,-2.0475,-2.0604,0.0,0.0,-2.0839,-2.0775,-2.0475,-2.0443,-2.0313,-2.0118,-2.0118,-2.0118,-2.0118,-2.0118,-2.0216,-2.041,-2.054,-2.0722,-2.0903,-2.1063,-2.1158,-2.119,-2.119,-2.119,-2.119,-2.119,-2.1273,-2.1388,-2.1388,-2.16,-2.1843,-2.1843,-2.1843,-2.1808,0.0,0.0,0.0,0.0,0.0,0.0,0.0,0.0,0.0,0.0,0.0,0.0,0.0,0.0,0.0,0.0,0.0,0.0,0.0,-0.4764,-0.5186,-0.5534,-0.5912,-0.6289,-0.6721,-0.6835,-0.6949,-0.7146,-0.7504,-0.7605,-0.7514,-0.788,-0.8039,-0.8039,-0.8093,-0.8269,-0.8468,-0.8551,-0.8703,0.0,0.0,-0.8863,-0.8891,-0.8912,-0.901,-0.9197,-0.9526,-1.0188,-1.0896,-1.1077,-1.1536,-1.2126,-1.2529,-1.303,-1.3551,-1.4046,-1.4703,-1.5353,-1.5769,-1.6054,-1.622,-1.6278,-1.6278,-1.6278,-1.6278,-1.6123,-1.5979,-1.5979,-1.587,-1.588,-1.62,-1.6332,-1.6564,0.0,0.0,0.0,-1.8811,-1.9338,-1.977,0.0,-2.0216,0.0,-2.0378,-2.0508,-2.0572,0.0,-2.0722,-2.069,-2.041,-2.041,-2.0313,-2.0118,-2.0118,-2.0118,-2.0118,-2.0118,-2.0248,-2.054,-2.0637,-2.083,-2.1031,-2.1158,-2.119,-2.119,0.0,-2.119,-2.119,-2.119,-2.1316,-2.1549,-2.1549,-2.1737,-2.203,-2.1925,-2.1874,-2.1781,0.0,0.0,0.0,0.0,0.0,0.0,0.0,0.0,0.0,0.0,0.0,0.0,0.0,0.0,0.0,0.0,0.0,0.0,0.0,0.0,-0.4224,-0.4441,-0.4847,-0.5265,-0.5694,-0.593,-0.623,-0.6589,-0.6782,-0.6889,-0.6895,-0.7068,-0.7152,-0.7152,-0.7266,-0.7474,-0.7735,-0.7854,-0.8114,-0.8436,-0.8163,-0.8215,-0.8443,0.0,-0.8435,-0.8717,-0.9152,-1.0089,-1.1193,-1.1598,-1.2091,-1.2603,-1.2847,-1.3442,-1.4129,-1.468,-1.5225,-1.5801,-1.6437,-1.6637,-1.6655,-1.6779,-1.6818,-1.6768,-1.6705,-1.6403,-1.6084,-1.6031,-1.5701,-1.5578,-1.5999,-1.6143,-1.6325,-1.6714,0.0,-1.7986,-1.8462,-1.9031,-1.9562,-2.0053,-2.0118,-2.0183,-2.0346,-2.0346,-2.0346,-2.0346,-2.0508,-2.054,-2.0378,-2.0346,-2.0281,-2.0118,-2.0118,-2.0118,-2.0118,-2.0118,-2.0313,-2.0701,-2.0701,-2.0894,-2.119,-2.119,-2.119,-2.119,0.0,0.0,-2.119,-2.119,-2.1391,-2.1655,-2.1655,-2.1855,-2.2104,-2.1937,-2.1781,-2.1624,0.0,0.0,0.0,0.0,0.0,0.0,0.0,0.0,0.0,0.0,0.232,0.1653,0.0,0.0,0.0,0.0,0.0,0.0,0.0,0.0,0.0,-0.3598,-0.4102,-0.4481,-0.4728,-0.5111,-0.5355,-0.5486,-0.6063,-0.6332,-0.6355,-0.6712,-0.6858,-0.6882,-0.6906,-0.7056,-0.7297,-0.7321,-0.7516,-0.7779,-0.7769,-0.7941,-0.8181,-0.8268,0.0,0.0,-0.9696,-1.0502,-1.1338,-1.1724,-1.2292,-1.2871,-1.3084,-1.3831,-1.4701,-1.5024,-1.5729,-1.6448,-1.6701,-1.6761,-1.6779,-1.6779,-1.6818,-1.6711,-1.6318,-1.6158,-1.5999,-1.56,-1.5644,-1.5766,-1.5842,-1.6273,-1.6611,-1.6698,-1.742,-1.8133,-1.8602,-1.9082,-1.9562,0.0,-2.0118,-2.0107,-2.0151,0.0,0.0,0.0,0.0,0.0,-2.014,-2.0151,-2.0151,-2.0118,-2.0118,-2.0118,-2.0118,-2.0118,-2.0313,-2.0701,-2.0701,-2.0894,-2.119,-2.119,-2.119,-2.119,0.0,0.0,-2.119,-2.119,-2.1316,-2.1463,-2.1463,-2.158,-2.1792,-2.1761,-2.1612,-2.1463,0.0,0.0,0.0,0.0,0.0,0.0,0.0,0.416,0.382,0.3408,0.2928,0.2382,0.1741,0.1104,0.0536,0.0,0.0,0.0,0.0,0.0,0.0,-0.2702,-0.3245,-0.3649,-0.3925,-0.4332,-0.4601,-0.4724,0.0,-0.5428,-0.5433,-0.5864,-0.6063,-0.6068,-0.622,-0.6418,-0.6678,-0.6754,-0.7025,-0.7385,-0.7323,-0.7498,-0.7784,-0.7807,0.0,0.0,-0.9319,-1.0066,-1.0862,-1.1412,-1.2109,-1.2795,-1.31,-1.3829,-1.4625,-1.5086,-1.5695,-1.6322,-1.6789,-1.6909,-1.6948,-1.7043,-1.6905,-1.6683,-1.6445,-1.609,-1.5716,-1.5498,-1.5356,-1.5366,-1.5609,-1.5881,-1.6228,-1.6728,-1.7163,-1.7644,-1.8335,-1.8832,-1.9284,-1.9682,-1.9965,-2.0118,0.0,0.0,0.0,0.0,0.0,0.0,-2.0118,-2.0118,-2.0118,-2.0118,-2.0118,-2.0118,-2.0118,-2.0118,-2.0313,-2.0701,-2.0701,-2.0894,-2.119,-2.119,-2.119,-2.119,-2.119,0.0,-2.119,-2.119,-2.1273,-2.1388,-2.1388,-2.1506,-2.1698,-2.158,-2.1463,-2.1388,0.0,0.0,0.0,0.0,0.0,0.0,0.0,0.4382,0.403,0.3603,0.3325,0.2948,0.2383,0.1756,0.1194,0.0,0.0,0.0,0.0,0.0,0.0,0.0,0.0,0.0,-0.3092,0.0,0.0,-0.4046,-0.4376,0.0,0.0,0.0,0.0,0.0,-0.548,-0.5734,-0.5974,-0.6175,-0.6493,0.0,0.0,-0.7014,0.0,0.0,0.0,0.0,0.0,-0.9553,-1.0337,-1.0953,-1.1719,-1.2504,-1.2946,-1.3654,-1.4426,-1.4948,-1.5516,-1.6115,-1.6735,-1.6915,-1.6971,-1.7142,-1.6878,-1.6561,-1.6461,-1.5942,-1.5484,-1.5383,-1.5081,-1.4923,-1.5305,-1.5463,-1.5822,-1.6662,-1.686,-1.7205,-1.8065,-1.86,-1.9036,0.0,-1.9813,0.0,-2.0118,0.0,0.0,0.0,0.0,0.0,0.0,-2.0118,-2.0118,-2.0118,-2.0118,-2.0118,-2.0118,-2.0118,-2.0313,-2.0701,-2.0701,-2.0894,-2.119,-2.119,-2.119,-2.119,-2.119,0.0,0.0,-2.119,-2.1253,-2.1368,-2.1368,-2.1443,-2.1561,-2.1411,-2.1368,-2.1336,0.0,0.0,0.0,0.0,0.0,0.0,0.0,0.4401,0.4009,0.3714,0.3495,0.3276,0.3037,0.2209,0.1548,0.0,0.0,0.0,0.0,0.0,0.0,0.0,0.0,0.0,0.0,0.0,0.0,-0.3209,-0.3723,0.0,0.0,0.0,0.0,0.0,0.0,-0.506,-0.523,-0.5594,0.0,0.0,0.0,0.0,0.0,0.0,0.0,0.0,0.0,-0.9491,-1.0164,-1.0529,-1.1206,-1.1963,-1.2494,-1.3505,-1.4524,-1.4694,-1.547,-1.6305,-1.6499,-1.6617,-1.6735,-1.6762,-1.6502,-1.6126,-1.5717,-1.5549,-1.5383,-1.4956,-1.4879,-1.4903,-1.4948,-1.5345,-1.5843,-1.6364,-1.6688,-1.7205,-1.8065,-1.86,-1.9036,-1.9364,0.0,0.0,-2.0118,0.0,0.0,0.0,0.0,0.0,0.0,-2.0118,-2.0118,-2.0118,-2.0118,-2.0118,-2.0118,-2.0118,-2.0313,-2.0701,-2.0701,-2.0894,-2.119,-2.119,-2.119,-2.119,0.0,0.0,0.0,-2.119,-2.1221,-2.1221,-2.1221,-2.1221,-2.1221,-2.1221,-2.1221,-2.1221,0.0,0.0,0.0,0.0,0.0,0.0,0.4981,0.4525,0.4115,0.3796,0.3515,0.326,0.3066,0.2595,0.2175,0.1866,0.0,0.0,0.0,0.0,0.0,0.0,0.0,0.0,0.0,0.0,-0.237,-0.2493,-0.2951,0.0,0.0,0.0,0.0,0.0,0.0,-0.4455,-0.4528,-0.5014,0.0,0.0,0.0,0.0,0.0,0.0,0.0,0.0,0.0,0.0,-0.9726,-1.0324,-1.0899,-1.143,-1.2009,-1.2832,-1.3742,-1.4471,-1.5057,-1.556,-1.597,-1.6177,-1.628,-1.628,-1.6093,-1.5862,-1.5659,-1.5424,-1.5222,-1.5028,-1.5074,-1.5131,-1.5131,-1.5315,-1.5613,-1.6143,-1.6514,-1.693,-1.7519,-1.817,-1.8733,-1.905,-1.9439,0.0,0.0,0.0,0.0,0.0,0.0,0.0,0.0,-2.0118,-2.0118,-2.0118,-2.0118,-2.0118,-2.0118,-2.0118,-2.0313,-2.0701,-2.0701,-2.0894,-2.119,-2.119,-2.119,-2.119,0.0,0.0,0.0,-2.119,-2.119,-2.119,-2.119,-2.119,-2.119,-2.119,-2.119,-2.119,0.0,0.0,0.0,0.0,0.0,0.5473,0.5088,0.4645,0.4234,0.3875,0.3612,0.3349,0.3115,0.2944,0.2724,0.243,0.1989,0.0,0.0,0.0,0.0,0.0,0.0,0.0,0.0,0.0,-0.1744,-0.1931,-0.2281,-0.248,0.0,0.0,0.0,0.0,0.0,0.0,0.0,0.0,0.0,0.0,0.0,0.0,0.0,0.0,0.0,0.0,0.0,0.0,0.0,0.0,0.0,-1.0831,-1.1442,-1.206,-1.2809,-1.3962,-1.4575,-1.4998,-1.547,-1.5733,-1.5847,-1.5847,-1.5688,-1.5518,-1.5518,-1.5188,-1.489,-1.489,-1.4979,-1.5068,-1.5068,-1.5218,-1.552,-1.6009,-1.64,-1.6793,-1.7141,-1.7884,-1.8509,0.0,0.0,0.0,0.0,0.0,0.0,0.0,0.0,0.0,0.0,-2.0118,-2.0118,-2.0118,-2.0118,-2.0118,-2.0118,-2.0118,-2.0313,-2.0701,-2.0701,-2.0894,-2.119,-2.119,-2.119,-2.119,0.0,0.0,0.0,-2.119,-2.119,-2.119,-2.119,-2.119,-2.119,-2.1126,-2.1094,-2.1094,0.0,0.0,0.0,0.0,0.0,0.0,0.5146,0.4755,0.4354,0.3952,0.3835,0.3668,0.3338,0.3234,0.3112,0.2913,0.2342,0.0,0.0,0.0,0.0,0.0,0.0,0.0,0.0,0.0,-0.1243,-0.1507,-0.1778,-0.1981,-0.2117,-0.2311,-0.2444,-0.2533,0.0,0.0,0.0,0.0,0.0,0.0,0.0,0.0,0.0,0.0,0.0,0.0,0.0,0.0,0.0,0.0,0.0,0.0,0.0,-1.1287,-1.1829,-1.2976,-1.4071,-1.4922,-1.5067,-1.53,-1.5517,-1.5517,-1.53,-1.5119,-1.5119,-1.4741,-1.4418,-1.4418,-1.4448,-1.451,-1.451,-1.505,-1.5622,-1.6033,-1.6484,-1.6906,-1.7152,-1.7884,-1.8509,0.0,0.0,0.0,0.0,0.0,0.0,0.0,0.0,0.0,0.0,0.0,-2.0118,-2.0118,-2.0118,-2.0118,-2.0118,-2.0118,-2.0313,-2.0701,-2.0701,-2.0894,-2.119,-2.119,-2.119,0.0,0.0,0.0,0.0,-2.119,-2.119,-2.119,-2.119,-2.119,-2.1169,-2.0967,-2.0903,-2.0871,0.0,0.0,0.0,0.0,0.0,0.0,0.0,0.4872,0.4532,0.4211,0.4042,0.3845,0.3598,0.3514,0.3398,0.3196,0.2708,0.0,0.0,0.0,0.0,0.0,0.0,0.0,0.0,0.0,-0.0706,-0.1025,-0.1294,-0.1464,-0.1565,-0.1895,-0.2078,-0.2114,-0.2504,0.0,0.0,0.0,0.0,0.0,0.0,0.0,0.0,0.0,0.0,0.0,0.0,0.0,0.0,0.0,0.0,0.0,0.0,0.0,0.0,-1.1944,-1.2765,-1.354,-1.3898,-1.4156,-1.445,-1.4911,-1.4744,-1.4515,-1.4592,-1.4212,-1.3845,-1.3845,-1.4203,-1.4532,-1.4617,-1.5116,-1.5538,-1.5669,-1.6324,-1.6804,-1.6802,-1.7443,0.0,0.0,0.0,0.0,0.0,0.0,0.0,0.0,0.0,0.0,0.0,0.0,-2.0118,-2.0118,-2.0118,-2.0118,-2.0118,-2.0118,-2.0248,-2.0475,-2.0475,-2.0625,-2.085,-2.085,0.0,0.0,0.0,0.0,0.0,-2.085,-2.085,-2.085,-2.085,-2.085,-2.0862,-2.0786,-2.0754,-2.0733,0.0,0.0,0.0,0.0,0.0,0.0,0.0,0.4981,0.4683,0.4414,0.423,0.4042,0.3835,0.3755,0.3643,0.3465,0.3115,0.0,0.0,0.0,0.0,0.0,0.0,0.0,0.0369,0.0034,-0.0303,-0.0605,-0.0908,-0.1076,-0.1128,-0.1496,-0.168,-0.1697,-0.2045,-0.2228,0.0,0.0,0.0,0.0,0.0,0.0,-0.5933,0.0,0.0,0.0,0.0,0.0,0.0,0.0,0.0,0.0,0.0,0.0,0.0,0.0,-1.158,-1.2253,-1.3033,-1.3347,-1.3607,-1.4049,-1.4013,-1.3895,-1.4023,-1.3643,-1.3266,-1.3317,-1.3822,-1.4253,-1.4348,-1.4987,-1.5468,-1.5435,-1.6196,-1.6734,-1.6623,0.0,0.0,0.0,0.0,0.0,0.0,0.0,0.0,0.0,0.0,0.0,0.0,0.0,-2.0118,-2.0118,-2.0118,-2.0118,-2.0118,-2.0118,-2.0216,-2.041,-2.041,-2.0508,-2.0701,-2.0701,0.0,0.0,0.0,0.0,0.0,-2.0701,-2.0701,-2.0701,-2.0701,-2.0701,-2.0701,-2.0604,-2.0572,-2.0572,0.0,0.0,0.0,0.0,0.0,0.0,0.0,0.5078,0.4824,0.4547,0.4404,0.4242,0.4042,0.397,0.3869,0.3731,0.0,0.0,0.0,0.0,0.0,0.0,0.0,0.0,0.0838,0.0387,0.0017,-0.0252,-0.0588,-0.0756,-0.0773,-0.1111,-0.1263,-0.1279,-0.168,-0.1911,-0.2053,0.0,0.0,0.0,0.0,0.0,0.0,0.0,0.0,0.0,0.0,0.0,0.0,0.0,0.0,0.0,0.0,0.0,0.0,0.0,0.0,0.0,0.0,-1.2772,-1.2962,-1.3068,-1.3159,-1.327,-1.3404,-1.3052,0.0,-1.285,-1.3374,-1.3825,-1.3837,-1.4734,-1.5458,-1.5381,-1.6171,-1.6783,-1.6681,-1.7406,0.0,0.0,0.0,0.0,0.0,0.0,0.0,0.0,0.0,0.0,0.0,0.0,0.0,-2.0118,-2.0118,-2.0118,-2.0118,-2.0118,-2.0183,-2.0378,-2.0378,-2.0475,-2.0669,-2.0669,0.0,0.0,0.0,0.0,0.0,-2.0669,-2.0669,-2.0669,-2.0669,-2.0669,-2.0637,-2.0443,-2.0378,-2.0346,0.0,0.0,0.0,0.0,0.0,0.0,0.0,0.0,0.0,0.0,0.4624,0.4512,0.4252,0.4217,0.4133,0.0,0.0,0.0,0.0,0.0,0.0,0.0,0.0,0.0,0.1186,0.0822,0.0487,0.0151,-0.0118,-0.0319,-0.042,-0.0756,-0.0925,-0.0925,-0.1278,-0.1646,-0.2033,-0.2444,0.0,0.0,0.0,0.0,0.0,0.0,0.0,0.0,-0.6927,-0.7306,0.0,0.0,0.0,0.0,0.0,0.0,0.0,0.0,-1.0244,-1.0536,-1.1001,0.0,-1.2301,-1.2887,-1.2751,-1.2525,0.0,-1.2684,-1.2564,-1.2594,-1.3395,-1.4137,-1.4255,-1.486,-1.5474,-1.5858,-1.6403,-1.6898,-1.7166,0.0,0.0,0.0,0.0,0.0,0.0,0.0,0.0,0.0,0.0,0.0,0.0,0.0,0.0,-2.0118,-2.0118,-2.0118,-2.0118,-2.0118,-2.0107,-2.0183,-2.0183,-2.0216,-2.0248,-2.0248,0.0,0.0,0.0,0.0,-2.0248,-2.0248,-2.0248,-2.0248,-2.0248,-2.0248,-2.0248,-2.0183,-2.0183,-2.0151,0.0,0.0,0.0,0.0,0.0,0.0,0.0,0.0,0.0,0.0,0.0,0.0,0.0,0.0,0.0,0.0,0.0,0.0,0.0,0.0,0.0,0.0,0.0,0.1876,0.1588,0.1192,0.0824,0.0487,0.0219,0.0,-0.0168,-0.0437,-0.0605,-0.0672,-0.1076,-0.1462,-0.1828,-0.2128,-0.2555,-0.3061,-0.3389,0.0,0.0,0.0,0.0,0.0,-0.6354,-0.6679,0.0,-0.7126,-0.748,-0.7932,0.0,0.0,0.0,0.0,-0.9951,-1.0205,-1.0419,-1.0929,-1.1549,-1.2023,-1.1933,-1.1852,-1.2304,-1.2388,-1.2454,-1.2756,-1.3498,-1.4123,-1.42,-1.4903,-1.5567,-1.5866,-1.6571,-1.7309,0.0,0.0,0.0,0.0,0.0,0.0,0.0,0.0,0.0,0.0,0.0,0.0,0.0,0.0,0.0,0.0,-2.0118,-2.0118,-2.0118,-2.0118,-2.0118,-2.0118,-2.0118,-2.0118,-2.0118,-2.0118,0.0,0.0,0.0,0.0,-2.0118,-2.0118,-2.0118,-2.0118,-2.0118,-2.0118,-2.0118,-2.0118,-2.0118,-2.0118,0.0,0.0,0.0,0.0,0.0,0.0,0.0,0.0,0.0,0.0,0.0,0.0,0.0,0.0,0.0,0.0,0.0,0.0,0.0,0.0,0.0,0.0,0.2646,0.2301,0.1976,0.1496,0.111,0.0773,0.0492,0.0272,0.0085,-0.0119,-0.0305,-0.0487,-0.0925,-0.1278,-0.1542,-0.1878,-0.2247,-0.263,-0.2977,0.0,0.0,0.0,0.0,0.0,0.0,0.0,0.0,-0.6582,-0.6853,-0.7167,-0.7848,0.0,0.0,0.0,0.0,0.0,-1.0147,-1.0505,-1.085,-1.1021,-1.117,-1.1425,-1.2014,-1.226,-1.2529,-1.311,-1.3672,-1.4072,-1.415,-1.4992,-1.5718,-1.5866,-1.676,0.0,0.0,0.0,0.0,0.0,0.0,0.0,0.0,0.0,0.0,0.0,0.0,0.0,0.0,0.0,0.0,-2.0118,-2.0118,-2.0118,-2.0118,-2.0118,-2.0118,-2.0118,-2.0118,-2.0085,-2.0085,-2.0085,0.0,0.0,0.0,0.0,-2.0194,-2.0227,-2.0271,-2.0336,-2.0336,-2.0336,-2.0336,-2.0336,-2.0336,-2.0325,0.0,0.0,0.0,0.0,0.0,0.0,0.0,0.0,0.0,0.0,0.0,0.0,0.0,0.0,0.0,0.0,0.0,0.0,0.0,0.0,0.0,0.3751,0.3095,0.2575,0.2253,0.1776,0.141,0.1128,0.0793,0.0594,0.0504,0.0252,-0.0035,-0.0336,-0.0639,-0.0924,-0.1194,-0.1525,-0.1878,-0.2234,-0.2613,0.0,0.0,0.0,0.0,0.0,0.0,0.0,0.0,-0.5632,-0.5989,-0.6537,-0.716,0.0,0.0,0.0,0.0,0.0,-0.9744,-1.0098,-1.0486,-1.084,-1.1236,-1.1609,-1.1871,-1.2552,-1.316,-1.3246,-1.3846,-1.4465,-1.4858,-1.5261,-1.58,-1.658,0.0,0.0,0.0,0.0,0.0,0.0,0.0,0.0,0.0,0.0,0.0,0.0,0.0,0.0,0.0,0.0,0.0,-2.0118,-2.0118,-2.0118,-2.0118,-2.0118,-2.0118,-2.0118,-2.0118,-2.0042,-1.9933,-1.9933,-1.9846,0.0,0.0,-2.0171,-2.0549,-2.0718,-2.1025,-2.1374,-2.1374,-2.1374,-2.1374,-2.1374,-2.1374,-2.1308,0.0,0.0,0.0,0.0,0.0,0.0,0.0,0.0,0.0,0.0,0.0,0.0,0.0,0.0,0.0,0.0,0.0,0.0,0.0,0.0,0.4502,0.4025,0.354,0.3039,0.2524,0.2028,0.1652,0.1422,0.1117,0.0925,0.0816,0.0462,0.0234,0.007,-0.0323,-0.0588,-0.0808,-0.1176,-0.1527,-0.1861,0.0,0.0,0.0,0.0,0.0,0.0,0.0,0.0,0.0,0.0,-0.5588,-0.6136,-0.6787,0.0,0.0,0.0,0.0,0.0,-0.9614,-0.999,-1.0393,-1.0795,-1.1136,-1.1573,-1.2245,-1.2747,-1.3191,-1.3489,-1.411,-1.465,-1.4939,-1.557,-1.6321,-1.7176,0.0,0.0,0.0,0.0,0.0,0.0,0.0,0.0,0.0,0.0,0.0,0.0,0.0,0.0,0.0,0.0,0.0,0.0,-2.0118,-2.0085,-2.0009,-2.0009,-2.0009,-2.0009,-2.0009,-1.9911,-1.9747,-2.0004,-2.0066,-2.0009,0.0,-2.067,-2.0978,-2.1081,-2.1315,-2.1592,-2.1592,-2.1592,-2.1592,-2.1592,-2.1592,-2.1559,0.0,0.0,0.0,0.0,0.0,0.0,0.0,0.0,0.0,0.0,0.0,0.0,0.0,0.0,0.0,0.0,0.0,0.0,0.0,0.5068,0.4759,0.4289,0.3934,0.3438,0.2759,0.2261,0.1911,0.1689,0.1437,0.1219,0.1036,0.0703,0.0498,0.0436,0.0017,-0.0252,-0.0437,-0.0808,-0.1159,-0.1509,0.0,0.0,0.0,0.0,0.0,0.0,0.0,0.0,0.0,0.0,0.0,0.0,0.0,0.0,0.0,-0.8456,-0.8814,-0.9065,-0.9495,-0.9947,-1.0393,-1.0836,-1.1194,-1.1674,-1.2546,-1.2943,-1.3258,-1.3762,-1.4356,-1.4838,-1.5085,-1.5953,0.0,-1.7606,0.0,0.0,0.0,0.0,0.0,0.0,0.0,0.0,0.0,0.0,0.0,0.0,0.0,0.0,0.0,0.0,0.0,0.0,-2.0042,-1.9976,-1.9835,-1.9835,-1.9835,-1.9835,-1.9835,-1.9768,-1.9719,-2.009,-2.0268,-2.036,-2.0755,-2.1083,-2.1321,-2.1428,-2.1609,-2.1849,-2.192,-2.192,-2.192,-2.192,-2.192,-2.1909,0.0,0.0,0.0,0.0,0.0,0.0,0.0,0.0,0.0,0.0,0.0,0.0,0.0,0.0,0.0,0.0,0.0,0.0,0.0,0.5523,0.5244,0.4766,0.4194,0.3577,0.29,0.254,0.2236,0.1965,0.1772,0.1497,0.1189,0.1039,0.082,0.0582,0.0362,0.0118,-0.0151,-0.042,-0.0773,-0.116,-0.1494,0.0,0.0,0.0,0.0,0.0,0.0,0.0,0.0,0.0,0.0,0.0,0.0,0.0,-0.7554,-0.8294,-0.87,-0.8972,-0.9248,-0.9806,-1.0425,-1.0948,-1.1612,-1.2204,-1.2549,-1.3238,-1.3882,-1.4042,-1.4573,-1.5148,-1.5726,-1.6447,-1.7147,0.0,0.0,0.0,0.0,0.0,0.0,0.0,0.0,0.0,0.0,0.0,0.0,0.0,0.0,0.0,0.0,0.0,0.0,0.0,0.0,-1.9835,-1.9605,-1.9605,-1.9605,-1.9605,-1.9605,-1.9739,-1.9968,-1.9999,-2.017,-2.0415,-2.0623,-2.0993,-2.1429,-2.1792,-2.2196,-2.2643,-2.2829,-2.2903,-2.2903,-2.2903,-2.2903,-2.2837,0.0,0.0,0.0,0.0,0.0,0.0,0.0,0.0,0.0,0.0,0.0,0.0,0.0,0.0,0.0,0.0,0.0,0.0,0.0,0.5861,0.5435,0.488,0.4361,0.3837,0.3282,0.2702,0.2376,0.2303,0.2101,0.1853,0.1572,0.1361,0.1165,0.1029,0.0735,0.0454,0.0202,-0.0067,-0.0403,-0.0756,-0.1142,-0.1494,0.0,0.0,0.0,0.0,0.0,0.0,0.0,0.0,-0.4998,-0.5621,-0.6333,-0.6983,-0.7577,-0.8141,-0.8529,-0.8904,-0.9456,-0.9997,-1.0596,-1.131,-1.2058,-1.2721,-1.2978,-1.3431,-1.3875,-1.415,-1.4773,-1.5547,-1.6573,0.0,-1.7665,0.0,0.0,0.0,0.0,0.0,0.0,0.0,0.0,0.0,0.0,0.0,0.0,0.0,0.0,0.0,0.0,0.0,0.0,0.0,0.0,-1.9605,-1.9417,-1.9407,-1.9374,-1.9274,-1.9679,-1.9876,-1.9882,-2.0454,-2.0736,-2.0876,-2.1229,-2.1569,-2.1876,-2.2126,-2.2429,-2.2703,-2.2927,-2.3001,-2.3001,-2.3001,-2.3001,-2.2968,0.0,0.0,0.0,0.0,0.0,0.0,0.0,0.0,0.0,0.0,0.0,0.0,0.0,0.0,0.0,0.0,0.0,0.0,0.6452,0.6044,0.5538,0.4953,0.4468,0.3983,0.3548,0.2887,0.2535,0.2503,0.2312,0.2109,0.1888,0.1668,0.1477,0.1319,0.1016,0.0756,0.0504,0.0235,-0.005,-0.037,-0.0756,-0.1125,0.0,0.0,0.0,0.0,0.0,0.0,0.0,0.0,-0.4855,-0.552,-0.6226,-0.6909,-0.7551,-0.7995,-0.8378,-0.8799,-0.9524,-1.011,-1.0691,-1.1559,-1.2351,-1.3023,-1.3453,-1.3775,-1.41,-1.4449,-1.524,-1.6151,-1.7168,-1.7673,0.0,0.0,0.0,0.0,0.0,0.0,0.0,0.0,0.0,0.0,0.0,0.0,0.0,0.0,0.0,0.0,0.0,0.0,0.0,0.0,0.0,0.0,-1.9241,-1.9175,-1.9108,-1.9008,-1.9517,-1.9806,-1.9926,-2.0509,-2.0952,-2.124,-2.1635,-2.1883,-2.2025,-2.2214,-2.2478,-2.2703,-2.2927,-2.3001,-2.3001,-2.3001,-2.3001,-2.3001,0.0,0.0,0.0,0.0,0.0,0.0,0.0,0.0,0.0,0.0,0.0,0.0,0.0,0.0,0.0,0.0,0.0,0.0,0.6521,0.606,0.5561,0.5023,0.4484,0.4016,0.3618,0.3134,0.2761,0.2501,0.2362,0.2243,0.2099,0.1963,0.1717,0.1394,0.1188,0.0992,0.0791,0.0521,0.0252,-0.0034,-0.0353,-0.0739,-0.1127,0.0,0.0,0.0,0.0,0.0,0.0,0.0,-0.4536,-0.5299,-0.5918,-0.6698,-0.7475,-0.7876,-0.8247,-0.8663,-0.9406,-1.0053,-1.0739,-1.1679,-1.2404,-1.312,-1.3923,-1.4364,-1.4673,-1.4972,-1.5973,-1.694,-1.7431,-1.7904,0.0,0.0,0.0,0.0,0.0,0.0,0.0,0.0,0.0,0.0,0.0,0.0,0.0,0.0,0.0,0.0,0.0,0.0,0.0,0.0,0.0,0.0,-1.9108,-1.8908,-1.8808,-1.8818,-1.9071,-1.9505,-2.0109,-2.0165,-2.0665,-2.1502,-2.1693,-2.1807,-2.1807,-2.2035,-2.2327,-2.2703,-2.2927,-2.3001,-2.3001,-2.3001,-2.3001,-2.3001,0.0,0.0,0.0,0.0,0.0,0.0,0.0,0.0,0.0,0.0,0.0,0.0,0.0,0.0,0.0,0.0,0.0,0.0,0.6589,0.6176,0.5718,0.523,0.4746,0.4274,0.3826,0.3171,0.2669,0.2366,0.2424,0.2317,0.2103,0.2019,0.1901,0.1741,0.1547,0.131,0.106,0.0841,0.0571,0.0252,-0.0034,-0.0353,-0.0723,0.0,0.0,0.0,0.0,0.0,0.0,0.0,0.0,0.0,-0.5935,-0.6634,-0.7217,-0.7759,-0.8393,-0.9055,-0.9703,-1.0395,-1.1158,-1.2085,-1.2748,-1.3331,-1.396,-1.4364,-1.4838,-1.5742,-1.6537,-1.7255,-1.7827,-1.8343,0.0,0.0,0.0,0.0,0.0,0.0,0.0,0.0,0.0,0.0,0.0,0.0,0.0,0.0,0.0,0.0,0.0,0.0,0.0,0.0,0.0,0.0,-1.8875,-1.8674,-1.8583,-1.8583,-1.8578,-1.9073,-1.997,-2.0329,-2.0784,-2.132,-2.1502,-2.1578,-2.1617,-2.1949,-2.2327,-2.2703,-2.2777,-2.2889,-2.3001,-2.3001,-2.3001,-2.3001,0.0,0.0,0.0,0.0,0.0,0.0,0.0,0.0,0.0,0.0,0.8072,0.7976,0.0,0.0,0.0,0.0,0.0,0.0,0.0,0.6245,0.5819,0.5325,0.4896,0.4377,0.3761,0.3204,0.2777,0.2452,0.2486,0.2411,0.2263,0.2142,0.2034,0.1936,0.1735,0.1542,0.1343,0.111,0.0858,0.0571,0.0286,-0.0034,-0.0336,0.0,0.0,0.0,0.0,0.0,0.0,0.0,0.0,0.0,-0.5722,-0.6407,-0.6922,-0.7517,-0.828,-0.9035,-0.9705,-1.0405,-1.1235,-1.2359,-1.2941,-1.3479,-1.4465,-1.4887,-1.539,-1.6509,-1.7145,-1.7646,-1.8155,-1.8759,0.0,0.0,0.0,0.0,0.0,0.0,0.0,0.0,0.0,0.0,0.0,0.0,0.0,0.0,0.0,0.0,0.0,0.0,0.0,0.0,0.0,0.0,-1.8674,-1.8516,-1.8414,-1.8414,-1.8269,-1.8612,-1.9421,-1.9969,-2.0409,-2.0819,-2.1316,-2.1502,-2.154,-2.1911,-2.2252,-2.2478,-2.2628,-2.2777,-2.2889,-2.2964,-2.3001,-2.3001,0.0,0.0,0.0,0.0,0.0,0.0,0.0,0.0,0.0,0.0,0.7976,0.7869,0.0,0.0,0.0,0.0,0.0,0.0,0.0,0.6298,0.5867,0.5356,0.495,0.4366,0.3532,0.3237,0.2973,0.2712,0.2568,0.2484,0.2487,0.2275,0.2131,0.1997,0.1811,0.1676,0.1592,0.1345,0.111,0.0892,0.0571,0.0269,-0.0017,-0.0336,0.0,0.0,0.0,0.0,0.0,0.0,0.0,0.0,-0.5334,-0.6034,-0.6583,-0.7202,-0.7975,-0.8787,-0.9509,-1.022,-1.111,-1.2538,-1.3076,-1.3652,-1.5277,-1.5735,-1.6119,-1.7174,-1.7687,-1.8079,-1.8435,0.0,0.0,0.0,0.0,0.0,0.0,0.0,0.0,0.0,0.0,0.0,0.0,0.0,0.0,0.0,0.0,0.0,0.0,0.0,0.0,0.0,0.0,0.0,-1.8482,-1.8337,-1.8269,0.0,-1.8076,-1.8178,-1.8559,-1.9203,-1.9766,-2.027,-2.107,-2.1474,-2.154,-2.1883,-2.2063,-2.2149,-2.2515,-2.2665,-2.2703,-2.2927,-2.2964,-2.3001,0.0,0.0,0.0,0.0,0.0,0.0,0.0,0.0,0.0,0.0,0.0,0.0,0.0,0.0,0.0,0.0,0.0,0.0,0.0,0.6337,0.596,0.5632,0.4788,0.4118,0.3672,0.329,0.3023,0.2854,0.2569,0.2389,0.2344,0.2188,0.2107,0.2083,0.1981,0.1845,0.1676,0.1559,0.1343,0.1043,0.0808,0.0521,0.0202,-0.0084,-0.0437,0.0,0.0,0.0,0.0,0.0,0.0,0.0,-0.5045,-0.5717,-0.6252,-0.7014,-0.8034,-0.9036,-0.9551,-1.0419,-1.1455,-1.2608,-1.3546,-1.4517,-1.566,-1.6015,-1.637,-1.72,-1.7903,-1.8395,0.0,0.0,0.0,0.0,0.0,0.0,0.0,0.0,0.0,0.0,0.0,0.0,0.0,0.0,0.0,0.0,0.0,0.0,0.0,0.0,0.0,0.0,0.0,-1.8371,-1.8337,-1.8178,-1.8076,0.0,-1.8008,-1.8057,-1.812,-1.8619,-1.9324,-2.0232,-2.0775,-2.1205,-2.1512,-2.1578,-2.1807,-2.2101,-2.2187,-2.2402,-2.2703,-2.274,-2.2852,-2.3001,0.0,0.0,0.0,0.0,0.0,0.0,0.0,0.0,0.0,0.0,0.0,0.0,0.0,0.0,0.0,0.0,0.0,0.0,0.0,0.0,0.5967,0.5437,0.4734,0.4178,0.3798,0.3405,0.3105,0.29,0.2557,0.2377,0.2347,0.2181,0.21,0.21,0.2064,0.1947,0.1795,0.1692,0.1477,0.1179,0.1009,0.0756,0.0471,0.0202,-0.0151,-0.0555,-0.0841,0.0,0.0,0.0,0.0,0.0,0.0,0.0,-0.5986,-0.6662,-0.7731,-0.881,-0.9275,-1.0189,-1.1328,-1.2572,-1.3643,-1.4696,-1.5755,-1.6115,-1.6468,-1.7373,-1.8044,0.0,0.0,0.0,0.0,0.0,0.0,0.0,0.0,0.0,0.0,0.0,0.0,0.0,0.0,0.0,0.0,0.0,0.0,0.0,0.0,0.0,0.0,0.0,-1.8405,-1.8236,-1.8178,-1.8042,-1.8008,-1.8008,-1.8008,-1.8008,-1.8027,-1.8412,-1.903,-1.9777,-2.0343,-2.0683,-2.0921,-2.1334,-2.1617,-2.1845,-2.2025,-2.2214,-2.244,-2.2515,-2.2628,-2.274,0.0,0.0,0.0,0.0,0.0,0.0,0.0,0.0,0.0,0.0,0.0,0.0,0.0,0.0,0.0,0.0,0.0,0.0,0.0,0.0,0.0,0.5169,0.4734,0.4317,0.3907,0.3504,0.3159,0.2887,0.2557,0.2374,0.2341,0.2181,0.2094,0.2095,0.2095,0.2038,0.1916,0.1795,0.1598,0.1317,0.1207,0.0963,0.0666,0.0431,0.0086,-0.0294,-0.0623,-0.0952,-0.1371,-0.2135,0.0,0.0,0.0,0.0,-0.5696,-0.6243,-0.7314,-0.8443,-0.8958,-1.0017,-1.128,-1.2553,-1.3595,-1.4596,-1.5683,-1.6051,-1.6461,-1.7465,0.0,0.0,0.0,0.0,0.0,0.0,0.0,0.0,0.0,0.0,0.0,0.0,0.0,0.0,0.0,0.0,0.0,0.0,0.0,0.0,0.0,0.0,-1.8684,-1.8516,-1.8347,-1.8178,-1.8008,-1.8008,-1.8008,-1.8008,-1.7974,-1.794,-1.7949,-1.829,-1.8724,-1.9199,-1.9794,-2.0096,-2.027,-2.0999,-2.1354,-2.154,-2.1883,-2.2025,-2.2101,-2.2289,-2.2365,-2.244,0.0,0.0,0.0,0.0,0.0,0.0,0.0,0.0,0.0,0.0,0.771,0.771,0.0,0.0,0.0,0.0,0.0,0.0,0.6885,0.0,0.0,0.5293,0.4826,0.4371,0.3907,0.3504,0.3146,0.2815,0.2543,0.2311,0.2131,0.2117,0.2102,0.2108,0.2108,0.205,0.198,0.196,0.1765,0.147,0.1398,0.1087,0.0689,0.0531,0.025,-0.0077,-0.0347,-0.0712,-0.1127,-0.176,-0.2413,0.0,0.0,0.0,-0.5226,-0.5867,-0.701,-0.8193,-0.885,-1.0562,-1.2269,-1.2629,-1.3529,-1.4535,-1.5515,-1.5891,-1.6295,0.0,0.0,0.0,0.0,0.0,0.0,0.0,0.0,0.0,0.0,0.0,0.0,0.0,0.0,0.0,0.0,0.0,0.0,0.0,0.0,0.0,0.0,-1.8741,-1.8516,-1.8516,-1.8212,-1.8042,-1.8008,-1.8008,-1.8008,-1.8008,-1.7818,-1.775,-1.775,-1.7808,-1.8128,-1.8715,-1.9216,-1.9718,-2.0212,-2.0347,-2.0833,-2.1512,-2.154,-2.1807,-2.2101,-2.2138,-2.2252,-2.2402,0.0,0.0,0.0,0.0,0.0,0.0,0.0,0.0,0.0,0.0,0.0,0.7593,0.0,0.0,0.0,0.744,0.7175,0.6897,0.6634,0.6129,0.5695,0.5365,0.4944,0.4479,0.3972,0.3597,0.3208,0.2799,0.25,0.2301,0.2198,0.2021,0.1975,0.204,0.2081,0.2056,0.1999,0.1921,0.1763,0.1543,0.1439,0.1162,0.0801,0.0702,0.0432,0.0079,-0.0236,-0.0609,-0.1029,-0.1594,-0.2182,-0.281,-0.3499,0.0,0.0,0.0,-0.6599,-0.7712,-0.8981,-1.0523,-1.1869,-1.2401,-1.318,-1.4064,-1.5019,-1.5638,-1.6197,0.0,0.0,0.0,0.0,0.0,0.0,0.0,0.0,0.0,0.0,0.0,0.0,0.0,0.0,0.0,0.0,0.0,0.0,0.0,0.0,0.0,-1.9108,-1.8707,-1.8516,-1.8516,-1.8178,-1.8008,-1.8008,-1.8008,-1.794,-1.7828,-1.7657,-1.7588,-1.7588,-1.7588,-1.7831,-1.8276,-1.874,-1.9059,-1.9337,-1.9967,-2.0434,-2.0795,-2.1181,-2.1502,-2.1769,-2.1769,-2.1883,-2.2063,0.0,0.0,0.0,0.0,0.0,0.0,0.0,0.0,0.0,0.0,0.0,0.0,0.0,0.0,0.0,0.0,0.7125,0.6807,0.6428,0.6037,0.5695,0.5421,0.5023,0.4549,0.401,0.3679,0.3253,0.2782,0.2453,0.225,0.2167,0.1917,0.1848,0.1932,0.1984,0.1989,0.195,0.1848,0.1714,0.1557,0.1439,0.1214,0.0902,0.0771,0.0529,0.0203,-0.0183,-0.055,0.0,0.0,0.0,0.0,-0.3221,-0.3913,0.0,0.0,0.0,-0.758,-0.9096,-1.03,-1.1337,-1.2166,-1.2841,-1.3591,-1.4664,0.0,0.0,0.0,0.0,0.0,0.0,0.0,0.0,0.0,0.0,0.0,0.0,0.0,0.0,0.0,0.0,0.0,0.0,0.0,0.0,0.0,0.0,0.0,-1.9108,-1.8707,-1.8516,-1.8516,-1.8178,-1.8008,-1.8008,-1.794,-1.7828,-1.7647,-1.7495,-1.7426,-1.7426,-1.7426,-1.7598,-1.7891,-1.8236,-1.8465,-1.8656,-1.958,-2.0066,-2.0252,-2.0871,-2.1244,-2.1436,-2.1436,-2.1512,-2.1655,0.0,0.0,0.0,0.0,0.0,0.0,0.0,0.0,0.0,0.0,0.0,0.0,0.7505,0.7324,0.7211,0.7211,0.7026,0.6755,0.6428,0.6091,0.5743,0.5414,0.5023,0.0,0.401,0.3679,0.3237,0.2696,0.2437,0.2144,0.182,0.1814,0.178,0.171,0.1778,0.1821,0.1804,0.1804,0.1696,0.149,0.1424,0.1239,0.097,0.0638,0.0469,0.0313,-0.0201,0.0,0.0,0.0,0.0,0.0,0.0,0.0,-0.4242,0.0,0.0,0.0,-0.9002,-1.0097,-1.1204,-1.2019,-1.2632,-1.3345,0.0,0.0,0.0,0.0,0.0,0.0,0.0,0.0,0.0,0.0,0.0,0.0,0.0,0.0,0.0,0.0,0.0,0.0,0.0,0.0,0.0,0.0,0.0,0.0,-1.9108,-1.8707,-1.8516,-1.8516,-1.8178,-1.8008,-1.8008,-1.7818,-1.7647,-1.7505,-1.7314,-1.7235,-1.7235,-1.7235,-1.7314,-1.7539,-1.7676,-1.8079,-1.8637,-1.9131,-1.9698,-2.0252,-2.0728,-2.1022,-2.1205,-2.1205,-2.1205,-2.1244,0.0,0.0,0.0,0.0,0.0,0.0,0.0,0.0,0.0,0.0,0.0,0.0,0.0,0.7107,0.7047,0.7011,0.674,0.6513,0.6353,0.5982,0.5639,0.5349,0.4912,0.4441,0.394,0.3569,0.3142,0.2696,0.2436,0.2164,0.1931,0.1705,0.1574,0.151,0.1621,0.1679,0.1658,0.1524,0.1443,0.1358,0.1246,0.1044,0.0793,0.067,0.0472,0.0,0.0,0.0,0.0,0.0,0.0,0.0,0.0,0.0,0.0,-0.5123,-0.6364,-0.7557,-0.845,-0.9382,-1.0344,-1.1296,-1.21,-1.2817,-1.3647,-1.4262,0.0,0.0,0.0,0.0,0.0,0.0,0.0,0.0,0.0,0.0,0.0,0.0,0.0,0.0,0.0,0.0,0.0,0.0,0.0,0.0,0.0,0.0,-1.9108,-1.8707,-1.8516,-1.8516,-1.8178,-1.8008,-1.8008,-1.7735,-1.7564,-1.7505,-1.7185,-1.7003,-1.7003,-1.7003,-1.7107,-1.7314,-1.7373,-1.7561,-1.7944,-1.8752,-1.9238,-1.9506,-2.0379,-2.0819,-2.1022,-2.1022,-2.1089,-2.1205,0.0,0.0,0.0,0.0,0.0,0.0,0.0,0.0,0.7129,0.7129,0.0,0.0,0.0,0.0,0.718,0.7077,0.6737,0.6474,0.634,0.5893,0.5505,0.5214,0.4794,0.4355,0.3907,0.3487,0.306,0.263,0.234,0.2095,0.1884,0.1581,0.1419,0.1366,0.1323,0.1345,0.1411,0.1232,0.1164,0.1141,0.0963,0.0792,0.0619,0.0551,0.0,0.0,0.0,0.0,0.0,0.0,0.0,0.0,0.0,0.0,0.0,0.0,-0.6212,-0.7102,-0.7946,-0.8848,-0.9759,-1.0721,-1.1506,-1.2263,-1.2975,0.0,0.0,0.0,0.0,0.0,0.0,0.0,0.0,0.0,0.0,0.0,0.0,0.0,0.0,0.0,0.0,0.0,0.0,0.0,0.0,0.0,0.0,0.0,-1.8998,-1.8674,-1.8448,-1.8347,-1.811,-1.7974,-1.7896,-1.7632,-1.747,-1.7392,-1.7047,-1.6908,-1.6908,-1.6908,-1.6968,-1.7107,-1.7107,-1.7245,-1.7571,-1.8505,-1.8885,-1.9008,-1.9995,-2.0459,-2.0547,-2.0547,-2.0664,-2.077,0.0,0.0,0.0,0.0,0.0,0.0,0.0,0.0,0.7395,0.7395,0.0,0.0,0.0,0.0,0.0,0.7406,0.7032,0.6682,0.6415,0.5848,0.5361,0.502,0.4672,0.4312,0.3907,0.3434,0.2961,0.25,0.2167,0.189,0.1691,0.142,0.129,0.1254,0.0876,0.0831,0.1054,0.0942,0.0875,0.0852,0.0585,0.0485,0.0453,0.0,0.0,0.0,-0.0328,-0.0655,0.0,-0.1087,0.0,0.0,0.0,0.0,0.0,0.0,-0.5985,-0.6904,0.0,0.0,0.0,-1.0283,-1.0934,0.0,-1.2717,0.0,0.0,0.0,0.0,0.0,0.0,0.0,0.0,0.0,0.0,0.0,0.0,0.0,0.0,0.0,0.0,0.0,0.0,0.0,0.0,0.0,0.0,-1.9008,-1.8808,-1.8617,-1.8347,-1.8008,-1.8008,-1.7896,-1.7706,-1.7564,-1.7392,-1.7201,-1.7012,-1.6908,-1.6908,-1.6908,-1.6908,-1.6908,-1.6908,-1.7116,-1.7527,-1.8332,-1.8673,-1.8767,-1.9562,-1.9893,-1.9902,-1.9902,-1.9902,-1.9942,0.0,0.0,0.0,0.0,0.0,0.7342,0.7602,0.7517,0.7401,0.0,0.0,0.0,0.737,0.7316,0.7201,0.7047,0.6855,0.6642,0.6421,0.6023,0.555,0.5018,0.4672,0.4223,0.363,0.32,0.2828,0.2501,0.2211,0.191,0.1629,0.1402,0.1153,0.0853,0.0652,0.048,0.0375,0.0493,0.054,0.0518,0.029,0.0172,0.0,0.0,0.0,0.0,0.0,-0.0832,-0.0957,0.0,-0.1565,-0.1999,0.0,0.0,0.0,0.0,0.0,-0.6254,-0.7112,0.0,0.0,0.0,0.0,0.0,0.0,0.0,0.0,0.0,0.0,0.0,0.0,0.0,0.0,0.0,0.0,0.0,0.0,0.0,0.0,0.0,0.0,0.0,0.0,0.0,0.0,0.0,-1.8684,-1.865,-1.8583,-1.8448,-1.8245,-1.8008,-1.8008,-1.7896,-1.7706,-1.7564,-1.7392,-1.7201,-1.7012,-1.6908,-1.6908,-1.6908,-1.6908,-1.6908,-1.6908,-1.6978,-1.7128,-1.7789,-1.8209,-1.8564,-1.9212,-1.9647,-1.9902,-1.9902,-1.9902,-1.9902,0.0,0.0,0.0,0.0,0.0,0.7517,0.7666,0.7553,0.7446,0.0,0.0,0.0,0.7418,0.7372,0.7295,0.7122,0.6903,0.6654,0.6371,0.5995,0.5541,0.5024,0.4699,0.4272,0.3726,0.323,0.2831,0.2509,0.2148,0.1801,0.1471,0.1251,0.0987,0.0697,0.0412,0.021,0.0048,-0.0025,0.0,0.0,-0.005,0.0,0.0,-0.0413,-0.0573,0.0,0.0,0.0,-0.1238,-0.1453,-0.1789,0.0,0.0,0.0,0.0,0.0,0.0,-0.5971,-0.6777,-0.7569,-0.8368,-0.9059,0.0,0.0,-1.1121,-1.1691,0.0,0.0,0.0,0.0,0.0,0.0,0.0,0.0,0.0,0.0,0.0,0.0,0.0,0.0,0.0,0.0,0.0,0.0,0.0,0.0,-1.8516,-1.8482,-1.8414,-1.8269,-1.811,-1.8008,-1.794,-1.7794,-1.7623,-1.7461,-1.7279,-1.7063,-1.6968,-1.6908,-1.6908,-1.6908,-1.6908,-1.6908,-1.6908,-1.6908,-1.6927,-1.7271,-1.7749,-1.8341,-1.8863,-1.9311,-1.9666,-1.9666,-1.9666,-1.9666,0.0,0.0,0.7841,0.7549,0.7601,0.7631,0.7482,0.7479,0.7484,0.0,0.7556,0.7628,0.7628,0.7628,0.7545,0.7328,0.7058,0.672,0.6321,0.5873,0.5429,0.502,0.4734,0.4375,0.3942,0.3371,0.2878,0.2481,0.2017,0.16,0.1268,0.1011,0.0784,0.0608,0.0188,-0.0048,-0.0121,-0.0544,0.0,-0.0434,-0.0459,-0.0572,0.0,0.0,-0.0961,-0.1185,-0.1218,-0.1418,-0.1694,-0.1801,-0.2183,0.0,0.0,0.0,0.0,0.0,-0.5465,-0.5934,-0.6498,-0.7219,-0.7947,0.0,0.0,0.0,-1.0656,-1.1003,0.0,0.0,0.0,0.0,0.0,0.0,0.0,0.0,0.0,0.0,0.0,0.0,0.0,0.0,0.0,0.0,0.0,0.0,-1.8251,-1.8311,-1.8351,-1.8347,-1.8202,-1.8042,-1.794,-1.794,-1.775,-1.7613,-1.747,-1.7279,-1.7107,-1.6908,-1.6908,-1.6908,-1.6908,-1.6908,-1.6908,-1.6908,-1.6908,-1.6908,-1.6908,-1.6874,-1.7349,-1.8081,-1.8466,-1.8878,-1.9222,-1.9222,-1.9262,-1.9301,0.0,0.8255,0.8053,0.804,0.7803,0.766,0.7779,0.7593,0.7369,0.7273,0.7189,0.7133,0.7133,0.7133,0.7048,0.6859,0.6779,0.6579,0.6235,0.5929,0.5541,0.5029,0.4647,0.4154,0.3536,0.3088,0.2688,0.2337,0.188,0.1475,0.1127,0.0872,0.0517,0.0135,0.0047,-0.0267,-0.0726,-0.081,0.0,-0.1321,-0.1072,0.0,-0.1059,-0.1372,-0.1535,-0.1637,-0.195,-0.212,-0.2202,0.0,-0.2767,-0.3056,0.0,0.0,0.0,0.0,0.0,0.0,0.0,0.0,0.0,0.0,0.0,0.0,-0.9642,-1.0332,-1.0933,0.0,0.0,0.0,0.0,0.0,0.0,0.0,0.0,0.0,0.0,0.0,0.0,0.0,0.0,0.0,0.0,0.0,-1.6818,-1.7182,-1.7518,-1.7676,-1.7676,-1.7608,-1.7608,-1.7608,-1.7564,-1.7461,-1.7279,-1.7235,-1.7107,-1.6908,-1.6908,-1.6908,-1.6908,-1.6908,-1.6908,-1.6908,-1.6908,-1.6908,-1.6908,-1.6716,-1.7117,-1.7886,-1.793,-1.8332,-1.8812,-1.8812,-1.8922,-1.9073,0.8572,0.8388,0.82,0.803,0.7807,0.7615,0.7564,0.7259,0.7006,0.6865,0.686,0.6906,0.7045,0.7058,0.6968,0.6713,0.669,0.6502,0.6035,0.5819,0.5471,0.493,0.4608,0.4164,0.3554,0.3116,0.271,0.2294,0.1821,0.1403,0.0985,0.0696,0.0364,-0.0023,-0.0314,-0.0626,-0.091,-0.1212,-0.1505,-0.1723,-0.1494,0.0,-0.1672,-0.1905,-0.2047,-0.2141,-0.2451,-0.2649,-0.2822,-0.2913,-0.3169,0.0,0.0,-0.4171,-0.4655,0.0,-0.5376,-0.5769,0.0,0.0,0.0,-0.7495,0.0,0.0,0.0,-0.9768,-1.0253,0.0,0.0,0.0,0.0,0.0,0.0,0.0,0.0,0.0,0.0,0.0,0.0,0.0,0.0,0.0,0.0,0.0,-1.6287,-1.6537,-1.6954,-1.7201,-1.7201,-1.7391,-1.7505,-1.7505,-1.7392,-1.7314,-1.7201,-1.7107,-1.7003,-1.6908,-1.6908,-1.6908,-1.6908,-1.6908,-1.6908,-1.6908,-1.6908,-1.683,-1.6769,-1.6864,-1.7153,-1.7503,-1.7625,-1.8077,-1.87,-1.87,-1.8772,-1.8851,0.8621,0.8468,0.8262,0.7858,0.7671,0.7454,0.7098,0.6806,0.6591,0.6478,0.6558,0.6701,0.693,0.6954,0.6858,0.6605,0.6562,0.6341,0.5808,0.5624,0.5338,0.4835,0.4568,0.4195,0.3657,0.3157,0.2679,0.2215,0.1768,0.1299,0.0806,0.0498,0.0185,-0.0143,-0.0675,-0.0958,-0.1095,-0.1643,0.0,-0.2088,0.0,-0.2147,-0.2322,-0.2458,-0.2582,-0.2708,-0.2906,-0.3181,-0.3402,-0.3318,0.0,-0.3912,-0.4066,-0.4406,0.0,0.0,0.0,0.0,0.0,0.0,0.0,0.0,0.0,-0.8311,0.0,0.0,0.0,-0.9836,0.0,0.0,0.0,0.0,0.0,0.0,0.0,0.0,0.0,0.0,0.0,0.0,0.0,0.0,0.0,0.0,-1.5879,-1.5879,-1.6323,-1.6604,-1.6679,-1.6998,-1.7214,-1.7254,-1.7107,-1.7028,-1.7028,-1.6864,-1.6769,-1.6769,-1.6769,-1.6795,-1.683,-1.683,-1.683,-1.683,-1.683,-1.6762,-1.6677,-1.6974,-1.7165,-1.7316,-1.7476,-1.7955,-1.858,-1.858,-1.8612,-1.8652,0.9125,0.873,0.8256,0.7784,0.7363,0.6937,0.6556,0.6416,0.6332,0.6325,0.6331,0.6353,0.6385,0.6385,0.6331,0.618,0.6063,0.0,0.5732,0.0,0.5207,0.4897,0.4475,0.3974,0.3444,0.2846,0.2326,0.186,0.15,0.1054,0.054,0.0257,-0.0095,-0.0549,-0.0796,-0.1168,-0.1632,0.0,-0.2402,0.0,-0.3088,-0.3011,0.0,-0.3137,-0.327,-0.3345,-0.3591,-0.3761,-0.3837,0.0,-0.4058,-0.4193,0.0,-0.4815,0.0,0.0,0.0,0.0,0.0,0.0,0.0,0.0,-0.7749,0.0,0.0,0.0,-0.929,-0.9439,0.0,0.0,0.0,0.0,0.0,0.0,0.0,0.0,0.0,0.0,0.0,0.0,0.0,0.0,0.0,0.0,0.0,-1.4765,-1.5149,-1.5567,-1.5907,-1.597,-1.6124,-1.6438,-1.6412,-1.6412,-1.6412,-1.6377,-1.6386,-1.6386,-1.6386,-1.6473,-1.6638,-1.6638,-1.6638,-1.6638,-1.6638,-1.674,-1.6856,-1.6728,-1.711,-1.7726,-1.7773,-1.7869,-1.808,-1.808,-1.8241,-1.8442,0.8805,0.8296,0.7739,0.7314,0.6952,0.6573,0.6113,0.5864,0.5751,0.5866,0.5895,0.5944,0.6105,0.0,0.0,0.0,0.0,0.5808,0.0,0.0,0.4968,0.4469,0.4199,0.3824,0.3291,0.288,0.2425,0.192,0.1465,0.0962,0.0433,0.0098,-0.0324,-0.079,-0.1104,0.0,-0.201,0.0,-0.2908,0.0,0.0,0.0,0.0,-0.38,-0.3891,-0.4126,-0.4207,-0.4328,-0.4407,0.0,-0.4549,0.0,0.0,0.0,0.0,0.0,0.0,0.0,0.0,0.0,0.0,0.0,0.0,0.0,0.0,0.0,-0.8923,0.0,0.0,0.0,0.0,0.0,0.0,0.0,0.0,0.0,0.0,0.0,0.0,0.0,0.0,0.0,0.0,0.0,0.0,0.0,0.0,-1.4786,-1.5261,-1.549,-1.5823,-1.6298,-1.6307,-1.6307,-1.6307,-1.6307,-1.6307,-1.6307,-1.6307,-1.6342,-1.6447,-1.6447,-1.6447,-1.6447,-1.6447,-1.6528,-1.6727,-1.677,-1.7033,-1.747,-1.7525,-1.7654,-1.7829,-1.7676,-1.7716,-1.7838,0.8295,0.7795,0.7269,0.681,0.6496,0.6155,0.571,0.536,0.5238,0.5478,0.5504,0.0,0.583,0.5992,0.0,0.0,0.5912,0.5744,0.0,0.0,0.4843,0.429,0.4062,0.0,0.0,0.281,0.2367,0.1838,0.1361,0.0883,0.0328,-0.0076,-0.0545,-0.1039,-0.144,-0.1914,-0.2413,0.0,-0.3399,-0.3862,-0.4351,-0.4779,-0.5145,-0.4634,-0.4665,-0.4965,-0.4892,-0.498,-0.5065,-0.4919,-0.5037,0.0,-0.5408,0.0,0.0,0.0,0.0,0.0,-0.6519,0.0,0.0,0.0,0.0,0.0,0.0,0.0,0.0,0.0,0.0,0.0,0.0,0.0,0.0,-0.8748,0.0,0.0,0.0,0.0,0.0,0.0,0.0,0.0,0.0,0.0,0.0,0.0,-1.3439,0.0,-1.4493,-1.4913,-1.5359,-1.5861,-1.5939,-1.5991,-1.5991,-1.5991,-1.5991,-1.5991,-1.5991,-1.6061,-1.6175,-1.6175,-1.6202,-1.6237,-1.6175,-1.6349,-1.6598,-1.6694,-1.6931,-1.7276,-1.7284,-1.7424,-1.7538,-1.7432,-1.7392,-1.7432,0.7751,0.7413,0.7023,0.6418,0.6036,0.5676,0.5281,0.0,0.0,0.0,0.0,0.0,0.0,0.0,0.0,0.0,0.0,0.5615,0.5581,0.0,0.4972,0.0,0.4132,0.3561,0.0,0.2486,0.1964,0.1413,0.1135,0.0731,0.0202,-0.0261,-0.0771,-0.131,-0.171,-0.2258,-0.2918,-0.3439,-0.3884,-0.4268,-0.5048,-0.5664,-0.6129,0.0,-0.5685,-0.584,-0.5655,0.0,0.0,-0.5629,-0.5607,0.0,0.0,0.0,0.0,0.0,0.0,0.0,0.0,0.0,0.0,-0.7289,0.0,0.0,0.0,0.0,-0.8242,0.0,0.0,0.0,0.0,0.0,-0.8261,-0.8396,-0.8482,0.0,0.0,0.0,0.0,0.0,0.0,0.0,0.0,0.0,0.0,-1.2313,-1.2354,-1.2723,-1.3585,-1.3974,-1.4313,-1.4727,-1.5066,-1.524,-1.524,-1.524,-1.524,-1.524,-1.524,-1.5426,-1.5841,-1.5841,-1.5938,-1.6096,-1.5903,-1.6107,-1.6581,-1.6387,-1.674,-1.7375,-1.7172,-1.709,-1.7131,-1.7351,-1.7392,-1.7392,0.6996,0.6618,0.63,0.5966,0.0,0.0,0.0,0.4671,0.0,0.0,0.0,0.0,0.0,0.0,0.5127,0.0,0.0,0.5032,0.4938,0.4816,0.0,0.0,0.0,0.3552,0.0,0.0,0.1994,0.1328,0.084,0.0379,-0.0081,-0.0548,-0.1059,-0.1595,-0.2038,-0.2677,0.0,0.0,0.0,0.0,0.0,-0.6638,-0.6855,0.0,0.0,-0.6226,-0.6171,-0.6255,0.0,-0.6203,-0.6315,-0.6547,-0.6522,-0.655,-0.6639,-0.6699,-0.6941,0.0,0.0,0.0,-0.7388,-0.7527,0.0,0.0,0.0,0.0,0.0,0.0,0.0,0.0,0.0,-0.7386,-0.724,-0.7385,-0.746,-0.754,0.0,0.0,0.0,0.0,0.0,0.0,0.0,0.0,0.0,-1.1774,-1.185,-1.2216,-1.3076,-1.3227,-1.3628,-1.435,-1.4479,-1.4614,-1.4812,-1.4812,-1.4856,-1.4999,-1.4999,-1.5141,-1.539,-1.539,-1.5426,-1.5505,-1.5685,-1.6005,-1.6403,-1.6411,-1.6636,-1.6902,-1.6722,-1.6566,-1.6492,-1.682,-1.6943,-1.6943,0.6577,0.6071,0.0,0.0,0.0,0.0,0.0,0.0,0.0,0.0,0.4024,0.0,0.4145,0.0,0.4692,0.0,0.4701,0.4606,0.4542,0.4434,0.0,0.3812,0.3688,0.0,0.0,0.0,0.1867,0.1162,0.066,0.02,-0.0285,-0.0856,-0.1413,-0.1971,-0.2439,-0.3104,-0.3894,-0.4336,-0.4934,0.0,0.0,-0.729,0.0,0.0,-0.7066,-0.6984,0.0,-0.6969,-0.7045,-0.6873,-0.6948,-0.7078,-0.7015,-0.7042,-0.7094,-0.7088,-0.7275,-0.7506,-0.7435,-0.7483,0.0,0.0,-0.7538,0.0,-0.7548,0.0,0.0,0.0,0.0,0.0,0.0,0.0,-0.6637,-0.6651,-0.6738,-0.6781,0.0,-0.6781,0.0,0.0,0.0,0.0,0.0,0.0,-1.0147,-1.0941,-1.1106,-1.1503,0.0,0.0,-1.292,-1.3576,-1.3716,-1.394,-1.4317,-1.4325,-1.4433,-1.4613,-1.4613,-1.4713,-1.4919,-1.4955,-1.5026,-1.5122,-1.5483,-1.5777,-1.6075,-1.6236,-1.6388,-1.6451,-1.6319,-1.6203,-1.6128,-1.6409,-1.6492,-1.6492,0.645,0.0,0.0,0.0,0.4483,0.0,0.0,0.0,0.3401,0.0,0.3517,0.3659,0.3832,0.4166,0.4418,0.4532,0.4439,0.0,0.4338,0.4102,0.0,0.0,0.3266,0.2806,0.22,0.0,0.0,0.0,0.0599,0.0148,-0.0443,-0.1179,-0.1828,-0.243,-0.292,0.0,-0.4271,-0.4879,-0.5341,-0.5794,-0.69,-0.7668,-0.814,-0.8365,0.0,-0.8118,-0.7924,-0.7853,-0.7827,-0.7713,-0.7521,-0.7395,-0.7528,-0.7549,-0.753,-0.7455,-0.7674,-0.7871,-0.7692,-0.7714,-0.7817,-0.7817,0.0,0.0,0.0,0.0,-0.7328,0.0,0.0,0.0,0.0,0.0,-0.6406,-0.6222,-0.6288,-0.6373,-0.6373,0.0,0.0,0.0,0.0,0.0,0.0,-0.8668,-0.9078,-0.9794,-1.0165,-1.0574,0.0,0.0,-1.2153,-1.2448,-1.2777,-1.3211,-1.3731,-1.3746,-1.3855,-1.4057,-1.4057,-1.4173,-1.4389,-1.4533,-1.4685,-1.4888,-1.5287,-1.553,-1.5575,-1.5826,-1.5967,-1.6087,-1.6087,-1.6046,-1.6046,-1.6087,-1.6087,-1.6087,0.5676,0.4824,0.4068,0.0,0.361,0.3496,0.0,0.0,0.0,0.0,0.3152,0.3193,0.3305,0.3528,0.3678,0.3704,0.3685,0.0,0.0,0.0,0.0,0.325,0.3015,0.2675,0.2208,0.1707,0.0,0.0525,0.0,-0.0458,-0.0854,-0.1554,-0.2125,-0.258,-0.3257,-0.397,-0.4689,-0.5225,-0.6018,-0.6944,-0.7955,-0.8429,0.0,0.0,-0.9056,-0.8932,-0.8604,-0.8581,-0.866,-0.8497,-0.8495,-0.853,-0.8413,-0.824,-0.8076,-0.8087,-0.8083,-0.8105,-0.8048,-0.8069,-0.809,-0.809,-0.7791,-0.748,0.0,0.0,0.0,0.0,0.0,0.0,0.0,0.0,0.0,-0.6056,-0.5963,-0.5874,0.0,0.0,0.0,0.0,0.0,0.0,0.0,-0.8048,-0.858,-0.911,-0.9419,-0.9881,0.0,0.0,0.0,-1.1744,-1.2069,-1.2457,-1.2849,-1.3042,-1.3309,-1.3637,-1.3637,-1.3855,-1.4165,-1.4201,-1.4274,-1.4348,-1.4947,-1.5227,-1.5273,-1.5834,-1.5962,-1.5782,-1.565,-1.536,-1.5159,-1.5831,-1.6087,-1.6087,0.4961,0.0,0.0,0.2763,0.0,0.0,0.269,0.0,0.0,0.2553,0.2567,0.0,0.2659,0.2848,0.2972,0.3004,0.2977,0.0,0.0,0.0,0.0,0.2623,0.2443,0.2123,0.1744,0.1221,0.0,0.0098,0.0,-0.088,-0.1353,-0.198,-0.2565,-0.3119,-0.3714,-0.4392,-0.5196,-0.5993,-0.6961,-0.7972,-0.85,0.0,0.0,-0.9392,-0.9544,-0.9544,-0.9501,-0.9344,-0.9102,-0.8988,-0.899,-0.8994,-0.8872,-0.8714,-0.8595,-0.8595,-0.8604,-0.8613,-0.8518,-0.8495,-0.8468,-0.8265,-0.7938,-0.7654,-0.7563,-0.7324,-0.7107,0.0,0.0,0.0,0.0,0.0,0.0,-0.5682,-0.5514,0.0,0.0,0.0,0.0,0.0,0.0,0.0,0.0,-0.7221,-0.7878,-0.8287,-0.8742,-0.9234,0.0,0.0,0.0,-1.1041,-1.1445,-1.1854,-1.2226,-1.2601,-1.2936,-1.3236,-1.3236,-1.3411,-1.3695,-1.3811,-1.3891,-1.3994,-1.4782,-1.5033,-1.4977,-1.5553,-1.5658,-1.5409,-1.5193,-1.4943,-1.4776,-1.5284,-1.5541,-1.5673,0.4195,0.0,0.0,0.0,0.0,0.0,0.0,0.1914,0.0,0.19,0.0,0.1923,0.197,0.2165,0.2261,0.2349,0.0,0.2241,0.2241,0.2159,0.2024,0.1916,0.1689,0.1392,0.1026,0.0571,0.0,0.0,0.0,-0.127,-0.1889,-0.2431,-0.3071,-0.3754,-0.4199,-0.4937,0.0,-0.6965,-0.7913,-0.8703,-0.8808,-0.909,-0.9481,-0.9856,-1.0008,-1.0073,-1.038,-1.0067,-0.9473,-0.9473,-0.9335,-0.9207,-0.9207,-0.916,-0.9119,-0.9119,-0.9162,-0.9163,-0.8998,-0.8944,-0.8817,-0.8374,-0.81,-0.7892,-0.7678,-0.743,-0.7215,-0.7036,-0.6951,0.0,0.0,0.0,0.0,-0.5297,0.0,0.0,0.0,0.0,0.0,0.0,0.0,0.0,0.0,0.0,-0.7145,-0.7453,-0.8071,0.0,0.0,0.0,0.0,-1.0403,-1.0852,0.0,-1.181,0.0,-1.2595,-1.2856,-1.2856,-1.2973,-1.3156,-1.3382,-1.3572,-1.3755,-1.4592,-1.4847,-1.4665,-1.5138,-1.5193,-1.4999,-1.4741,-1.465,-1.4615,-1.4615,-1.4783,-1.4999,0.0,0.0,0.0,0.0,0.0,0.0728,0.0815,0.1061,0.1279,0.1313,0.1354,0.0,0.144,0.1483,0.1486,0.1492,0.1487,0.0,0.0,0.0,0.0,0.1435,0.1027,0.0752,0.0677,-0.0073,-0.0579,0.0,0.0,-0.2003,-0.2379,-0.2864,-0.34,-0.3969,-0.4659,-0.5723,-0.7045,-0.7694,0.0,-0.8756,-0.947,-0.9896,-1.0129,-1.0379,-1.0578,-1.07,-1.0555,-1.0406,-1.0293,-1.0293,-1.0265,-1.0226,-1.0226,-1.0027,-0.973,-0.973,-0.9474,-0.9195,-0.9157,-0.9147,-0.9053,-0.8625,-0.8364,-0.8149,-0.7777,-0.7443,-0.7154,-0.6966,-0.6662,-0.6373,-0.6182,0.0,0.0,0.0,0.0,0.0,0.0,0.0,0.0,0.0,0.0,0.0,0.0,0.0,0.0,0.0,0.0,0.0,0.0,0.0,0.0,0.0,0.0,0.0,0.0,0.0,-1.2064,-1.2636,-1.2636,-1.2753,-1.2973,-1.3156,-1.3273,-1.3345,-1.3981,-1.4255,-1.4227,-1.4646,-1.4692,-1.4524,-1.4482,-1.4363,-1.4208,-1.4208,-1.4328,-1.4566,0.0,0.0,0.0,0.0,0.0,0.0,0.0,-0.0191,0.0,0.051,0.059,0.0595,0.0569,0.0571,0.0571,0.0571,0.0571,0.0571,0.0571,0.0571,0.0608,0.064,0.0158,0.0,-0.0039,-0.0828,-0.1337,-0.1523,0.0,-0.268,-0.3033,-0.3558,-0.4062,-0.4557,-0.56,-0.6582,0.0,0.0,0.0,-0.9261,-0.9912,-1.0347,-1.0699,-1.0982,-1.1186,-1.123,-1.1079,-1.1024,-1.0968,-1.064,-1.0513,-1.0513,-1.0513,-1.0364,-1.0194,-1.0083,-0.9889,-0.9654,-0.9468,-0.94,-0.9275,-0.8762,-0.847,-0.8213,-0.785,-0.7531,-0.7286,-0.6966,-0.6762,-0.6472,-0.6029,-0.5651,0.0,0.0,0.0,0.0,0.0,0.0,0.0,0.0,0.0,0.0,0.0,0.0,0.0,0.0,0.0,0.0,0.0,0.0,0.0,0.0,0.0,0.0,0.0,0.0,0.0,-1.2452,-1.2452,-1.2562,-1.2746,-1.2826,-1.3021,-1.3271,-1.3737,-1.4026,-1.4217,-1.4462,-1.4447,-1.4243,-1.4243,-1.4208,-1.4088,-1.4088,-1.4166,-1.4286,0.0,0.0439,0.0,0.0,-0.0716,0.0,0.0,-0.1474,-0.1307,-0.0407,-0.0286,-0.033,-0.0378,-0.0379,-0.0379,-0.0379,-0.0379,-0.0379,-0.0379,-0.0379,-0.0334,-0.0287,-0.0737,-0.0975,-0.0917,-0.1672,-0.215,0.0,0.0,-0.3339,-0.3737,-0.4225,-0.4773,-0.5352,0.0,0.0,0.0,0.0,-0.9242,-0.9963,-1.0361,-1.0776,-1.1242,-1.1566,-1.1768,-1.1813,-1.1709,-1.1651,-1.1576,-1.0995,-1.0715,-1.0625,-1.0625,-1.0594,-1.0513,-1.0368,-1.0255,-1.0142,-0.9812,-0.9684,-0.952,-0.8924,-0.8623,-0.8324,-0.7899,-0.7683,-0.7438,-0.6985,-0.6813,-0.6551,-0.594,-0.5556,0.0,0.0,0.0,0.0,0.0,0.0,0.0,0.0,0.0,0.0,0.0,0.0,0.0,0.0,0.0,-0.7156,-0.7715,-0.8043,0.0,0.0,0.0,-1.0181,-1.088,0.0,-1.1735,0.0,-1.2305,-1.2378,-1.2526,-1.2562,-1.2838,-1.3255,-1.3599,-1.3914,-1.4275,-1.4302,-1.4243,-1.4088,-1.4088,-1.4088,-1.4088,-1.4088,-1.4088,-1.4124,0.0,0.0,0.0,0.0,0.0,0.0,0.0,-0.2434,-0.2289,-0.1306,-0.1242,-0.1258,-0.126,-0.1261,-0.1261,-0.1261,-0.1261,-0.1261,-0.1261,-0.1261,-0.126,-0.1257,-0.1719,-0.1968,-0.1964,-0.2575,-0.2988,0.0,0.0,-0.3839,-0.4398,-0.4593,-0.5255,0.0,0.0,0.0,0.0,-0.9139,-0.9831,-1.0627,-1.1038,-1.1509,-1.1905,-1.1946,-1.2241,-1.2581,-1.2308,-1.2215,-1.2172,-1.186,-1.1443,-1.1037,-1.1037,-1.0925,-1.0775,-1.0738,-1.0475,-1.0175,-1.0153,-0.9997,-0.9718,-0.9113,-0.8969,-0.8739,-0.797,-0.7797,-0.7591,-0.7025,-0.6551,-0.6181,-0.5926,-0.5614,-0.5371,0.0,0.0,0.0,0.0,0.0,0.0,0.0,0.0,0.0,0.0,-0.5042,0.0,0.0,-0.6109,-0.6664,-0.7577,-0.7776,-0.8199,-0.9,0.0,-0.9847,-1.088,-1.0946,0.0,-1.2305,-1.2305,-1.2305,-1.2342,-1.2526,-1.2763,-1.3064,-1.3365,-1.375,-1.4132,-1.4117,-1.413,-1.4088,-1.4088,-1.4088,-1.4088,-1.4088,-1.4088,-1.4088,0.0,0.0,0.0,0.0,0.0,0.0,0.0,-0.3547,-0.3502,-0.309,-0.2556,-0.2239,-0.2311,-0.2315,-0.2315,-0.2315,-0.2315,-0.2315,-0.2315,-0.2315,-0.2302,-0.2228,-0.2527,-0.2769,-0.2857,-0.3375,-0.3772,0.0,0.0,0.0,0.0,-0.5266,0.0,0.0,0.0,-0.8304,-0.9204,-0.9576,-1.0187,-1.0936,-1.136,-1.1824,-1.2253,-1.2554,-1.2764,-1.2901,-1.2751,-1.2738,-1.2653,-1.2263,-1.1782,-1.1297,-1.1166,-1.1037,-1.0962,-1.085,-1.0594,-1.0368,-1.0218,-1.0067,-0.9787,-0.9318,-0.9079,-0.886,-0.8296,-0.7962,-0.7691,-0.7342,-0.6746,-0.6285,-0.6117,-0.587,-0.5634,0.0,0.0,0.0,0.0,0.0,0.0,0.0,0.0,0.0,0.0,0.0,0.0,0.0,0.0,-0.6711,-0.7429,-0.7724,-0.8224,-0.8973,0.0,-0.9846,-1.088,-1.1045,-1.154,-1.2305,-1.2305,-1.2305,-1.2311,-1.2597,-1.2941,-1.338,-1.3716,-1.3944,-1.4088,-1.4088,-1.4088,-1.4088,-1.4088,-1.4088,-1.4088,-1.4088,-1.4088,-1.4088,-0.2526,0.0,-0.3376,0.0,-0.4095,-0.4324,-0.4491,-0.4617,-0.4637,-0.4637,-0.4025,-0.348,-0.3309,-0.3224,-0.3179,-0.3179,-0.3136,-0.3092,-0.3092,-0.3179,-0.3158,-0.311,-0.3416,0.0,-0.377,-0.413,-0.4455,-0.4704,-0.5092,0.0,0.0,0.0,0.0,0.0,-0.811,-0.8743,-0.9586,-0.9962,-1.0549,-1.1306,-1.1637,-1.2083,-1.2534,-1.2924,-1.3143,-1.3203,-1.3217,-1.323,-1.3144,-1.266,-1.22,-1.1793,-1.1437,-1.1298,-1.12,-1.0974,-1.0726,-1.0475,-1.0255,-1.0067,-0.9809,-0.9473,-0.9238,-0.899,-0.8594,-0.821,-0.7894,-0.7571,-0.6973,-0.6453,-0.6353,-0.6114,-0.5812,-0.5536,0.0,0.0,0.0,0.0,0.0,0.0,0.0,-0.4826,-0.5018,0.0,0.0,0.0,0.0,0.0,-0.7381,-0.7691,0.0,0.0,0.0,0.0,0.0,-1.116,-1.165,-1.2305,-1.2305,-1.2345,-1.2445,-1.2871,-1.324,-1.362,-1.3955,-1.4088,-1.4088,-1.4088,-1.4088,-1.4088,-1.4088,-1.4088,-1.4088,-1.4088,-1.4088,-1.4088,-0.4026,-0.4321,-0.4615,-0.4988,-0.5209,-0.533,-0.5551,-0.5646,-0.5675,-0.5675,-0.55,-0.5102,-0.4342,-0.4028,-0.3894,-0.3894,-0.3719,-0.3587,-0.3587,-0.3762,-0.3894,0.0,0.0,-0.4703,-0.4701,-0.4826,-0.5076,-0.5505,0.0,0.0,-0.6398,0.0,-0.7645,-0.8094,-0.8513,-0.916,-1.0023,-1.0228,-1.0953,-1.1995,-1.1995,-1.2289,-1.2747,-1.3009,-1.3222,-1.3434,-1.3603,-1.3688,-1.36,-1.3156,-1.2848,-1.2593,-1.2079,-1.1694,-1.145,-1.1257,-1.0871,-1.0475,-1.0255,-1.0067,-0.9846,-0.9657,-0.943,-0.9185,-0.8776,-0.8543,-0.8206,-0.7631,-0.7074,-0.6704,-0.6704,-0.6266,-0.5864,-0.5733,0.0,0.0,0.0,0.0,0.0,0.0,-0.4884,-0.5032,-0.537,0.0,0.0,0.0,0.0,0.0,0.0,0.0,0.0,-0.8979,-0.9257,0.0,-1.088,-1.116,-1.165,-1.2305,-1.2305,-1.2458,-1.2797,-1.336,-1.3593,-1.362,-1.3955,-1.4088,-1.4088,-1.4088,-1.4088,-1.4088,-1.4088,-1.4088,-1.4088,-1.4088,-1.4088,-1.4088,-0.4877,-0.5358,-0.5766,-0.5938,-0.6296,-0.6543,-0.6634,-0.6539,-0.6435,-0.6435,-0.6257,-0.6067,-0.5927,-0.5185,-0.4652,0.0,-0.461,-0.4565,0.0,-0.4607,-0.4652,-0.4652,-0.4832,-0.4968,-0.5193,-0.5336,-0.5579,-0.589,0.0,0.0,0.0,-0.724,-0.7798,-0.8535,-0.8913,-0.9611,-1.0497,-1.0835,-1.1396,-1.2043,-1.2203,-1.2454,-1.2747,-1.3137,-1.3355,-1.344,-1.3828,-1.387,-1.3682,-1.338,-1.3138,-1.2909,-1.2571,-1.2155,-1.172,-1.1522,-1.1143,-1.0748,-1.0517,-1.0198,-0.9846,-0.9657,-0.9435,-0.9226,-0.8972,-0.8654,-0.821,-0.7631,-0.7358,-0.7134,-0.6766,-0.6563,-0.6359,-0.6099,0.0,0.0,0.0,0.0,0.0,0.0,-0.4887,-0.5039,0.0,-0.5404,0.0,0.0,0.0,0.0,0.0,0.0,0.0,0.0,-0.9519,0.0,-1.116,-1.1439,-1.1808,-1.2305,-1.2305,-1.2565,-1.3073,-1.3427,-1.3713,-1.3948,-1.4048,-1.4088,-1.4088,-1.4088,-1.4088,-1.4088,-1.4088,-1.4088,-1.4088,-1.4088,-1.4088,-1.4088,-0.6071,-0.6477,-0.6807,-0.6946,-0.7187,-0.7429,-0.7488,-0.7365,-0.7296,-0.7396,-0.7083,-0.6888,-0.7023,-0.6225,0.0,-0.5448,-0.5357,-0.5264,-0.5175,-0.5272,-0.534,-0.534,-0.5476,-0.5589,-0.5769,0.0,0.0,-0.6349,-0.6746,-0.7089,-0.7416,-0.7716,-0.8237,-0.8948,-0.9368,-0.9995,-1.0727,-1.103,-1.1516,-1.1995,-1.216,-1.2412,-1.2747,-1.3222,-1.3398,-1.344,-1.3828,-1.3822,-1.3652,-1.3398,-1.3185,-1.3052,-1.2705,-1.2356,-1.2034,-1.1735,-1.1284,-1.0852,-1.0655,-1.0323,-1.0024,-0.9909,-0.9649,-0.9322,-0.9061,-0.8707,-0.8294,-0.7929,-0.7708,-0.7491,-0.7087,-0.6885,-0.6693,-0.6325,0.0,-0.5796,0.0,0.0,0.0,0.0,0.0,0.0,0.0,-0.5649,0.0,0.0,0.0,0.0,0.0,0.0,0.0,-0.9382,-0.9771,0.0,-1.1186,-1.153,-1.1855,-1.2194,-1.2494,-1.2861,-1.3266,-1.351,-1.3699,-1.3828,-1.3828,-1.3828,-1.3828,-1.3828,-1.3828,-1.3828,-1.3828,-1.387,-1.3955,-1.3955,-1.3997,-1.4088,-0.7401,-0.7533,0.0,0.0,-0.7959,0.0,-0.814,-0.8166,-0.8222,-0.8415,-0.7962,-0.7634,-0.7644,-0.723,-0.6765,-0.6253,0.0,0.0,0.0,-0.5794,-0.5961,-0.5961,-0.6256,-0.6415,-0.6415,-0.6459,-0.6596,-0.6869,-0.7358,-0.7712,-0.7974,-0.8408,-0.8897,-0.9345,-0.9848,-1.0275,-1.0753,-1.097,-1.144,-1.2,-1.2043,-1.2289,-1.2747,-1.3222,-1.3398,-1.3398,-1.361,-1.3652,-1.361,-1.3228,-1.3094,-1.3009,-1.2534,-1.2406,-1.2273,-1.183,-1.1336,-1.0902,-1.0659,-1.0492,-1.0315,-1.0315,-0.9978,-0.9527,-0.9103,-0.8716,-0.842,-0.8406,-0.8101,-0.7765,-0.7569,-0.7258,-0.692,-0.6498,-0.6333,-0.6094,-0.5683,0.0,0.0,0.0,0.0,0.0,0.0,-0.6121,-0.6382,0.0,0.0,0.0,0.0,0.0,-0.869,-0.9439,-0.9943,-1.0484,-1.1031,-1.1469,-1.1787,-1.2005,-1.2797,-1.322,-1.3279,-1.3565,-1.3568,-1.3398,-1.3398,-1.3398,-1.3398,-1.3398,-1.3398,-1.3398,-1.3398,-1.3519,-1.3695,-1.3695,-1.387,-1.4088,0.0,0.0,-0.8107,-0.8335,-0.8489,-0.8639,-0.8822,-0.8703,-0.8571,-0.861,-0.8383,-0.8153,-0.8089,-0.7959,-0.7717,-0.7291,-0.6864,-0.6605,-0.6561,-0.6626,-0.6655,-0.6655,-0.6715,-0.6793,-0.6793,-0.6926,-0.725,-0.772,-0.804,-0.8317,-0.8498,-0.8816,-0.923,-0.9692,-1.0218,-1.0637,-1.0938,-1.1342,-1.1699,-1.2043,-1.2203,-1.2454,-1.2747,-1.3052,-1.3185,-1.3185,-1.3398,-1.3355,-1.3228,-1.3137,-1.2966,-1.2747,-1.2491,-1.224,-1.2026,-1.1798,-1.1469,-1.1145,-1.0943,-1.0729,-1.0517,-1.0517,-1.0211,-0.9756,-0.9138,-0.8908,-0.8788,-0.8471,-0.8327,-0.8156,-0.7805,-0.7663,-0.746,-0.6924,-0.6687,-0.6465,-0.6098,0.0,0.0,0.0,-0.6048,-0.6165,-0.6468,-0.655,-0.6795,0.0,0.0,0.0,0.0,-0.873,-0.918,-0.997,-1.0126,-1.0573,-1.131,-1.1415,-1.1671,-1.2088,-1.2736,-1.3044,-1.3073,-1.3355,-1.3434,-1.3398,-1.3398,-1.3398,-1.3398,-1.3398,-1.3398,-1.3398,-1.3398,-1.344,-1.3483,-1.3652,-1.3737,-1.3854,-0.8442,-0.8532,-0.8651,-0.875,-0.8858,-0.9007,-0.919,-0.9115,-0.9045,-0.908,-0.8904,-0.875,-0.8649,-0.8461,-0.8196,-0.7982,-0.7501,-0.7172,-0.7024,-0.711,-0.7127,-0.7127,-0.73,-0.7409,-0.7409,-0.7637,-0.7872,-0.8204,-0.8434,-0.857,-0.8707,-0.9173,-0.955,-0.9828,-1.0594,-1.0995,-1.1171,-1.1681,-1.2071,-1.2369,-1.238,-1.2588,-1.288,-1.3058,-1.3094,-1.31,-1.3222,-1.3179,-1.3094,-1.2966,-1.2747,-1.2534,-1.2283,-1.2037,-1.1828,-1.157,-1.1428,-1.1276,-1.1149,-1.0977,-1.0767,-1.0619,-1.0296,-0.9888,-0.9537,-0.9283,-0.9064,-0.8721,-0.866,-0.8556,-0.816,-0.8015,-0.7771,-0.7294,-0.7085,-0.6835,-0.647,-0.6321,0.0,-0.6274,-0.6359,-0.6502,-0.6666,-0.6777,-0.7027,-0.7455,0.0,0.0,-0.8806,-0.9013,-0.9422,-1.005,-1.0225,-1.0603,-1.1111,-1.1427,-1.1889,-1.2533,-1.2838,-1.2965,-1.2877,-1.3026,-1.2966,-1.2759,-1.2759,-1.2759,-1.2759,-1.2759,-1.2839,-1.2924,-1.2924,-1.3052,-1.3264,-1.3392,-1.3651,-1.3959,-0.9049,-0.9096,-0.9104,-0.9133,-0.9137,-0.9198,-0.9416,-0.9445,-0.9449,-0.9608,-0.9381,-0.9236,-0.9187,-0.8783,-0.8482,-0.8482,-0.8038,-0.7693,-0.7388,-0.7524,-0.7605,-0.7605,-0.7921,-0.8135,-0.8135,-0.8371,-0.8509,-0.8509,-0.8741,-0.8879,-0.8926,-0.9592,-0.9921,-1.0014,-1.091,-1.1359,-1.1359,-1.1875,-1.2369,-1.2717,-1.2551,-1.2738,-1.3107,-1.3096,-1.312,-1.3107,-1.307,-1.3052,-1.3009,-1.2747,-1.2534,-1.2369,-1.2037,-1.1828,-1.1656,-1.1397,-1.1267,-1.1267,-1.1267,-1.1113,-1.0899,-1.0623,-1.0295,-1.0048,-0.9974,-0.962,-0.9286,-0.9103,-0.9022,-0.8893,-0.856,-0.8342,-0.8056,-0.7673,-0.7454,-0.7231,-0.6853,0.0,-0.6678,-0.6522,-0.6673,-0.6793,-0.682,-0.6961,-0.7214,-0.7574,-0.7759,-0.818,0.0,-0.9178,-0.9476,-0.9906,-1.0315,-1.0648,-1.0909,-1.1569,-1.2196,-1.2861,-1.2899,-1.2787,-1.2583,-1.2583,-1.2375,-1.2,-1.2,-1.2,-1.2,-1.2,-1.2118,-1.2326,-1.2363,-1.2692,-1.3071,-1.3114,-1.359,-1.4151,-0.9096,-0.9096,-0.9141,-0.9339,-0.9363,-0.9424,-0.9559,-0.9587,-0.9596,-0.9575,-0.9579,-0.943,-0.9232,-0.9133,-0.8985,-0.8775,-0.8676,-0.8478,-0.8233,-0.8456,-0.859,-0.859,-0.8667,-0.8652,-0.8652,-0.8954,-0.9056,-0.9056,-0.9347,-0.9592,-0.9788,-1.0125,-1.0418,-1.0652,-1.1301,-1.1549,-1.1586,-1.195,-1.2232,-1.25,-1.2649,-1.2859,-1.3101,-1.3113,-1.3105,-1.3074,-1.2832,-1.2747,-1.2747,-1.2534,-1.2448,-1.232,-1.1866,-1.1742,-1.1656,-1.1397,-1.1181,-1.1051,-1.1051,-1.0885,-1.0668,-1.0401,-1.032,-1.0151,-0.9771,-0.962,-0.95,-0.9286,-0.9137,-0.8975,-0.8903,-0.8737,-0.8477,-0.8061,-0.7837,-0.7593,-0.7254,0.0,-0.6977,-0.7053,-0.711,-0.7203,-0.7349,-0.7403,-0.7593,-0.7976,-0.804,-0.8324,-0.8969,-0.9193,-0.9502,-0.9965,-1.0301,-1.0773,-1.139,-1.195,-1.2193,-1.2153,-1.2367,-1.2376,-1.2123,-1.2123,-1.208,-1.2,-1.2,-1.2,-1.2,-1.2,-1.2043,-1.208,-1.2326,-1.259,-1.2885,-1.3311,-1.3667,-1.4032,-0.9384,-0.9384,-0.9409,-0.949,-0.9502,-0.9531,-0.9616,-0.9579,-0.9579,-0.9579,-0.9579,-0.9529,-0.943,-0.9286,-0.9133,-0.9031,-0.9031,-0.8981,-0.8832,-0.8829,-0.8825,-0.8825,-0.8928,-0.908,-0.9229,-0.9476,-0.9628,-0.9628,-0.9924,-1.0068,-1.0216,-1.0511,-1.0654,-1.085,-1.1531,-1.1829,-1.1819,-1.2289,-1.2572,-1.2797,-1.2892,-1.3119,-1.332,-1.33,-1.3248,-1.3065,-1.2976,-1.2831,-1.2662,-1.2448,-1.2283,-1.2118,-1.1785,-1.1613,-1.144,-1.1224,-1.1051,-1.0965,-1.0868,-1.0776,-1.0659,-1.0557,-1.0403,-1.0262,-1.0172,-0.9932,-0.9732,-0.9674,-0.9479,-0.9246,-0.9022,-0.8903,-0.8718,-0.8322,-0.8191,0.0,0.0,-0.7504,-0.7426,-0.7354,-0.7366,-0.7395,-0.7476,-0.7603,-0.7795,-0.8068,-0.8217,-0.853,-0.9145,-0.9382,-0.9717,-1.0147,-1.0515,-1.101,-1.1543,-1.1782,-1.1968,-1.1987,-1.2151,-1.1989,-1.1639,-1.1639,-1.151,-1.1295,-1.1295,-1.1295,-1.13,-1.1435,-1.1521,-1.165,-1.2044,-1.2438,-1.283,-1.3183,-1.3631,-1.4164,-0.9579,-0.9579,-0.9579,-0.9579,-0.9579,-0.9579,-0.9579,-0.9579,-0.9579,-0.9579,-0.9579,-0.9579,-0.9579,-0.943,-0.9286,-0.9286,-0.9286,-0.9286,-0.9286,-0.9175,-0.9072,-0.8977,-0.9229,-0.9529,-0.9772,-0.9969,-1.0068,-1.0068,-1.0314,-1.0413,-1.0511,-1.0703,-1.085,-1.0949,-1.1683,-1.198,-1.2029,-1.257,-1.291,-1.3033,-1.3174,-1.3331,-1.3496,-1.3568,-1.3441,-1.3161,-1.3101,-1.2903,-1.2619,-1.2369,-1.2118,-1.1871,-1.1699,-1.144,-1.1181,-1.1051,-1.0921,-1.0781,-1.0641,-1.0554,-1.0559,-1.0559,-1.0386,-1.0293,-1.049,-1.0249,-1.0005,-1.0063,-0.9862,-0.9573,-0.9146,-0.9022,-0.887,-0.8518,0.0,0.0,0.0,-0.7842,-0.7723,-0.7603,-0.7522,-0.7484,-0.7484,-0.7722,-0.794,-0.8168,-0.8401,-0.8765,-0.928,-0.9528,-0.9872,-1.0341,-1.0795,-1.121,-1.1602,-1.1664,-1.1759,-1.1914,-1.1866,-1.1602,-1.1246,-1.1198,-1.0982,-1.0684,-1.0684,-1.0684,-1.0727,-1.0868,-1.1072,-1.1348,-1.1756,-1.2305,-1.2839,-1.3116,-1.3634,-1.4243,-0.9579,-0.9579,-0.9579,-0.9579,-0.9579,-0.9579,-0.9579,-0.9579,-0.9579,-0.9579,-0.9579,-0.9579,-0.9579,-0.9579,-0.9579,-0.9579,-0.9579,-0.9579,-0.9579,-0.9772,-0.9821,-0.9575,-0.9772,-1.0068,-1.0364,-1.0364,-1.0364,-1.0364,-1.0413,-1.0511,-1.0757,-1.0801,-1.0949,-1.1194,-1.1731,-1.198,-1.2029,-1.257,-1.2813,-1.2861,-1.3275,-1.3463,-1.353,-1.379,-1.3713,-1.3453,-1.3212,-1.2816,-1.2363,-1.2123,-1.1871,-1.1699,-1.1397,-1.1181,-1.1008,-1.1008,-1.0694,-1.0337,-1.0337,-1.0207,-1.0038,-1.0038,-1.0028,-1.0053,-1.0278,-1.0292,-1.0274,-1.0261,-1.011,-0.9831,-0.9362,-0.9137,-0.8941,-0.8703,0.0,0.0,-0.8365,-0.803,-0.7804,-0.7765,-0.7603,-0.7484,-0.7484,-0.7869,-0.8168,-0.8361,-0.8734,-0.9045,-0.9299,-0.9517,-0.9901,-1.0575,-1.1039,-1.1377,-1.1602,-1.1847,-1.1897,-1.1699,-1.1462,-1.1251,-1.1008,-1.0819,-1.0727,-1.0684,-1.0684,-1.0684,-1.0684,-1.0727,-1.0986,-1.141,-1.1649,-1.2155,-1.2836,-1.331,-1.3667,-1.3998,-0.9579,-0.9579,-0.9579,-0.9579,-0.9579,-0.9579,-0.9579,-0.9579,-0.9579,-0.9579,-0.9579,-0.9579,-0.9579,-0.9723,-0.9826,-0.9826,-1.0019,-1.0117,-1.0117,-1.0167,-1.0216,-1.0117,-1.0167,-1.0314,-1.0413,-1.056,-1.0659,-1.0659,-1.0806,-1.0949,-1.1047,-1.1047,-1.1194,-1.1438,-1.1829,-1.2078,-1.2273,-1.2613,-1.2813,-1.2861,-1.3298,-1.3491,-1.3528,-1.3999,-1.3882,-1.3456,-1.3225,-1.2815,-1.2326,-1.1952,-1.1742,-1.1656,-1.1397,-1.1181,-1.0921,-1.0651,-1.0342,-1.012,-1.012,-1.0081,-0.9994,-0.9994,-0.9994,-1.0062,-1.0234,-1.0286,-1.035,-1.047,-1.0327,-1.0099,-0.9772,-0.9451,-0.9132,-0.8903,0.0,-0.8551,-0.8403,-0.825,-0.814,-0.7991,-0.8013,-0.8078,-0.8078,-0.8409,-0.8684,-0.8765,-0.9036,-0.9261,-0.9475,-0.9812,-1.0269,-1.0824,-1.1,-1.1214,-1.1422,-1.152,-1.144,-1.1267,-1.117,-1.0911,-1.0559,-1.0467,-1.0381,-1.0255,-1.0255,-1.0255,-1.0299,-1.0381,-1.0733,-1.1179,-1.1544,-1.2164,-1.2861,-1.3339,-1.3651,-1.3979,-0.9579,-0.9579,-0.9579,-0.9579,-0.9579,-0.9579,-0.9579,-0.9677,-0.9727,-0.9727,-0.9826,-0.9875,-0.9875,-1.0019,-1.0117,-1.0117,-1.0314,-1.0413,-1.0413,-1.0462,-1.0511,-1.0511,-1.0511,-1.056,-1.0659,-1.085,-1.0949,-1.0949,-1.1096,-1.1194,-1.1194,-1.1292,-1.1438,-1.1639,-1.198,-1.2224,-1.2419,-1.2716,-1.2813,-1.2861,-1.3298,-1.3491,-1.3528,-1.4017,-1.39,-1.3462,-1.3197,-1.2751,-1.2203,-1.1828,-1.1656,-1.1527,-1.1354,-1.1132,-1.0829,-1.0342,-1.012,-0.9994,-0.9994,-0.9994,-0.9994,-0.9994,-0.9994,-1.0038,-1.025,-1.0353,-1.0441,-1.058,-1.0566,-1.0447,-1.0163,-0.9769,-0.9423,-0.9159,-0.8942,-0.8732,-0.8605,-0.8537,-0.8449,-0.8395,-0.8436,-0.8475,-0.8475,-0.886,-0.9101,-0.9101,-0.9363,-0.9587,-0.9734,-1.0086,-1.0429,-1.0786,-1.0873,-1.1003,-1.1181,-1.1267,-1.1181,-1.1008,-1.0959,-1.0694,-1.0294,-1.025,-1.0125,-0.9994,-0.9994,-0.9994,-0.9999,-1.0197,-1.0617,-1.1156,-1.1564,-1.2172,-1.2877,-1.3332,-1.3636,-1.3883,-0.9579,-0.9579,-0.9579,-0.9579,-0.9579,-0.9579,-0.9628,-0.9821,-1.0019,-1.0019,-1.0216,-1.0413,-1.0413,-1.0413,-1.0413,-1.0413,-1.0413,-1.0413,-1.0413,-1.0659,-1.0801,-1.0801,-1.0801,-1.0949,-1.1194,-1.1194,-1.1194,-1.1194,-1.1194,-1.1194,-1.1194,-1.1487,-1.1585,-1.1634,-1.2175,-1.2419,-1.2419,-1.2716,-1.2813,-1.2861,-1.3298,-1.3491,-1.3511,-1.382,-1.3743,-1.3432,-1.2957,-1.2429,-1.1957,-1.1742,-1.1527,-1.1305,-1.1305,-1.1041,-1.0598,-1.0125,-0.9994,-0.9994,-0.9994,-0.9994,-0.9994,-0.9994,-0.9994,-1.0038,-1.025,-1.0511,-1.0666,-1.0611,-1.0815,-1.0871,-1.0396,-1.0126,-0.9886,-0.9458,-0.9164,-0.8985,-0.8996,-0.8832,-0.8786,-0.8978,-0.8841,-0.8727,-0.8727,-0.9071,-0.9315,-0.9315,-0.9751,-0.9994,-0.9994,-1.0207,-1.0294,-1.0294,-1.0554,-1.0776,-1.1008,-1.1181,-1.1181,-1.1008,-1.0781,-1.0554,-1.0294,-1.0081,-0.9994,-0.9994,-0.9994,-0.9994,-1.0013,-1.0227,-1.0758,-1.1431,-1.1613,-1.2129,-1.2861,-1.3346,-1.3491,-1.3636,-0.9579,-0.9579,-0.9579,-0.9579,-0.9579,-0.9677,-0.9875,-0.9969,-1.0068,-1.0265,-1.0364,-1.0413,-1.0413,-1.056,-1.0654,-1.0654,-1.0855,-1.0949,-1.0949,-1.1047,-1.1096,-1.1096,-1.1096,-1.1096,-1.1194,-1.1194,-1.1194,-1.1194,-1.1194,-1.1296,-1.1487,-1.1536,-1.1785,-1.2175,-1.2322,-1.2516,-1.2716,-1.2764,-1.2856,-1.305,-1.3346,-1.3588,-1.3806,-1.3873,-1.365,-1.3205,-1.2678,-1.2211,-1.1742,-1.1483,-1.1348,-1.1262,-1.0954,-1.0819,-1.0598,-1.0125,-0.9994,-0.9994,-0.9994,-0.9994,-0.9994,-0.9994,-0.9994,-1.0038,-1.025,-1.0511,-1.0712,-1.0871,-1.0937,-1.0961,-1.0808,-1.0488,-1.0169,-1.0054,-0.9707,-0.9482,-0.951,-0.9278,-0.9135,-0.9195,-0.9294,-0.9345,-0.9345,-0.961,-0.9775,-0.9775,-0.9918,-0.9994,-0.9994,-1.0081,-1.0164,-1.0294,-1.0381,-1.0603,-1.1008,-1.1051,-1.1051,-1.1008,-1.0959,-1.0694,-1.0294,-1.025,-1.0125,-0.9994,-0.9994,-1.008,-1.0227,-1.0473,-1.0984,-1.1655,-1.1868,-1.2416,-1.305,-1.3394,-1.3636,-1.3883,-0.9579,-0.9579,-0.9579,-0.9579,-0.9677,-0.9826,-0.9969,-1.0167,-1.0364,-1.056,-1.0659,-1.0703,-1.0703,-1.085,-1.0949,-1.0949,-1.1096,-1.1194,-1.1194,-1.1194,-1.1194,-1.1194,-1.1194,-1.1194,-1.1194,-1.1194,-1.1194,-1.1194,-1.1194,-1.1345,-1.1585,-1.1731,-1.198,-1.2419,-1.2516,-1.2667,-1.2813,-1.2813,-1.291,-1.3098,-1.3394,-1.3642,-1.3896,-1.3707,-1.3469,-1.3109,-1.2392,-1.1952,-1.1656,-1.1397,-1.1305,-1.1219,-1.0819,-1.0684,-1.0598,-1.0125,-0.9994,-0.9994,-0.9994,-0.9994,-0.9994,-0.9994,-0.9994,-1.0038,-1.025,-1.0511,-1.0776,-1.0965,-1.1064,-1.1128,-1.1128,-1.0809,-1.0567,-1.0491,-1.0162,-0.9927,-0.9812,-0.9698,-0.9561,-0.9563,-0.9686,-0.9767,-0.9767,-0.9919,-0.9994,-0.9994,-0.9994,-0.9994,-0.9994,-0.9994,-1.0081,-1.0164,-1.0164,-1.0429,-1.0873,-1.0873,-1.0916,-1.1008,-1.1008,-1.0829,-1.0467,-1.0467,-1.043,-1.0387,-1.0387,-1.0509,-1.0763,-1.0989,-1.1414,-1.1857,-1.2135,-1.2587,-1.3147,-1.3394,-1.3732,-1.4118,-0.9579,-0.9579,-0.9628,-0.9628,-0.9821,-1.0019,-1.0068,-1.0511,-1.0806,-1.085,-1.1047,-1.1194,-1.1194,-1.1194,-1.1194,-1.1194,-1.1194,-1.1194,-1.1194,-1.1194,-1.1194,-1.1194,-1.1194,-1.1194,-1.1194,-1.1194,-1.1194,-1.1194,-1.1194,-1.134,-1.1634,-1.1883,-1.2175,-1.2467,-1.2716,-1.2813,-1.2813,-1.2813,-1.291,-1.3152,-1.3394,-1.3673,-1.3843,-1.339,-1.3138,-1.2966,-1.204,-1.1699,-1.1613,-1.1397,-1.1305,-1.1219,-1.0819,-1.0684,-1.0598,-1.0125,-0.9994,-0.9994,-0.9994,-0.9994,-0.9994,-0.9994,-0.9994,-1.0081,-1.0294,-1.0511,-1.0733,-1.0959,-1.1181,-1.1305,-1.1305,-1.1165,-1.0978,-1.0768,-1.0512,-1.0285,-1.0112,-1.0053,-1.0041,-1.0014,-0.9994,-0.9994,-0.9994,-0.9994,-0.9994,-0.9994,-0.9994,-0.9994,-0.9994,-0.9994,-0.9994,-0.9994,-0.9994,-1.0212,-1.0684,-1.0684,-1.0824,-1.1008,-1.1008,-1.0916,-1.0733,-1.0748,-1.0831,-1.0985,-1.101,-1.1187,-1.1456,-1.1665,-1.191,-1.2136,-1.2389,-1.2759,-1.3147,-1.3443,-1.3919,-1.4394,-0.9579,-0.9579,-0.9677,-0.9871,-0.9969,-1.0117,-1.056,-1.0708,-1.09,-1.1096,-1.1145,-1.1194,-1.1194,-1.1194,-1.1194,-1.1194,-1.1194,-1.1194,-1.1194,-1.1194,-1.1194,-1.1194,-1.1194,-1.1194,-1.1194,-1.1194,-1.1194,-1.1194,-1.1194,-1.1438,-1.1927,-1.198,-1.2273,-1.2716,-1.2764,-1.2813,-1.2813,-1.2813,-1.3055,-1.3443,-1.3491,-1.3563,-1.3632,-1.3319,-1.2846,-1.2276,-1.1848,-1.157,-1.1397,-1.1311,-1.1305,-1.1219,-1.0819,-1.0684,-1.0598,-1.0125,-0.9994,-0.9994,-0.9994,-0.9994,-0.9994,-0.9994,-0.9994,-1.0125,-1.0511,-1.0641,-1.0727,-1.1132,-1.1267,-1.1305,-1.1305,-1.1268,-1.123,-1.1187,-1.0973,-1.0787,-1.0565,-1.0355,-1.0202,-1.0033,-0.9994,-0.9994,-0.9994,-0.9994,-0.9994,-0.9994,-0.9994,-0.9994,-0.9994,-0.9994,-0.9994,-0.9994,-0.9994,-1.0212,-1.0684,-1.0684,-1.0862,-1.1219,-1.1219,-1.1138,-1.0921,-1.1141,-1.1162,-1.1,-1.1212,-1.142,-1.1633,-1.1926,-1.2141,-1.2404,-1.2791,-1.3147,-1.3491,-1.3968,-1.4346,-1.4688,-0.9579,-0.9579,-0.9677,-0.9969,-1.0117,-1.0314,-1.0757,-1.0987,-1.1163,-1.1208,-1.1283,-1.1312,-1.1208,-1.1194,-1.1194,-1.1194,-1.1194,-1.1145,-1.1002,-1.0998,-1.0949,-1.0801,-1.0806,-1.09,-1.0998,-1.0998,-1.1047,-1.1194,-1.1194,-1.1487,-1.198,-1.198,-1.2273,-1.2813,-1.2813,-1.2813,-1.2813,-1.2813,-1.3007,-1.3298,-1.3298,-1.3337,-1.3362,-1.2969,-1.2541,-1.2026,-1.1657,-1.144,-1.1305,-1.1305,-1.1305,-1.1262,-1.0954,-1.0776,-1.0641,-1.025,-1.0081,-0.9994,-0.9994,-0.9994,-0.9994,-0.9994,-0.9994,-1.0125,-1.0598,-1.0684,-1.0771,-1.1219,-1.1305,-1.1305,-1.1305,-1.1305,-1.1305,-1.1305,-1.1224,-1.1089,-1.0868,-1.0646,-1.0381,-1.0164,-1.0081,-0.9994,-0.9994,-0.9994,-0.9994,-0.9994,-0.9994,-0.9994,-0.9994,-0.9994,-0.9994,-0.9994,-0.9994,-1.0212,-1.0684,-1.0684,-1.0906,-1.1305,-1.1418,-1.1428,-1.1351,-1.1629,-1.1703,-1.1681,-1.1801,-1.2031,-1.2246,-1.2486,-1.2651,-1.2759,-1.3147,-1.3534,-1.3919,-1.4202,-1.4714,-1.5383,-0.9579,-0.9579,-0.9677,-1.0019,-1.0291,-1.0564,-1.0856,-1.1284,-1.1505,-1.1326,-1.143,-1.1449,-1.1269,-1.1217,-1.1194,-1.1194,-1.1145,-1.1047,-1.0806,-1.0752,-1.0605,-1.0413,-1.0413,-1.0511,-1.0801,-1.0801,-1.0949,-1.1194,-1.1194,-1.1487,-1.198,-1.198,-1.2273,-1.2813,-1.2813,-1.2813,-1.2813,-1.2813,-1.291,-1.3098,-1.3098,-1.307,-1.3019,-1.2579,-1.2237,-1.1927,-1.1467,-1.1305,-1.1305,-1.1305,-1.1305,-1.1262,-1.1008,-1.0824,-1.0641,-1.0337,-1.0125,-0.9994,-0.9994,-0.9994,-0.9994,-0.9994,-0.9994,-1.0125,-1.0598,-1.0684,-1.0819,-1.1219,-1.1305,-1.1305,-1.1305,-1.1305,-1.1305,-1.1305,-1.1305,-1.1219,-1.1008,-1.0824,-1.0598,-1.0337,-1.0125,-0.9994,-0.9994,-0.9994,-0.9994,-0.9994,-0.9994,-0.9994,-0.9994,-0.9994,-0.9994,-0.9994,-1.0038,-1.025,-1.0684,-1.0733,-1.097,-1.1456,-1.1689,-1.1781,-1.1798,-1.212,-1.236,-1.2556,-1.2552,-1.273,-1.291,-1.3104,-1.3147,-1.3195,-1.3485,-1.3919,-1.4304,-1.4491,-1.5208,-1.6176,-0.9579,-0.9579,-0.9776,-1.0265,-1.0508,-1.0823,-1.1326,-1.1596,-1.1765,-1.1737,-1.1609,-1.151,-1.1477,-1.1307,-1.1194,-1.1194,-1.0998,-1.085,-1.0801,-1.0556,-1.0462,-1.0413,-1.0413,-1.0511,-1.0801,-1.0801,-1.0949,-1.1194,-1.1194,-1.1487,-1.198,-1.198,-1.2273,-1.2813,-1.2813,-1.2813,-1.2813,-1.2813,-1.291,-1.3098,-1.3098,-1.2875,-1.2505,-1.2426,-1.1998,-1.1397,-1.1321,-1.1305,-1.1305,-1.1305,-1.1305,-1.1219,-1.0862,-1.0727,-1.0598,-1.0168,-1.0038,-0.9994,-0.9994,-0.9994,-0.9994,-0.9994,-0.9994,-1.0125,-1.0598,-1.0684,-1.0819,-1.1219,-1.1305,-1.1305,-1.1305,-1.1305,-1.1305,-1.1305,-1.1305,-1.1219,-1.1008,-1.0824,-1.0598,-1.0337,-1.0125,-0.9994,-0.9994,-0.9994,-0.9994,-0.9994,-0.9994,-0.9994,-0.9994,-0.9994,-0.9994,-0.9994,-1.0164,-1.0381,-1.0684,-1.0868,-1.1325,-1.1971,-1.2203,-1.2209,-1.2071,-1.275,-1.3076,-1.3115,-1.3295,-1.3366,-1.3394,-1.3443,-1.3443,-1.3491,-1.401,-1.425,-1.4418,-1.5331,-1.6196,-1.6966,-0.9579,-0.9579,-0.9809,-1.0458,-1.065,-1.0899,-1.1564,-1.1865,-1.1954,-1.1831,-1.1742,-1.1642,-1.1529,-1.1326,-1.1149,-1.0998,-1.085,-1.0654,-1.0364,-1.0216,-1.0117,-0.9969,-0.9969,-1.0068,-1.0364,-1.0511,-1.0703,-1.1002,-1.1145,-1.1389,-1.1785,-1.1932,-1.2224,-1.2565,-1.2716,-1.2813,-1.2813,-1.2813,-1.2861,-1.291,-1.291,-1.2698,-1.2376,-1.2281,-1.1928,-1.1482,-1.1354,-1.1305,-1.1305,-1.1305,-1.1305,-1.1262,-1.0959,-1.0776,-1.0641,-1.0255,-1.0081,-0.9994,-0.9994,-0.9994,-0.9994,-0.9994,-0.9994,-1.0125,-1.0598,-1.0684,-1.0819,-1.1219,-1.1305,-1.1305,-1.1305,-1.1305,-1.1305,-1.1305,-1.1305,-1.1267,-1.1181,-1.0911,-1.0554,-1.0164,-1.0038,-0.9994,-0.9994,-0.9994,-0.9994,-0.9994,-0.9994,-0.9994,-0.9994,-0.9994,-0.9994,-0.9994,-1.0207,-1.0424,-1.0684,-1.104,-1.1513,-1.211,-1.262,-1.279,-1.2745,-1.3155,-1.3368,-1.3374,-1.344,-1.3491,-1.3491,-1.3642,-1.3829,-1.3968,-1.4346,-1.4823,-1.535,-1.6444,-1.7056,-1.7452]},{"header":{"parameterUnit":"m.s-1","parameterCategory":1,"la1":30.6,"la2":28.766,"lo1":-90.7593,"lo2":-88.6598,"dy":0.0162,"dx":0.0183,"nx":116,"ny":114,"refTime":"2023-06-05T00:00:00:Z","depth":0,"parameterNumber":3,"parameterNumberName":"V-component_of_WINDS"},"data":[0.0,0.0,0.0,0.0,0.0,0.0,0.0,0.0,0.0,0.0,0.0,0.0,0.0,0.0,0.0,0.0,0.0,0.0,0.0,0.0,0.0,0.0,0.0,0.0,0.0,0.0,0.0,0.0,0.0,0.0,0.0,0.0,0.0,0.0,0.0,0.0,0.0,0.0,0.0,0.0,0.0,0.0,0.0,0.0,0.0,0.0,0.0,0.0,0.0,0.0,0.0,0.0,0.0,0.0,0.0,0.0,0.0,0.0,0.0,0.0,0.0,0.0,0.0,0.0,0.0,0.0,0.0,0.0,0.0,0.0,0.0,0.0,0.0,0.0,0.0,0.0,0.0,0.0,0.0,0.0,0.0,0.0,0.0,0.0,0.0,0.0,0.0,0.0,0.0,0.0,0.0,0.0,0.0,0.0,0.0,0.0,0.0,0.0,0.0,0.0,0.0,0.0,0.0,0.0,0.0,0.0,0.0,0.0,0.0,0.0,0.0,0.0,0.0,0.0,0.0,0.0,0.0,0.0,0.0,0.0,0.0,0.0,0.0,0.0,0.0,0.0,0.0,0.0,0.0,0.0,0.0,0.0,0.0,0.0,0.0,0.0,0.0,0.0,0.0,0.0,0.0,0.0,0.0,0.0,0.0,0.0,0.0,0.0,0.0,0.0,0.0,0.0,0.0,0.0,0.0,0.0,0.0,0.0,0.0,0.0,0.0,0.0,0.0,0.0,0.0,0.0,0.0,0.0,0.0,0.0,0.0,0.0,0.0,0.0,0.0,0.0,0.0,0.0,0.0,0.0,0.0,0.0,0.0,0.0,0.0,0.0,0.0,0.0,0.0,0.0,0.0,0.0,0.0,0.0,0.0,0.0,0.0,0.0,0.0,0.0,0.0,0.0,0.0,0.0,0.0,0.0,0.0,0.0,0.0,0.0,0.0,0.0,0.0,0.0,0.0,0.0,0.0,0.0,0.0,0.0,0.0,0.0,0.0,0.0,0.0,0.0,0.0,0.0,0.0,0.0,0.0,0.0,0.0,0.0,0.0,0.0,0.0,0.0,0.0,0.0,0.0,0.0,0.0,0.0,0.0,0.0,0.0,0.0,0.0,0.0,0.0,0.0,0.0,0.0,0.0,0.0,0.0,0.0,0.0,0.0,0.0,0.0,0.0,0.0,0.0,0.0,0.0,0.0,0.0,0.0,0.0,0.0,0.0,0.0,0.0,0.0,0.0,0.0,0.0,0.0,0.0,0.0,0.0,0.0,0.0,0.0,0.0,0.0,0.0,0.0,0.0,0.0,0.0,0.0,0.0,0.0,0.0,0.0,0.0,0.0,0.0,0.0,0.0,0.0,0.0,0.0,0.0,0.0,0.0,0.0,0.0,0.0,0.0,0.0,0.0,0.0,0.0,0.0,0.0,0.0,0.0,0.0,0.0,0.0,0.0,0.0,0.0,0.0,0.0,0.0,0.0,0.0,0.0,0.0,0.0,0.0,0.0,0.0,0.0,0.0,0.0,0.0,0.0,0.0,0.0,0.0,0.0,0.0,0.0,0.0,0.0,0.0,0.0,0.0,0.0,0.0,0.0,0.0,0.0,0.0,0.0,0.0,0.0,0.0,0.0,0.0,0.0,0.0,0.0,0.0,0.0,0.0,0.0,0.0,0.0,0.0,0.0,0.0,0.0,0.0,0.0,0.0,0.0,0.0,0.0,0.0,0.0,0.0,0.0,0.0,0.0,0.0,0.0,0.0,0.0,0.0,0.0,0.0,0.0,0.0,0.0,0.0,0.0,0.0,0.0,0.0,0.0,0.0,0.0,0.0,0.0,0.0,0.0,0.0,0.0,0.0,0.0,0.0,0.0,0.0,0.0,0.0,0.0,0.0,0.0,0.0,0.0,0.0,0.0,0.0,0.0,0.0,0.0,0.0,0.0,0.0,0.0,0.0,0.0,0.0,0.0,0.0,0.0,0.0,0.0,0.0,0.0,0.0,0.0,0.0,0.0,0.0,0.0,0.0,0.0,0.0,0.0,0.0,0.0,0.0,0.0,0.0,0.0,0.0,0.0,0.0,0.0,0.0,0.0,0.0,0.0,0.0,0.0,0.0,0.0,0.0,0.0,0.0,0.0,0.0,0.0,0.0,0.0,0.0,0.0,0.0,0.0,0.0,0.0,0.0,0.0,0.0,0.0,0.0,0.0,0.0,0.0,0.0,0.0,0.0,0.0,0.0,0.0,0.0,0.0,0.0,0.0,0.0,0.0,0.0,0.0,0.0,0.0,0.0,0.0,0.0,0.0,0.0,0.0,0.0,0.0,0.0,0.0,0.0,0.0,0.0,0.0,0.0,0.0,0.0,0.0,0.0,0.0,0.0,0.0,0.0,0.0,0.0,0.0,0.0,0.0,0.0,0.0,0.0,0.0,0.0,0.0,0.0,0.0,0.0,0.0,0.0,0.0,0.0,0.0,0.0,0.0,0.0,0.0,0.0,0.0,0.0,0.0,0.0,0.0,0.0,0.0,0.0,0.0,0.0,0.0,0.0,0.0,0.0,0.0,0.0,0.0,0.0,0.0,0.0,0.0,0.0,0.0,0.0,0.0,0.0,0.0,0.0,0.0,0.0,0.0,0.0,0.0,0.0,0.0,0.0,0.0,0.0,0.0,0.0,0.0,0.0,0.0,0.0,0.0,0.0,0.0,0.0,0.0,0.0,0.0,0.0,0.0,0.0,0.0,0.0,0.0,0.0,0.0,0.0,0.0,0.0,0.0,0.0,0.0,0.0,0.0,0.0,0.0,0.0,0.0,0.0,0.0,0.0,0.0,0.0,0.0,0.0,0.0,0.0,0.0,0.0,0.0,0.0,0.0,0.0,0.0,0.0,0.0,0.0,0.0,0.0,0.0,0.0,0.0,0.0,0.0,0.0,0.0,0.0,0.0,0.0,0.0,0.0,0.0,0.0,0.0,0.0,0.0,0.0,0.0,0.0,0.0,0.0,0.0,0.0,0.0,0.0,0.0,0.0,0.0,0.0,0.0,0.0,0.0,0.0,0.0,0.0,0.0,0.0,0.0,0.0,0.0,0.0,0.0,0.0,0.0,0.0,0.0,0.0,0.0,0.0,0.0,0.0,0.0,0.0,0.0,0.0,0.0,0.0,0.0,0.0,0.0,0.0,0.0,0.0,0.0,0.0,0.0,0.0,0.0,0.0,0.0,0.0,0.0,0.0,0.0,0.0,0.0,0.0,0.0,0.0,0.0,0.0,0.0,0.0,0.0,0.0,0.0,0.0,0.0,0.0,0.0,0.0,0.0,0.0,0.0,0.0,0.0,0.0,0.0,0.0,0.0,0.0,0.0,0.0,0.0,0.0,0.0,0.0,0.0,0.0,0.0,0.0,0.0,0.0,0.0,0.0,0.0,0.0,0.0,0.0,0.0,0.0,0.0,0.0,0.0,0.0,0.0,0.0,0.0,0.0,0.0,0.0,0.0,0.0,0.0,0.0,0.0,0.0,0.0,0.0,0.0,0.0,0.0,0.0,0.0,0.0,0.0,0.0,0.0,0.0,0.0,0.0,0.0,0.0,0.0,0.0,0.0,0.0,0.0,0.0,0.0,0.0,0.0,0.0,0.0,0.0,0.0,0.0,0.0,0.0,0.0,0.0,0.0,0.0,0.0,0.0,0.0,0.0,0.0,0.0,0.0,0.0,0.0,0.0,0.0,0.0,0.0,0.0,0.0,0.0,0.0,0.0,0.0,0.0,0.0,0.0,0.0,0.0,0.0,0.0,0.0,0.0,0.0,0.0,0.0,0.0,0.0,0.0,0.0,0.0,0.0,0.0,0.0,0.0,0.0,0.0,0.0,0.0,0.0,0.0,0.0,0.0,0.0,0.0,0.0,0.0,0.0,0.0,0.0,0.0,0.0,0.0,0.0,0.0,0.0,0.0,0.0,0.0,0.0,0.0,0.0,0.0,0.0,0.0,0.0,0.0,0.0,0.0,0.0,0.0,0.0,0.0,0.0,0.0,0.0,0.0,0.0,0.0,0.0,0.0,0.0,0.0,0.0,0.0,0.0,0.0,0.0,0.0,0.0,0.0,0.0,0.0,0.0,0.0,0.0,0.0,0.0,0.0,0.0,0.0,0.0,0.0,0.0,0.0,0.0,0.0,0.0,0.0,0.0,0.0,0.0,0.0,0.0,0.0,0.0,0.0,0.0,0.0,0.0,0.0,0.0,0.0,0.0,0.0,0.0,0.0,0.0,0.0,0.0,0.0,0.0,0.0,0.0,0.0,0.0,0.0,0.0,0.0,0.0,0.0,0.0,0.0,0.0,0.0,0.0,0.0,0.0,0.0,0.0,0.0,0.0,0.0,0.0,0.0,0.0,0.0,0.0,0.0,0.0,0.0,0.0,0.0,0.0,0.0,0.0,0.0,0.0,0.0,0.0,0.0,0.0,0.0,0.0,0.0,0.0,0.0,0.0,0.0,0.0,0.0,0.0,0.0,0.0,0.0,0.0,0.0,0.0,0.0,0.0,0.0,0.0,0.0,0.0,0.0,0.0,0.0,0.0,0.0,0.0,0.0,0.0,0.0,0.0,0.0,0.0,0.0,0.0,0.0,0.0,0.0,0.0,0.0,0.0,0.0,0.0,0.0,0.0,0.0,0.0,0.0,0.0,0.0,0.0,0.0,0.0,0.0,0.0,0.0,0.0,0.0,0.0,0.0,0.0,0.0,0.0,0.0,0.0,0.0,0.0,0.0,0.0,0.0,0.0,0.0,0.0,0.0,0.0,0.0,0.0,0.0,0.0,0.0,0.0,0.0,0.0,0.0,0.0,0.0,0.0,0.0,0.0,0.0,0.0,0.0,0.0,0.0,0.0,0.0,0.0,0.0,0.0,0.0,0.0,0.0,0.0,0.0,0.0,0.0,0.0,0.0,0.0,0.0,0.0,0.0,0.0,0.0,0.0,0.0,0.0,0.0,0.0,0.0,0.0,0.0,0.0,0.0,0.0,0.0,0.0,0.0,0.0,0.0,0.0,0.0,0.0,0.0,0.0,0.0,0.0,0.0,0.0,0.0,0.0,0.0,0.0,0.0,0.0,0.0,0.0,0.0,0.0,0.0,0.0,0.0,0.0,0.0,0.0,0.0,0.0,0.0,0.0,0.0,0.0,0.0,0.0,0.0,0.0,0.0,0.0,0.0,0.0,0.0,0.0,0.0,0.0,0.0,0.0,0.0,0.0,0.0,0.0,0.0,0.0,0.0,0.0,0.0,0.0,0.0,0.0,0.0,0.0,0.0,0.0,0.0,0.0,0.0,0.0,0.0,0.0,0.0,0.0,0.0,0.0,0.0,0.0,0.0,0.0,0.0,0.0,0.0,0.0,0.0,0.0,0.0,0.0,0.0,0.0,0.0,0.0,0.0,0.0,0.0,0.0,0.0,0.0,0.0,0.0,0.0,0.0,0.0,0.0,0.0,0.0,0.0,0.0,0.0,0.0,0.0,0.0,0.0,0.0,0.0,0.0,0.0,0.0,0.0,0.0,0.0,0.0,0.0,0.0,0.0,0.0,0.0,0.0,0.0,0.0,0.0,0.0,0.0,0.0,0.0,0.0,0.0,0.0,0.0,0.0,0.0,0.0,0.0,0.0,0.0,0.0,0.0,0.0,0.0,0.0,0.0,0.0,0.0,0.0,0.0,0.0,0.0,0.0,0.0,0.0,0.0,0.0,0.0,0.0,0.0,0.0,0.0,0.0,0.0,0.0,0.0,0.0,0.0,0.0,0.0,0.0,0.0,0.0,0.0,0.0,0.0,0.0,0.0,0.0,0.0,0.0,0.0,0.0,0.0,0.0,0.0,0.0,0.0,0.0,0.0,0.0,0.0,0.0,0.0,0.0,0.0,0.0,0.0,0.0,0.0,0.0,0.0,0.0,0.0,0.0,0.0,0.0,0.0,0.0,0.0,0.0,0.0,0.0,0.0,0.0,0.0,0.0,0.0,0.0,0.0,0.0,0.0,0.0,0.0,0.0,0.0,0.0,0.0,0.0,0.0,0.0,0.0,0.0,0.0,0.0,0.0,0.0,0.0,0.0,0.0,0.0,0.0,0.0,0.0,0.0,0.0,1.7317,0.0,0.0,0.0,0.0,0.0,0.0,0.0,0.0,0.0,0.0,0.0,0.0,0.0,0.0,0.0,0.0,0.0,0.0,0.0,0.0,0.0,0.0,0.0,0.0,0.0,0.0,0.0,0.0,0.0,0.0,0.0,0.0,0.0,0.0,0.0,0.0,0.0,0.0,1.7891,1.8324,1.919,2.0447,2.0453,1.9991,1.9218,0.0,0.0,0.0,0.0,0.0,0.0,0.0,0.0,0.0,0.0,0.0,0.0,0.0,0.0,0.0,0.0,0.0,0.0,0.0,0.0,0.0,0.0,0.0,0.0,0.0,0.0,0.0,0.0,0.0,0.0,0.0,0.0,0.0,0.0,0.0,0.0,0.0,0.0,0.0,0.0,0.0,0.0,0.0,0.0,0.0,0.0,0.0,0.0,0.0,0.0,0.0,0.0,0.0,0.0,0.0,0.0,0.0,0.0,0.0,0.0,0.0,0.0,0.0,0.0,0.0,0.0,0.0,0.0,0.0,0.0,0.0,1.7908,0.0,0.0,0.0,0.0,0.0,0.0,0.0,0.0,0.0,0.0,0.0,0.0,0.0,0.0,0.0,0.0,0.0,0.0,0.0,0.0,0.0,0.0,0.0,1.2518,1.3029,1.3238,1.4052,1.455,0.0,0.0,0.0,0.0,0.0,0.0,1.6922,1.774,1.8578,1.9421,1.9723,2.0611,2.2045,2.2753,2.2323,2.0953,2.1006,0.0,0.0,0.0,0.0,0.0,0.0,0.0,0.0,0.0,0.0,0.0,0.0,0.0,0.0,0.0,0.0,0.0,0.0,0.0,0.0,0.0,0.0,0.0,0.0,0.0,0.0,0.0,0.0,0.0,0.0,0.0,0.0,0.0,0.0,0.0,0.0,0.0,0.0,0.0,0.0,0.0,0.0,0.0,0.0,0.0,0.0,0.0,0.0,0.0,0.0,0.0,0.0,0.0,0.0,0.0,0.0,0.0,0.0,0.0,0.0,0.0,0.0,0.0,0.0,2.2967,2.2948,2.2948,2.292,2.2717,1.9931,1.8761,1.8791,0.0,0.0,0.0,0.0,0.0,0.0,0.0,0.0,0.0,0.0,0.0,0.0,0.0,0.0,0.0,0.0,0.0,0.0,0.0,0.0,0.0,0.0,1.3806,1.4213,1.498,1.5852,1.6369,1.6354,0.0,0.0,0.0,0.0,0.0,1.7825,1.8662,1.9502,2.0324,2.1832,2.2695,2.293,2.3056,2.2981,2.2766,2.2768,2.277,2.277,0.0,0.0,0.0,0.0,0.0,0.0,0.0,0.0,0.0,0.0,0.0,0.0,0.0,0.0,0.0,0.0,0.0,0.0,0.0,0.0,0.0,0.0,0.0,0.0,0.0,0.0,0.0,0.0,0.0,0.0,0.0,0.0,0.0,0.0,0.0,0.0,0.0,0.0,0.0,0.0,0.0,1.7488,1.761,0.0,0.0,0.0,0.0,0.0,0.0,0.0,0.0,0.0,0.0,0.0,0.0,0.0,0.0,2.2749,2.2749,2.2788,2.2826,2.2829,2.2798,2.2731,2.2733,2.272,2.2701,2.2256,0.0,2.2321,2.2323,0.0,0.0,0.0,0.0,0.0,0.0,0.0,0.0,0.0,0.0,0.0,0.0,0.0,0.0,0.0,0.0,0.0,0.0,0.0,0.0,0.0,1.5247,1.5903,1.6788,1.7206,1.7426,1.7426,1.7798,0.0,0.0,0.0,1.8952,1.9443,2.0281,2.1123,2.1967,2.3706,2.4565,2.4585,2.5563,2.6013,2.6014,2.6015,2.4922,2.3104,2.3105,0.0,0.0,0.0,0.0,0.0,0.0,0.0,0.0,0.0,0.0,0.0,0.0,0.0,0.0,0.0,0.0,0.0,0.0,0.0,0.0,0.0,0.0,0.0,0.0,0.0,0.0,0.0,0.0,0.0,0.0,0.0,0.0,0.0,0.0,0.0,0.0,0.0,0.0,0.0,1.7962,1.8534,1.8583,1.8996,1.9295,0.0,0.0,0.0,0.0,0.0,0.0,0.0,0.0,0.0,2.2882,2.2893,2.3069,2.345,2.3906,2.4351,2.4771,2.5236,2.5432,2.5409,2.5397,2.541,2.5372,2.4925,2.4763,2.475,2.3423,2.2446,2.1755,0.0,0.0,0.0,0.0,0.0,2.0631,0.0,0.0,0.0,0.0,0.0,0.0,0.0,0.0,0.0,0.0,0.0,0.0,1.5634,1.6503,1.7292,1.7941,1.8198,1.8336,1.8336,1.8532,1.8766,1.8981,1.9606,2.0349,2.1229,2.2264,2.3125,2.3769,2.5508,2.6367,2.6387,2.7695,2.8301,2.8301,2.8299,2.6737,2.4101,2.4101,2.3867,2.3457,0.0,0.0,0.0,0.0,0.0,0.0,0.0,0.0,0.0,0.0,0.0,0.0,0.0,0.0,0.0,0.0,0.0,0.0,0.0,0.0,0.0,0.0,0.0,0.0,0.0,0.0,0.0,0.0,0.0,0.0,0.0,0.0,0.0,0.0,0.0,0.0,0.0,1.8902,1.9566,1.9834,2.0398,2.0863,0.0,0.0,0.0,0.0,0.0,0.0,2.3244,2.3403,2.3556,2.369,2.3907,2.4244,2.4734,2.5335,2.592,2.6484,2.7096,2.7377,2.7366,2.7366,2.7366,2.7347,2.6737,2.6479,2.6318,2.423,2.326,2.3067,2.3069,2.2923,2.2746,2.2737,2.2719,2.2705,0.0,0.0,0.0,0.0,0.0,0.0,0.0,0.0,0.0,0.0,0.0,1.5662,1.6533,1.7418,1.7948,1.8008,1.8769,1.9238,1.9238,2.0019,2.084,2.168,2.1679,2.2088,2.2967,2.4644,2.5521,2.558,2.7314,2.8174,2.8178,2.8254,2.8291,2.8291,2.829,2.7748,2.6796,2.6796,2.5859,2.4336,2.4296,0.0,0.0,0.0,0.0,0.0,0.0,0.0,0.0,0.0,0.0,0.0,0.0,0.0,0.0,0.0,0.0,0.0,0.0,0.0,0.0,0.0,0.0,0.0,0.0,0.0,0.0,0.0,0.0,0.0,0.0,0.0,0.0,0.0,0.0,0.0,0.0,0.0,0.0,2.1564,2.1695,0.0,0.0,0.0,0.0,2.2857,2.2835,2.3208,2.3995,2.472,2.5405,2.6094,2.6873,2.7193,2.7039,2.7075,2.705,2.6978,2.7015,2.7035,2.7036,2.7036,2.7036,2.7018,2.698,2.6961,2.6854,2.5523,2.4503,2.3753,2.3744,2.3272,2.2607,2.2546,2.2523,2.2492,0.0,0.0,0.0,0.0,0.0,0.0,0.0,0.0,1.2726,1.3947,1.5356,1.6579,1.7441,1.8279,1.9212,2.0357,2.0728,2.1157,2.1703,2.2035,2.2348,2.266,2.2657,2.3298,2.4679,2.5863,2.6755,2.7319,2.8496,2.9068,2.9075,2.9659,2.9913,2.9913,2.9907,2.9419,2.8566,2.8055,2.7144,2.6014,2.5469,2.4531,0.0,0.0,0.0,0.0,0.0,0.0,0.0,0.0,0.0,0.0,0.0,0.0,0.0,0.0,0.0,0.0,0.0,0.0,0.0,0.0,0.0,0.0,0.0,0.0,0.0,0.0,0.0,0.0,0.0,0.0,0.0,0.0,0.0,0.0,0.0,0.0,0.0,2.2478,2.2563,0.0,0.0,2.2892,2.3297,2.43,2.4334,2.4873,2.616,2.6395,2.6569,2.6736,2.6992,2.704,2.6888,2.7428,2.766,2.7599,2.8091,2.8351,2.8359,2.8359,2.8359,2.8322,2.7801,2.7589,2.7498,2.6525,2.6055,2.5872,2.5355,2.4985,2.4657,2.4068,2.3824,2.3776,0.0,0.0,0.0,0.0,0.0,0.0,0.0,0.0,1.365,1.483,1.6248,1.746,1.8308,1.9411,2.0532,2.1671,2.2039,2.2449,2.3033,2.3072,2.3208,2.3481,2.4062,2.5029,2.6418,2.7291,2.8026,2.8607,2.9769,3.0346,3.0355,3.1215,3.1605,3.1605,3.1615,3.1147,3.0314,2.9776,2.8724,2.7353,2.648,2.5623,2.4746,0.0,0.0,0.0,0.0,0.0,0.0,0.0,0.0,0.0,0.0,0.0,0.0,0.0,0.0,0.0,0.0,0.0,0.0,0.0,0.0,0.0,0.0,0.0,0.0,0.0,0.0,0.0,0.0,0.0,0.0,0.0,0.0,0.0,0.0,0.0,2.2477,2.3279,2.3354,2.3533,2.4027,2.4006,2.4486,2.578,2.5793,2.616,2.7148,2.7353,2.7362,2.725,2.7404,2.745,2.7339,2.7897,2.8139,2.8093,2.8599,2.8849,2.8849,2.8849,2.8849,2.883,2.8295,2.8064,2.8038,2.7496,2.7379,2.7438,2.6498,2.6143,2.606,2.5448,2.5171,2.5051,0.0,0.0,0.0,0.0,0.0,0.0,1.2558,1.3502,1.4725,1.6463,1.746,1.8308,1.9118,2.0745,2.1784,2.1742,2.2537,2.3043,2.3062,2.3062,2.3453,2.4329,2.601,2.732,2.8116,2.8955,2.9421,2.9463,3.1169,3.2015,3.2052,3.2826,3.3191,3.3191,3.3191,3.2755,3.2033,3.2013,3.0614,2.8328,2.7443,2.6552,2.5677,0.0,0.0,0.0,0.0,0.0,0.0,0.0,0.0,0.0,0.0,0.0,0.0,0.0,0.0,0.0,0.0,0.0,0.0,0.0,0.0,0.0,0.0,0.0,0.0,0.0,0.0,0.0,0.0,0.0,0.0,0.0,0.0,0.0,2.1866,2.2459,2.3267,2.4073,2.413,2.4702,2.627,2.6295,2.6501,2.7178,2.7102,2.698,2.6869,2.754,2.7859,2.775,2.8353,2.8664,2.8612,2.8536,2.8453,2.837,2.837,2.837,2.837,2.837,2.837,2.837,2.837,2.837,2.837,2.837,2.837,2.8278,2.7075,2.6623,2.6612,2.6432,2.6344,2.6145,0.0,0.0,0.0,0.0,0.0,0.0,1.2635,1.3525,1.4723,1.6462,1.742,1.8223,1.9044,2.0632,2.1871,2.2458,2.3283,2.4072,2.4699,2.4737,2.5101,2.5928,2.7041,2.8012,2.8881,2.9137,2.9861,3.1137,3.1622,3.2173,3.2811,3.302,3.3136,3.3136,3.3136,3.3005,3.2757,3.2178,3.153,3.0798,2.9377,2.8288,2.7413,0.0,0.0,0.0,0.0,0.0,0.0,0.0,0.0,0.0,0.0,0.0,0.0,0.0,0.0,0.0,0.0,0.0,0.0,0.0,0.0,0.0,0.0,0.0,0.0,0.0,0.0,0.0,0.0,0.0,0.0,0.0,0.0,2.3537,2.3384,2.4011,2.4788,2.5524,2.6085,2.6536,2.6866,2.6787,2.6998,2.766,2.7545,2.7651,2.8143,2.8191,2.8399,2.8842,2.8434,2.8429,2.897,2.8368,2.8069,2.8041,2.8041,2.8041,2.8041,2.8041,2.8041,2.8041,2.8041,2.8041,2.8041,2.8041,2.8041,2.7976,2.7311,2.7043,2.6941,2.6231,2.5852,2.5671,0.0,0.0,0.0,0.0,0.0,0.0,1.2719,1.3853,1.5254,1.6973,1.7582,1.8306,1.9479,2.1076,2.223,2.2677,2.3813,2.4731,2.524,2.561,2.6346,2.7558,2.8096,2.8767,2.9638,3.0018,3.0709,3.1725,3.2453,3.3056,3.3569,3.3903,3.4058,3.4058,3.4058,3.389,3.3534,3.3097,3.2682,3.2255,3.0976,2.9766,2.8604,2.7816,2.6951,2.6097,2.5251,2.4375,2.3513,2.2646,0.0,0.0,0.0,0.0,0.0,0.0,0.0,0.0,0.0,0.0,0.0,0.0,0.0,0.0,0.0,0.0,0.0,0.0,0.0,0.0,0.0,0.0,0.0,0.0,2.4218,2.4803,2.5126,2.5329,2.5694,2.6412,2.6814,2.7119,2.7287,2.7196,2.7382,2.8027,2.8215,2.8443,2.8766,2.8941,2.9142,2.9455,2.8956,2.8877,2.932,2.85,2.8115,2.8115,2.7782,2.7624,2.7624,2.7624,2.7624,0.0,2.7624,2.7624,2.7624,2.7624,2.7592,0.0,0.0,0.0,0.0,0.0,2.636,2.6155,0.0,0.0,0.0,0.0,0.0,0.0,1.2781,1.4273,1.5993,1.7672,1.7833,1.8427,2.009,2.1633,2.2547,2.2578,2.4022,2.5003,2.5188,2.6014,2.7243,2.8874,2.9053,2.95,3.0394,3.1175,3.1648,3.186,3.3416,3.4223,3.4345,3.5044,3.5378,3.5385,3.5385,3.4994,3.4321,3.4295,3.3824,3.3043,3.2135,3.0948,2.9582,2.8673,2.7859,2.7064,2.6165,2.534,2.4528,2.3574,0.0,0.0,0.0,0.0,0.0,0.0,0.0,0.0,0.0,0.0,0.0,0.0,0.0,0.0,0.0,0.0,0.0,0.0,0.0,0.0,0.0,0.0,0.0,0.0,2.5493,2.6104,2.6773,2.6376,2.6258,2.6879,2.691,2.7111,2.7717,2.7653,2.7825,2.8416,2.9002,2.9222,2.8963,0.0,0.0,0.0,0.0,2.9558,2.9644,2.8852,2.8405,2.8319,2.7614,2.7219,2.7149,2.7149,2.7149,2.7149,2.7149,2.7149,2.7149,2.7149,2.7101,2.7053,2.7459,2.7609,2.7582,2.7386,2.723,0.0,0.0,0.0,0.0,0.0,0.0,0.0,1.2787,1.4277,1.5982,1.7617,1.7757,1.8335,1.9956,2.0947,2.1749,2.2374,2.3329,2.4444,2.5735,2.668,2.765,2.8635,2.9357,3.016,3.1081,3.1272,3.2046,3.3463,3.3788,3.4347,3.5094,3.5247,3.5327,3.5319,3.5319,3.5223,3.5057,3.4421,3.4031,3.3756,3.2242,3.1549,3.1251,2.9732,2.9051,2.8715,2.7217,2.6555,2.6183,2.4655,2.4155,2.4002,2.3124,2.2363,0.0,0.0,0.0,0.0,0.0,0.0,0.0,0.0,0.0,0.0,0.0,0.0,0.0,0.0,0.0,0.0,0.0,0.0,0.0,2.6199,2.6336,2.6531,2.718,2.7012,2.6922,2.726,2.7713,2.8219,2.8758,2.8689,2.8865,2.9457,2.9525,2.9483,2.9315,2.9334,0.0,3.0096,2.9408,2.932,2.9932,2.9166,2.8488,2.7912,0.0,0.0,2.6791,2.6791,2.6791,2.6791,2.6791,2.6791,2.6791,2.6791,2.6691,2.6573,2.6972,2.7069,2.6955,2.6874,2.6725,2.6522,0.0,0.0,0.0,0.0,0.0,0.0,1.2796,1.4277,1.5838,1.7033,1.7457,1.8106,1.9269,2.041,2.1406,2.2182,2.3326,2.4548,2.5809,2.6752,2.7612,2.8457,2.9329,3.0229,3.1137,3.1581,3.2458,3.3809,3.4245,3.4689,3.5143,3.5187,3.5204,3.5209,3.5209,3.5209,3.5171,3.4764,3.4588,3.45,3.3255,3.2577,3.2129,3.055,2.9695,2.9239,2.8401,2.7551,2.6722,2.5886,2.532,2.4847,2.3972,2.3391,2.2964,0.0,0.0,0.0,0.0,0.0,0.0,0.0,0.0,0.0,0.0,0.0,0.0,0.0,0.0,2.4528,0.0,0.0,2.5921,2.6946,2.6902,2.6965,2.7564,2.7761,2.7798,2.766,2.8182,2.8594,2.8679,2.8971,2.9224,2.9386,2.9712,2.9845,2.9665,2.9929,3.0243,3.0535,3.0143,3.007,3.046,2.97,2.911,2.874,2.8387,2.8017,2.7647,2.7612,2.7594,2.7594,2.754,2.7504,2.747,2.7067,2.6845,2.674,2.6533,2.6469,2.6504,2.6469,2.633,2.6136,0.0,0.0,0.0,0.0,0.0,0.0,0.0,1.4277,1.5679,1.6475,1.7038,1.7692,1.8588,1.9773,2.0937,2.1943,2.3312,2.4585,2.566,2.6562,2.7401,2.8278,2.9167,3.0039,3.0922,3.1808,3.2732,3.3658,3.4529,3.4955,3.4955,3.5011,3.5057,3.5066,3.5066,3.5066,3.5066,3.5063,3.5062,3.4985,3.4009,3.3222,3.25,3.0989,3.0025,2.9491,2.9311,2.8291,2.7001,2.6792,2.6214,2.5418,2.4724,2.4377,2.4102,2.3392,2.3068,0.0,0.0,0.0,0.0,0.0,0.0,0.0,0.0,0.0,2.447,2.5054,2.5591,2.6153,2.6807,2.6799,2.687,2.7441,2.7469,2.7566,2.7982,2.8472,2.8624,2.816,2.8561,2.8807,2.8647,2.9127,2.9431,2.9348,2.992,3.0179,3.002,3.0557,3.0834,3.077,3.0753,3.0753,3.0753,3.0112,2.9729,2.9579,2.8993,2.8608,2.8474,2.8434,2.8395,2.8395,2.8298,2.8243,2.819,2.752,2.7134,2.6934,2.6267,2.603,2.6026,2.6063,2.5954,2.5789,0.0,0.0,0.0,0.0,0.0,0.0,0.0,0.0,1.5678,1.6409,1.6521,1.7053,1.8466,1.8704,1.9597,2.1654,2.2643,2.3823,2.5437,2.6289,2.7133,2.8017,2.8935,2.9846,3.0701,3.164,3.2584,3.3514,3.4333,3.4761,3.4831,3.4831,3.486,3.4927,3.4927,3.4927,3.4927,3.4908,3.4917,3.4784,3.321,3.2553,3.2338,3.0689,3.0143,3.0177,2.9407,2.8548,2.7658,2.68,2.5999,2.5318,2.5219,2.4659,2.401,2.3912,2.3347,2.2707,2.259,2.2505,2.2627,2.3328,2.3956,2.4573,0.0,0.0,2.646,2.6478,2.65,2.6688,2.7237,2.7176,2.7266,2.791,2.8306,2.8524,2.8533,2.8869,2.9092,2.8902,2.904,2.9329,2.9756,2.9722,2.9903,3.0473,3.0468,3.0431,3.0348,3.0431,3.0417,3.0274,3.0274,3.0274,3.0274,3.0192,2.9831,2.9169,2.9071,2.8693,2.807,2.807,2.805,2.805,2.803,2.803,2.803,2.7809,2.7302,2.6639,2.6496,2.6015,2.5413,2.56,2.5581,2.5451,0.0,0.0,0.0,0.0,0.0,0.0,0.0,0.0,0.0,1.5707,1.6152,1.6613,1.7146,1.8334,1.9603,2.0927,2.2208,2.3217,2.3895,2.5192,2.6319,2.7151,2.8085,2.9227,3.0605,3.1036,3.1688,3.2637,3.2995,3.345,3.3943,3.3973,3.4239,3.473,3.473,3.473,3.4693,3.427,3.4091,3.3978,3.2808,3.2079,3.1605,3.0858,3.007,2.9298,2.9039,2.8377,0.0,2.6637,2.5751,2.5063,2.5077,2.4822,2.4519,2.447,2.4169,2.3828,2.3646,2.3896,2.4265,2.4478,2.5087,2.5717,2.5969,2.6237,2.6538,2.6913,2.6914,2.7025,2.7635,2.758,2.7657,0.0,2.8401,2.8506,2.8853,2.9237,2.9416,2.9247,2.9627,2.9844,2.9671,2.9935,3.0195,3.0405,3.0359,3.0316,3.029,3.0274,3.0253,3.0189,3.0189,3.0189,3.0189,3.0189,3.0041,2.9747,2.9747,2.9583,2.9288,2.9205,2.91,2.8994,2.8994,2.8946,2.8834,2.8356,2.7959,2.7612,2.7201,2.6766,2.6333,2.5676,2.5336,2.5224,0.0,0.0,0.0,0.0,0.0,0.0,0.0,0.0,0.0,0.0,1.5748,1.6094,1.6165,1.7974,1.946,2.0105,2.143,2.2401,2.2803,2.4215,2.5401,2.6229,2.7151,2.8342,2.9823,3.0115,3.0692,3.1619,3.1896,3.235,3.2941,3.2983,3.3312,3.3875,3.3875,3.3875,3.3856,3.3306,3.3083,3.3008,3.2193,3.1525,3.096,3.0424,2.9502,2.8512,2.863,2.7987,2.6953,2.6287,2.5508,2.4788,2.4745,2.473,2.4715,2.4629,2.4551,2.4501,2.4533,2.4911,2.5311,2.5363,2.5943,2.6486,2.6381,2.6525,2.68,2.7274,2.7281,2.7338,2.778,2.7698,2.7751,2.836,2.8424,2.8612,2.9216,2.966,2.9876,2.9715,3.005,3.0082,2.956,2.9946,3.0194,3.0103,3.006,3.0076,3.0076,3.0098,3.0119,3.0119,3.0119,3.0119,3.0119,3.0119,3.0119,3.0119,3.0119,3.0119,3.0103,2.9989,2.9814,2.9653,2.9653,2.9586,2.9464,2.8882,2.8547,2.8317,2.7801,2.7418,2.7052,2.6134,2.5604,2.5322,0.0,0.0,0.0,0.0,0.0,0.0,0.0,0.0,0.0,0.0,0.0,0.0,0.0,1.7494,1.8677,1.9275,2.0089,2.1238,2.2785,2.3673,2.4526,2.5393,2.6262,2.713,2.7966,2.8878,2.9771,3.0652,3.1488,3.1944,3.2035,3.2046,3.2064,3.2083,3.2083,3.2083,3.2083,3.2064,3.2046,3.1971,3.109,3.0773,3.0623,2.8921,2.8259,2.8222,2.836,2.7351,2.5914,2.5764,2.5181,2.4485,2.4362,2.4309,2.4301,2.4164,2.4029,2.4052,2.4701,2.4854,2.4985,2.5625,2.6292,2.6788,2.6788,2.7333,2.7844,2.7779,2.7739,2.7654,2.7539,2.7355,2.7407,2.8015,2.854,2.9104,2.9784,3.0212,3.0456,3.0472,3.0194,2.9957,0.0,2.9815,2.9832,2.9815,2.9754,2.972,2.972,2.9852,2.9902,2.9902,2.9902,2.9902,2.9902,2.9902,2.9902,2.9902,2.9902,2.9902,2.9902,2.9786,2.963,2.9496,2.9496,2.9496,2.9496,2.9335,2.8891,2.8303,2.8145,2.7668,2.7099,2.7051,2.6593,2.5862,0.0,0.0,0.0,0.0,0.0,0.0,0.0,0.0,0.0,0.0,0.0,0.0,0.0,0.0,0.0,0.0,1.9335,2.0205,2.1231,2.2054,2.3116,2.4481,2.486,2.569,2.7074,2.7411,2.775,2.8091,2.8946,2.9686,3.0277,3.0817,3.1357,3.1879,3.1879,3.1879,3.1842,3.1352,3.1139,3.1065,3.0178,2.9536,2.9005,2.8366,2.7425,2.6394,0.0,2.6042,2.5531,2.4866,2.4432,2.4144,2.4011,2.3913,2.3793,2.3628,2.3871,2.4248,2.4339,2.5112,2.5895,2.603,2.6635,2.7183,2.7091,2.7252,2.7428,2.7415,2.7353,2.726,2.7184,2.7006,2.7233,2.8366,2.8605,2.9023,3.0139,3.0315,3.0274,3.0189,2.9946,0.0,0.0,0.0,0.0,2.9614,2.957,2.9608,2.9697,2.9742,2.9808,2.9896,2.9896,2.9896,2.9896,2.9896,2.9896,2.9896,2.9808,2.9764,2.9764,2.963,2.948,2.9366,2.9366,2.9321,2.9229,2.9206,2.9041,2.8835,2.8774,2.8563,2.8227,2.7787,2.7428,2.7049,0.0,0.0,0.0,0.0,0.0,0.0,0.0,0.0,0.0,0.0,0.0,0.0,0.0,0.0,0.0,0.0,0.0,1.9375,2.0134,2.0909,2.193,2.3254,2.3364,2.4146,2.5805,2.5862,2.6178,2.6791,2.7395,2.7963,2.8523,2.9043,2.9545,3.0047,3.0026,3.0015,2.9978,2.9506,2.9312,2.9256,2.8699,2.816,2.7659,2.729,2.6435,0.0,2.4935,2.4797,2.4766,2.4172,2.3907,2.3831,2.3635,2.3468,2.333,2.345,2.3806,2.4235,2.4583,2.5409,2.6191,2.6344,2.6774,2.7135,2.7037,2.7021,2.7021,2.7021,2.6973,2.6908,2.6859,2.6725,2.701,2.8131,2.8381,2.881,2.9918,3.0089,3.0098,3.0017,2.9858,2.9742,0.0,0.0,0.0,2.9434,2.9434,2.948,2.963,2.9675,2.9764,2.9896,2.9896,2.9896,2.9896,2.9896,2.9874,2.983,2.9742,2.9637,2.9547,2.9457,2.9366,2.9236,2.9236,2.9167,2.9098,2.9098,2.9075,2.9029,2.9029,2.8959,2.8818,2.8372,2.8154,2.7968,0.0,0.0,0.0,0.0,0.0,0.0,0.0,0.0,0.0,0.0,0.0,0.0,0.0,0.0,0.0,0.0,0.0,0.0,1.9427,2.0174,2.0933,2.1747,2.1818,2.2577,2.4146,2.4247,2.5014,2.6551,2.6711,2.6776,2.6776,2.6851,2.6907,2.6907,2.6821,2.6791,2.681,2.6807,2.6806,2.6806,2.6806,2.6759,2.6638,2.5745,2.5356,2.5187,2.4169,2.3753,2.3671,2.3682,2.3634,2.3515,2.3247,2.3012,2.2954,2.3581,2.3787,2.4061,2.5329,2.5706,2.5893,2.6522,2.6674,2.6674,2.6674,2.6674,2.6674,2.6674,2.664,2.6572,2.6572,2.652,2.6667,2.7276,2.7895,2.8524,2.9185,2.9704,2.9995,0.0,0.0,0.0,0.0,0.0,0.0,2.9328,0.0,2.935,2.9496,2.963,2.9764,2.9896,2.9896,2.9896,2.9896,2.9896,2.983,2.9697,2.9697,2.9547,2.9305,2.9305,2.9213,2.9098,2.9098,2.9098,2.9098,2.9098,2.9013,2.8904,2.8904,2.8842,2.8794,2.8794,2.8794,2.8607,0.0,0.0,0.0,0.0,0.0,0.0,0.0,0.0,0.0,0.0,0.0,0.0,0.0,0.0,0.0,0.0,0.0,0.0,1.7847,1.8572,1.934,2.0147,2.0756,2.1522,2.249,2.2535,2.2747,2.3154,2.4412,2.5059,2.515,2.633,2.6907,2.6907,2.6869,2.6859,2.6791,2.68,2.6799,2.6806,2.6747,2.6338,2.5727,2.5436,2.4858,2.4169,2.384,2.3616,2.347,2.3476,2.3313,2.3028,2.2764,2.301,2.3394,2.3364,2.4122,2.5022,2.5312,2.5849,2.6337,2.6521,2.6555,2.6555,2.6555,2.6555,2.6555,2.6555,2.6452,2.6365,2.631,2.6205,2.6346,2.7015,2.7665,0.0,2.8976,2.9614,0.0,2.9924,0.0,2.9704,2.9653,2.9563,0.0,0.0,2.935,2.9396,2.9653,2.9675,2.9764,2.9896,2.9896,2.9896,2.9896,2.9896,2.983,2.9697,2.9608,2.9457,2.9305,2.919,2.9121,2.9098,2.9098,2.9098,2.9098,2.9098,2.9013,2.8904,2.8904,2.8795,2.866,2.866,2.866,2.8614,0.0,0.0,0.0,0.0,0.0,0.0,0.0,0.0,0.0,0.0,0.0,0.0,0.0,0.0,0.0,0.0,0.0,0.0,0.0,1.7548,1.8161,1.8609,1.9413,2.0175,2.0919,2.1273,2.1626,2.1993,2.2924,2.3405,2.3475,2.4342,2.4742,2.4742,2.4725,2.4893,2.5218,2.519,2.5365,0.0,0.0,2.4771,2.4262,2.3838,2.332,2.2763,2.2648,2.2616,2.2652,2.2586,2.2641,2.2685,2.2487,2.2855,2.3412,2.3551,2.441,2.5364,2.5544,2.5942,2.6276,2.624,2.624,2.624,2.624,2.5991,2.5759,2.5759,2.5459,2.5291,2.5551,2.5513,2.5689,0.0,0.0,0.0,2.842,2.9079,2.9589,0.0,2.983,0.0,2.972,2.963,2.9586,0.0,2.9457,2.948,2.9697,2.9697,2.9764,2.9896,2.9896,2.9896,2.9896,2.9896,2.9808,2.9608,2.9541,2.9405,2.9213,2.9121,2.9098,2.9098,0.0,2.9098,2.9098,2.9098,2.9006,2.8858,2.8858,2.8716,2.8517,2.8573,2.8636,2.8708,0.0,0.0,0.0,0.0,0.0,0.0,0.0,0.0,0.0,0.0,0.0,0.0,0.0,0.0,0.0,0.0,0.0,0.0,0.0,0.0,1.7264,1.725,1.8011,1.8747,1.9376,2.0182,2.0949,2.1636,2.1842,2.1932,2.195,2.1998,2.2012,2.2012,2.1954,2.2337,2.3033,2.2972,2.3316,2.3824,2.3133,2.2803,2.2658,0.0,2.1552,2.144,2.1237,2.1392,2.1675,2.1528,2.1926,2.2446,2.2307,2.2706,2.3342,2.3898,2.4663,2.541,2.5863,2.599,2.5956,2.5899,2.5897,2.5883,2.5784,2.5258,2.4767,2.4685,2.4177,2.3931,2.4519,2.4681,2.4959,2.5615,0.0,2.7046,2.7761,2.8415,2.907,2.9799,2.9896,2.9852,2.9742,2.9742,2.9742,2.9742,2.963,2.9608,2.972,2.9742,2.9786,2.9896,2.9896,2.9896,2.9896,2.9896,2.9764,2.9496,2.9496,2.936,2.9098,2.9098,2.9098,2.9098,0.0,0.0,2.9098,2.9098,2.8975,2.8803,2.8803,2.8676,2.8484,2.8589,2.8708,2.8826,0.0,0.0,0.0,0.0,0.0,0.0,0.0,0.0,0.0,0.0,1.4147,1.5243,0.0,0.0,0.0,0.0,0.0,0.0,0.0,0.0,0.0,1.6487,1.7253,1.7724,1.7801,1.8587,1.9067,1.9212,2.0469,2.1122,2.1115,2.1782,2.2085,2.2077,2.207,2.2125,2.2211,2.2203,2.222,2.2275,2.2092,2.1968,2.188,2.168,0.0,0.0,2.0972,2.1237,2.1665,2.1481,2.1837,2.2293,2.2101,2.2906,2.3931,2.3869,2.4809,2.588,2.5903,2.5934,2.5899,2.5899,2.5897,2.5733,2.5127,2.4882,2.4636,2.408,2.3748,2.3596,2.371,2.4126,2.4511,2.464,2.5826,2.6947,2.7644,2.8357,2.907,0.0,2.9896,2.988,2.9874,0.0,0.0,0.0,0.0,0.0,2.9858,2.9874,2.9874,2.9896,2.9896,2.9896,2.9896,2.9896,2.9764,2.9496,2.9496,2.936,2.9098,2.9098,2.9098,2.9098,0.0,0.0,2.9098,2.9098,2.9006,2.8873,2.8873,2.8834,2.8723,2.8747,2.8811,2.8873,0.0,0.0,0.0,0.0,0.0,0.0,0.0,1.0137,1.1017,1.1599,1.2874,1.4137,1.5135,1.5312,1.5342,0.0,0.0,0.0,0.0,0.0,0.0,1.5727,1.65,1.6896,1.6834,1.762,1.8036,1.8024,0.0,1.9087,1.9106,1.9876,2.0224,2.0243,2.0666,2.1076,2.1425,2.1421,2.1622,2.1914,2.1419,2.1173,2.1027,2.0539,0.0,0.0,1.9704,1.997,2.0482,2.0695,2.1132,2.1614,2.191,2.2678,2.3519,2.3737,2.4576,2.5497,2.573,2.5791,2.5789,2.5749,2.5419,2.5027,2.467,2.3967,2.33,2.2977,2.2554,2.2358,2.2712,2.2999,2.3447,2.417,2.4914,2.5792,2.6929,2.7724,2.8456,2.9248,2.967,2.9896,0.0,0.0,0.0,0.0,0.0,0.0,2.9896,2.9896,2.9896,2.9896,2.9896,2.9896,2.9896,2.9896,2.9764,2.9496,2.9496,2.936,2.9098,2.9098,2.9098,2.9098,2.9098,0.0,2.9098,2.9098,2.9013,2.8904,2.8904,2.8865,2.8794,2.8834,2.8873,2.8904,0.0,0.0,0.0,0.0,0.0,0.0,0.0,0.9872,1.0566,1.0925,1.1644,1.277,1.4433,1.47,1.4756,0.0,0.0,0.0,0.0,0.0,0.0,0.0,0.0,0.0,1.6092,0.0,0.0,1.7267,1.7388,0.0,0.0,0.0,0.0,0.0,1.9113,1.9832,2.0413,2.0598,2.0991,0.0,0.0,2.0369,0.0,0.0,0.0,0.0,0.0,1.885,1.9389,1.981,2.0297,2.081,2.1546,2.2282,2.2975,2.3408,2.418,2.4933,2.5344,2.5436,2.5399,2.5354,2.4731,2.4096,2.3951,2.298,2.2062,2.1918,2.1438,2.1214,2.1757,2.1981,2.2492,2.374,2.4079,2.4743,2.6285,2.7126,2.7893,0.0,2.9443,0.0,2.9896,0.0,0.0,0.0,0.0,0.0,0.0,2.9896,2.9896,2.9896,2.9896,2.9896,2.9896,2.9896,2.9764,2.9496,2.9496,2.936,2.9098,2.9098,2.9098,2.9098,2.9098,0.0,0.0,2.9098,2.9052,2.8943,2.8943,2.8912,2.8873,2.8936,2.8943,2.8967,0.0,0.0,0.0,0.0,0.0,0.0,0.0,0.9305,0.9861,1.0785,1.1083,1.1617,1.2648,1.2858,1.2955,0.0,0.0,0.0,0.0,0.0,0.0,0.0,0.0,0.0,0.0,0.0,0.0,1.6507,1.7239,0.0,0.0,0.0,0.0,0.0,0.0,1.8804,1.8859,1.9588,0.0,0.0,0.0,0.0,0.0,0.0,0.0,0.0,0.0,1.8881,1.937,1.9241,1.9556,2.0109,2.0793,2.1823,2.2798,2.2735,2.3652,2.4692,2.4634,2.4578,2.4521,2.4503,2.3899,2.3138,2.2447,2.2207,2.1918,2.131,2.1054,2.0942,2.1005,2.1562,2.2262,2.2994,2.3722,2.4743,2.6285,2.7126,2.7893,2.8709,0.0,0.0,2.9896,0.0,0.0,0.0,0.0,0.0,0.0,2.9896,2.9896,2.9896,2.9896,2.9896,2.9896,2.9896,2.9764,2.9496,2.9496,2.936,2.9098,2.9098,2.9098,2.9098,0.0,0.0,0.0,2.9098,2.9075,2.9075,2.9075,2.9075,2.9075,2.9075,2.9075,2.9075,0.0,0.0,0.0,0.0,0.0,0.0,0.8963,0.9201,0.952,0.9986,1.0172,1.042,1.0824,1.0967,1.1455,1.2577,0.0,0.0,0.0,0.0,0.0,0.0,0.0,0.0,0.0,0.0,1.5741,1.5741,1.6019,0.0,0.0,0.0,0.0,0.0,0.0,1.7952,1.7994,1.8796,0.0,0.0,0.0,0.0,0.0,0.0,0.0,0.0,0.0,0.0,1.8784,1.9064,1.9214,1.9403,2.0036,2.0838,2.1675,2.2391,2.2965,2.3452,2.3789,2.3814,2.3744,2.3744,2.309,2.2392,2.2106,2.1674,2.1242,2.0972,2.0843,2.0778,2.0778,2.103,2.1441,2.2118,2.2887,2.379,2.4904,2.607,2.713,2.7978,2.8752,0.0,0.0,0.0,0.0,0.0,0.0,0.0,0.0,2.9896,2.9896,2.9896,2.9896,2.9896,2.9896,2.9896,2.9764,2.9496,2.9496,2.936,2.9098,2.9098,2.9098,2.9098,0.0,0.0,0.0,2.9098,2.9098,2.9098,2.9098,2.9098,2.9098,2.9098,2.9098,2.9098,0.0,0.0,0.0,0.0,0.0,0.8694,0.8925,0.9141,0.9317,0.9472,0.9597,0.9692,0.9769,0.9822,1.0391,1.1684,1.1885,0.0,0.0,0.0,0.0,0.0,0.0,0.0,0.0,0.0,1.5311,1.5308,1.526,1.5229,0.0,0.0,0.0,0.0,0.0,0.0,0.0,0.0,0.0,0.0,0.0,0.0,0.0,0.0,0.0,0.0,0.0,0.0,0.0,0.0,0.0,1.8713,1.9328,1.9777,2.0301,2.1603,2.223,2.2606,2.3043,2.3053,2.2951,2.2951,2.23,2.1655,2.1655,2.1049,2.0494,2.0494,2.0429,2.0363,2.0363,2.0519,2.0879,2.1586,2.2366,2.3167,2.3975,2.5364,2.6619,0.0,0.0,0.0,0.0,0.0,0.0,0.0,0.0,0.0,0.0,2.9896,2.9896,2.9896,2.9896,2.9896,2.9896,2.9896,2.9764,2.9496,2.9496,2.936,2.9098,2.9098,2.9098,2.9098,0.0,0.0,0.0,2.9098,2.9098,2.9098,2.9098,2.9098,2.9098,2.9144,2.9167,2.9167,0.0,0.0,0.0,0.0,0.0,0.0,0.8869,0.9062,0.9284,0.9483,0.9552,0.9617,0.9695,0.9772,0.9832,0.9913,1.0043,0.0,0.0,0.0,0.0,0.0,0.0,0.0,0.0,0.0,1.536,1.5297,1.5307,1.5302,1.5303,1.5236,1.5215,1.524,0.0,0.0,0.0,0.0,0.0,0.0,0.0,0.0,0.0,0.0,0.0,0.0,0.0,0.0,0.0,0.0,0.0,0.0,0.0,1.8738,1.8794,2.0125,2.1462,2.2492,2.2443,2.2261,2.211,2.211,2.145,2.081,2.081,2.0289,1.9799,1.9799,1.9704,1.961,1.961,2.0109,2.0778,2.1569,2.2328,2.3109,2.3991,2.5364,2.6619,0.0,0.0,0.0,0.0,0.0,0.0,0.0,0.0,0.0,0.0,0.0,2.9896,2.9896,2.9896,2.9896,2.9896,2.9896,2.9764,2.9496,2.9496,2.936,2.9098,2.9098,2.9098,0.0,0.0,0.0,0.0,2.9098,2.9098,2.9098,2.9098,2.9098,2.9137,2.9259,2.9305,2.9328,0.0,0.0,0.0,0.0,0.0,0.0,0.0,0.9044,0.9241,0.9349,0.9466,0.9548,0.9623,0.9654,0.9695,0.9764,0.989,0.0,0.0,0.0,0.0,0.0,0.0,0.0,0.0,0.0,1.5394,1.5376,1.5375,1.538,1.537,1.5293,1.5269,1.5284,1.5482,0.0,0.0,0.0,0.0,0.0,0.0,0.0,0.0,0.0,0.0,0.0,0.0,0.0,0.0,0.0,0.0,0.0,0.0,0.0,0.0,1.9068,1.9703,2.0409,2.0898,2.0889,2.083,2.1295,2.0815,2.0162,2.0131,1.9562,1.9056,1.9056,1.9327,1.9594,1.953,2.0059,2.0573,2.0841,2.1961,2.2917,2.3233,2.4624,0.0,0.0,0.0,0.0,0.0,0.0,0.0,0.0,0.0,0.0,0.0,0.0,2.9896,2.9896,2.9896,2.9896,2.9896,2.9896,2.9808,2.9653,2.9653,2.9525,2.9366,2.9366,0.0,0.0,0.0,0.0,0.0,2.9366,2.9366,2.9366,2.9366,2.9366,2.9382,2.9412,2.9434,2.9473,0.0,0.0,0.0,0.0,0.0,0.0,0.0,0.8985,0.9166,0.9255,0.9362,0.9466,0.9552,0.9563,0.9585,0.9651,0.9769,0.0,0.0,0.0,0.0,0.0,0.0,0.0,1.5367,1.5391,1.5407,1.5398,1.5403,1.5392,1.5408,1.5357,1.5338,1.5336,1.5274,1.5248,0.0,0.0,0.0,0.0,0.0,0.0,1.9181,0.0,0.0,0.0,0.0,0.0,0.0,0.0,0.0,0.0,0.0,0.0,0.0,0.0,1.8397,1.8778,1.9738,1.9881,1.9845,2.0252,1.992,1.9525,1.9434,1.8865,1.8342,1.8329,1.8807,1.9217,1.9171,1.9888,2.0527,2.0577,2.1837,2.2823,2.288,0.0,0.0,0.0,0.0,0.0,0.0,0.0,0.0,0.0,0.0,0.0,0.0,0.0,2.9896,2.9896,2.9896,2.9896,2.9896,2.9896,2.983,2.9697,2.9697,2.963,2.9496,2.9496,0.0,0.0,0.0,0.0,0.0,2.9496,2.9496,2.9496,2.9496,2.9496,2.9496,2.9563,2.9586,2.9586,0.0,0.0,0.0,0.0,0.0,0.0,0.0,0.8908,0.9048,0.9169,0.926,0.9335,0.9466,0.9497,0.9517,0.9593,0.0,0.0,0.0,0.0,0.0,0.0,0.0,0.0,1.5348,1.5405,1.5391,1.5408,1.5399,1.5392,1.5391,1.5409,1.5398,1.5396,1.5338,1.5291,1.5332,0.0,0.0,0.0,0.0,0.0,0.0,0.0,0.0,0.0,0.0,0.0,0.0,0.0,0.0,0.0,0.0,0.0,0.0,0.0,0.0,0.0,0.0,1.916,1.9127,1.9103,1.8968,1.882,1.8748,1.8256,0.0,1.7727,1.8239,1.8683,1.8699,1.9687,2.056,2.0739,2.1904,2.2836,2.2959,2.429,0.0,0.0,0.0,0.0,0.0,0.0,0.0,0.0,0.0,0.0,0.0,0.0,0.0,2.9896,2.9896,2.9896,2.9896,2.9896,2.9852,2.972,2.972,2.9653,2.9518,2.9518,0.0,0.0,0.0,0.0,0.0,2.9518,2.9518,2.9518,2.9518,2.9518,2.9541,2.9675,2.972,2.9742,0.0,0.0,0.0,0.0,0.0,0.0,0.0,0.0,0.0,0.0,0.9174,0.9251,0.9331,0.9389,0.9448,0.0,0.0,0.0,0.0,0.0,0.0,0.0,0.0,0.0,1.5286,1.5369,1.5402,1.5409,1.541,1.5407,1.5404,1.5392,1.5402,1.5402,1.5377,1.5342,1.5315,1.5433,0.0,0.0,0.0,0.0,0.0,0.0,0.0,0.0,1.8345,1.8197,0.0,0.0,0.0,0.0,0.0,0.0,0.0,0.0,1.7833,1.7754,1.7952,0.0,1.8629,1.906,1.8727,1.8267,0.0,1.7989,1.786,1.7862,1.8779,1.9592,1.9531,2.0128,2.0816,2.1382,2.2218,2.2994,2.3572,0.0,0.0,0.0,0.0,0.0,0.0,0.0,0.0,0.0,0.0,0.0,0.0,0.0,0.0,2.9896,2.9896,2.9896,2.9896,2.9896,2.988,2.9852,2.9852,2.983,2.9808,2.9808,0.0,0.0,0.0,0.0,2.9808,2.9808,2.9808,2.9808,2.9808,2.9808,2.9808,2.9852,2.9852,2.9874,0.0,0.0,0.0,0.0,0.0,0.0,0.0,0.0,0.0,0.0,0.0,0.0,0.0,0.0,0.0,0.0,0.0,0.0,0.0,0.0,0.0,0.0,0.0,1.3897,1.5269,1.5364,1.5408,1.5402,1.5409,1.5391,1.5409,1.5404,1.5398,1.5395,1.5392,1.536,1.5301,1.5262,1.5474,1.584,1.5773,0.0,0.0,0.0,0.0,0.0,1.7578,1.7457,0.0,1.6687,1.6702,1.7011,0.0,0.0,0.0,0.0,1.7999,1.7856,1.7732,1.779,1.7954,1.8251,1.8029,1.7779,1.7945,1.7982,1.8079,1.8345,1.9232,1.9938,1.9908,2.0653,2.1426,2.1788,2.2652,2.3661,0.0,0.0,0.0,0.0,0.0,0.0,0.0,0.0,0.0,0.0,0.0,0.0,0.0,0.0,0.0,0.0,2.9896,2.9896,2.9896,2.9896,2.9896,2.9896,2.9896,2.9896,2.9896,2.9896,0.0,0.0,0.0,0.0,2.9896,2.9896,2.9896,2.9896,2.9896,2.9896,2.9896,2.9896,2.9896,2.9896,0.0,0.0,0.0,0.0,0.0,0.0,0.0,0.0,0.0,0.0,0.0,0.0,0.0,0.0,0.0,0.0,0.0,0.0,0.0,0.0,0.0,0.0,1.3453,1.4328,1.5263,1.5357,1.539,1.5391,1.5539,1.5603,1.5605,1.5605,1.5524,1.5402,1.5402,1.5377,1.5313,1.5295,1.5265,1.5204,1.514,0.0,0.0,0.0,0.0,0.0,0.0,0.0,0.0,1.6342,1.6293,1.6435,1.7072,0.0,0.0,0.0,0.0,0.0,1.7889,1.7658,1.7448,1.7341,1.7408,1.7592,1.8023,1.8305,1.8618,1.912,1.9754,2.0237,2.0349,2.1262,2.2087,2.2294,2.3335,0.0,0.0,0.0,0.0,0.0,0.0,0.0,0.0,0.0,0.0,0.0,0.0,0.0,0.0,0.0,0.0,2.9896,2.9896,2.9896,2.9896,2.9896,2.9896,2.9896,2.9896,2.9918,2.9918,2.9918,0.0,0.0,0.0,0.0,3.008,3.0058,3.0123,3.022,3.022,3.022,3.022,3.022,3.022,3.0204,0.0,0.0,0.0,0.0,0.0,0.0,0.0,0.0,0.0,0.0,0.0,0.0,0.0,0.0,0.0,0.0,0.0,0.0,0.0,0.0,0.0,1.3411,1.3678,1.4242,1.5185,1.5288,1.5345,1.5408,1.6133,1.6493,1.6496,1.6502,1.6113,1.5406,1.5397,1.5382,1.5383,1.5315,1.5295,1.5287,1.5207,0.0,0.0,0.0,0.0,0.0,0.0,0.0,0.0,1.5014,1.5106,1.5684,1.6417,0.0,0.0,0.0,0.0,0.0,1.8134,1.7939,1.767,1.7432,1.7852,1.831,1.828,1.9236,2.0168,2.0252,2.0722,2.1294,2.1924,2.205,2.246,2.3679,0.0,0.0,0.0,0.0,0.0,0.0,0.0,0.0,0.0,0.0,0.0,0.0,0.0,0.0,0.0,0.0,0.0,2.9896,2.9896,2.9896,2.9896,2.9896,2.9896,2.9896,2.9896,2.9924,2.9973,2.9973,3.0055,0.0,0.0,3.0331,3.09,3.0788,3.1098,3.1688,3.1688,3.1688,3.1688,3.1688,3.1688,3.1591,0.0,0.0,0.0,0.0,0.0,0.0,0.0,0.0,0.0,0.0,0.0,0.0,0.0,0.0,0.0,0.0,0.0,0.0,0.0,0.0,1.3405,1.3535,1.4134,1.4689,1.5182,1.5276,1.5557,1.605,1.6486,1.6947,1.7383,1.6927,1.6483,1.6074,1.5602,1.5399,1.5409,1.5365,1.5334,1.5297,0.0,0.0,0.0,0.0,0.0,0.0,0.0,0.0,0.0,0.0,1.4946,1.5678,1.6384,0.0,0.0,0.0,0.0,0.0,1.8225,1.84,1.8558,1.8281,1.8442,1.8839,1.9502,2.0155,2.0706,2.1072,2.1624,2.2134,2.2411,2.2975,2.3692,2.4644,0.0,0.0,0.0,0.0,0.0,0.0,0.0,0.0,0.0,0.0,0.0,0.0,0.0,0.0,0.0,0.0,0.0,0.0,2.9896,2.9918,2.9946,2.9946,2.9946,2.9946,2.9946,3.0011,3.0119,3.0511,3.0751,3.0811,0.0,3.1452,3.1694,3.1625,3.1751,3.2012,3.2012,3.2012,3.2012,3.2012,3.2012,3.1963,0.0,0.0,0.0,0.0,0.0,0.0,0.0,0.0,0.0,0.0,0.0,0.0,0.0,0.0,0.0,0.0,0.0,0.0,0.0,1.2992,1.3627,1.3761,1.4556,1.5042,1.5161,1.5243,1.5704,1.6594,1.6853,1.7438,1.8252,1.7408,1.6907,1.6654,1.5781,1.5408,1.5404,1.5409,1.5366,1.5316,0.0,0.0,0.0,0.0,0.0,0.0,0.0,0.0,0.0,0.0,0.0,0.0,0.0,0.0,0.0,1.8447,1.8582,1.8483,1.8288,1.8756,1.9293,1.925,1.9292,1.9622,2.0624,2.1069,2.1425,2.1917,2.2534,2.3014,2.3063,2.3988,0.0,2.5558,0.0,0.0,0.0,0.0,0.0,0.0,0.0,0.0,0.0,0.0,0.0,0.0,0.0,0.0,0.0,0.0,0.0,0.0,2.9924,2.9968,3.0038,3.0038,3.0038,3.0038,3.0038,3.0223,3.051,3.1084,3.1435,3.1654,3.219,3.2466,3.252,3.245,3.2494,3.2545,3.2498,3.2498,3.2498,3.2498,3.2498,3.2481,0.0,0.0,0.0,0.0,0.0,0.0,0.0,0.0,0.0,0.0,0.0,0.0,0.0,0.0,0.0,0.0,0.0,0.0,0.0,1.3757,1.4407,1.4614,1.4808,1.4969,1.5095,1.518,1.5661,1.6603,1.741,1.8259,1.9104,1.8291,1.7461,1.6669,1.5797,1.541,1.5409,1.5404,1.5391,1.5386,1.5338,0.0,0.0,0.0,0.0,0.0,0.0,0.0,0.0,0.0,0.0,0.0,0.0,0.0,1.7905,1.852,1.8657,1.8549,1.8348,1.8786,1.9453,2.0058,2.0628,2.1032,2.0988,2.2032,2.2989,2.2915,2.3436,2.4067,2.4626,2.5206,2.5845,0.0,0.0,0.0,0.0,0.0,0.0,0.0,0.0,0.0,0.0,0.0,0.0,0.0,0.0,0.0,0.0,0.0,0.0,0.0,0.0,3.0038,3.0189,3.0189,3.0189,3.0189,3.0189,3.0614,3.1418,3.1468,3.1891,3.2591,3.2529,3.2873,3.3475,3.3239,3.3535,3.4129,3.4005,3.3955,3.3955,3.3955,3.3955,3.3858,0.0,0.0,0.0,0.0,0.0,0.0,0.0,0.0,0.0,0.0,0.0,0.0,0.0,0.0,0.0,0.0,0.0,0.0,0.0,1.4062,1.4441,1.4638,1.478,1.4905,1.5037,1.5132,1.5898,1.7348,1.8809,1.9698,1.9977,1.8583,1.7774,1.745,1.6038,1.5403,1.5409,1.539,1.5405,1.5392,1.5368,1.5338,0.0,0.0,0.0,0.0,0.0,0.0,0.0,0.0,1.6036,1.6738,1.7399,1.8073,1.8636,1.878,1.8715,1.8669,1.8965,1.9567,2.0246,2.0884,2.1922,2.2716,2.2592,2.2916,2.338,2.3785,2.4345,2.5062,2.6078,0.0,2.6626,0.0,0.0,0.0,0.0,0.0,0.0,0.0,0.0,0.0,0.0,0.0,0.0,0.0,0.0,0.0,0.0,0.0,0.0,0.0,0.0,3.0189,3.0333,3.0316,3.0338,3.0401,3.0815,3.1199,3.1588,3.2497,3.3104,3.3408,3.3809,3.4103,3.4255,3.4071,3.4129,3.43,3.4151,3.4101,3.4101,3.4101,3.4101,3.4052,0.0,0.0,0.0,0.0,0.0,0.0,0.0,0.0,0.0,0.0,0.0,0.0,0.0,0.0,0.0,0.0,0.0,0.0,1.3995,1.4196,1.4381,1.4592,1.4728,1.4866,1.4996,1.5117,1.5893,1.7399,1.9177,2.0065,2.0068,1.8597,1.7771,1.7489,1.6042,1.5392,1.5402,1.5408,1.5391,1.5406,1.5392,1.5369,0.0,0.0,0.0,0.0,0.0,0.0,0.0,0.0,1.6589,1.7244,1.7955,1.8602,1.9109,1.8949,1.8761,1.8762,1.9367,2.0057,2.0813,2.1682,2.2808,2.3799,2.4208,2.4162,2.4177,2.4652,2.5363,2.6227,2.7342,2.7344,0.0,0.0,0.0,0.0,0.0,0.0,0.0,0.0,0.0,0.0,0.0,0.0,0.0,0.0,0.0,0.0,0.0,0.0,0.0,0.0,0.0,0.0,3.0422,3.0464,3.0506,3.0568,3.131,3.1774,3.2044,3.3062,3.3775,3.424,3.4707,3.4851,3.4739,3.4618,3.4448,3.43,3.4151,3.4101,3.4101,3.4101,3.4101,3.4101,0.0,0.0,0.0,0.0,0.0,0.0,0.0,0.0,0.0,0.0,0.0,0.0,0.0,0.0,0.0,0.0,0.0,0.0,1.3984,1.419,1.4393,1.4589,1.4723,1.4857,1.4999,1.5068,1.5558,1.6491,1.8246,1.9127,1.9163,1.8293,1.7435,1.6562,1.5756,1.5398,1.5409,1.5401,1.5408,1.5391,1.5406,1.5392,1.5388,0.0,0.0,0.0,0.0,0.0,0.0,0.0,1.6639,1.7333,1.8079,1.8721,1.916,1.8956,1.8798,1.8846,1.9446,2.0108,2.0964,2.2435,2.3267,2.4102,2.5644,2.5847,2.5673,2.5545,2.6518,2.7644,2.8375,2.824,0.0,0.0,0.0,0.0,0.0,0.0,0.0,0.0,0.0,0.0,0.0,0.0,0.0,0.0,0.0,0.0,0.0,0.0,0.0,0.0,0.0,0.0,3.0506,3.063,3.0692,3.0708,3.1583,3.2302,3.2895,3.2907,3.3723,3.5088,3.497,3.4899,3.4899,3.4756,3.4546,3.43,3.4151,3.4101,3.4101,3.4101,3.4101,3.4101,0.0,0.0,0.0,0.0,0.0,0.0,0.0,0.0,0.0,0.0,0.0,0.0,0.0,0.0,0.0,0.0,0.0,0.0,1.3931,1.4119,1.4331,1.4516,1.4661,1.4785,1.4928,1.508,1.5633,1.657,1.7666,1.8213,1.8278,1.7383,1.6846,1.6569,1.5705,1.5354,1.5393,1.5407,1.54,1.5408,1.5391,1.5406,1.5393,0.0,0.0,0.0,0.0,0.0,0.0,0.0,0.0,0.0,1.8751,1.9199,1.9238,1.9025,1.9245,1.9698,2.0343,2.0963,2.1781,2.3215,2.4102,2.4876,2.5779,2.5847,2.5961,2.6859,2.7728,2.8505,2.9162,2.9002,0.0,0.0,0.0,0.0,0.0,0.0,0.0,0.0,0.0,0.0,0.0,0.0,0.0,0.0,0.0,0.0,0.0,0.0,0.0,0.0,0.0,0.0,3.0651,3.0773,3.0851,3.0851,3.115,3.1901,3.3071,3.3584,3.4336,3.5222,3.5088,3.5041,3.5018,3.4787,3.4546,3.43,3.425,3.4176,3.4101,3.4101,3.4101,3.4101,0.0,0.0,0.0,0.0,0.0,0.0,0.0,0.0,0.0,0.0,1.3173,1.3208,0.0,0.0,0.0,0.0,0.0,0.0,0.0,1.4067,1.4269,1.4482,1.4632,1.4776,1.4944,1.5073,1.5456,1.6044,1.6888,1.7294,1.7333,1.6837,1.6417,1.6056,1.5528,1.5313,1.5351,1.539,1.5406,1.54,1.5407,1.5391,1.5406,0.0,0.0,0.0,0.0,0.0,0.0,0.0,0.0,0.0,1.9164,1.9502,1.9346,1.9144,1.9507,2.0115,2.0753,2.1393,2.229,2.3996,2.4728,2.535,2.6572,2.6719,2.6995,2.8379,2.8889,2.9295,2.9992,2.9803,0.0,0.0,0.0,0.0,0.0,0.0,0.0,0.0,0.0,0.0,0.0,0.0,0.0,0.0,0.0,0.0,0.0,0.0,0.0,0.0,0.0,0.0,3.0773,3.0892,3.0952,3.0952,3.1015,3.1675,3.2807,3.3482,3.422,3.4907,3.5041,3.5088,3.5065,3.4811,3.4594,3.4448,3.4349,3.425,3.4176,3.4126,3.4101,3.4101,0.0,0.0,0.0,0.0,0.0,0.0,0.0,0.0,0.0,0.0,1.3208,1.3227,0.0,0.0,0.0,0.0,0.0,0.0,0.0,1.4022,1.4207,1.447,1.4635,1.4799,1.5,1.5066,1.5121,1.5189,1.5986,1.6375,1.6394,1.6445,1.6051,1.53,1.5303,1.5299,1.5308,1.5371,1.539,1.5404,1.54,1.5408,1.5391,1.5406,0.0,0.0,0.0,0.0,0.0,0.0,0.0,0.0,1.9316,1.9661,1.9464,1.9264,1.9676,2.0331,2.0865,2.1547,2.2592,2.4673,2.5253,2.5811,2.7775,2.8169,2.849,2.9822,2.9953,3.0015,3.0758,0.0,0.0,0.0,0.0,0.0,0.0,0.0,0.0,0.0,0.0,0.0,0.0,0.0,0.0,0.0,0.0,0.0,0.0,0.0,0.0,0.0,0.0,0.0,3.0912,3.0975,3.1015,0.0,3.1151,3.1565,3.2226,3.2845,3.3556,3.4325,3.4894,3.5128,3.5065,3.4851,3.4715,3.4683,3.4423,3.4325,3.43,3.4151,3.4126,3.4101,0.0,0.0,0.0,0.0,0.0,0.0,0.0,0.0,0.0,0.0,0.0,0.0,0.0,0.0,0.0,0.0,0.0,0.0,0.0,1.4026,1.4169,1.4344,1.4627,1.485,1.5006,1.5075,1.5111,1.5124,1.5353,1.552,1.5567,1.557,1.5482,1.5308,1.5302,1.5299,1.5299,1.5311,1.5351,1.5394,1.5409,1.5401,1.5409,1.539,1.5404,0.0,0.0,0.0,0.0,0.0,0.0,0.0,1.9333,1.9695,1.9532,1.9271,2.0073,2.1032,2.1018,2.1906,2.3228,2.4812,2.6021,2.7231,2.8768,2.9041,2.9156,2.9942,3.0393,3.0691,0.0,0.0,0.0,0.0,0.0,0.0,0.0,0.0,0.0,0.0,0.0,0.0,0.0,0.0,0.0,0.0,0.0,0.0,0.0,0.0,0.0,0.0,0.0,3.0955,3.0975,3.1092,3.1151,0.0,3.119,3.1275,3.1464,3.2168,3.3136,3.4347,3.5093,3.5291,3.5105,3.5041,3.4899,3.4691,3.4659,3.4497,3.43,3.4275,3.4201,3.4101,0.0,0.0,0.0,0.0,0.0,0.0,0.0,0.0,0.0,0.0,0.0,0.0,0.0,0.0,0.0,0.0,0.0,0.0,0.0,0.0,1.4187,1.4398,1.4624,1.4813,1.4955,1.5049,1.5094,1.5095,1.5177,1.5226,1.525,1.5275,1.5306,1.5306,1.5291,1.5306,1.5305,1.5297,1.5339,1.5404,1.5397,1.5392,1.5403,1.5409,1.5409,1.54,1.5407,0.0,0.0,0.0,0.0,0.0,0.0,0.0,1.9656,1.9416,2.0338,2.1402,2.1205,2.2165,2.355,2.4875,2.6279,2.7712,2.9094,2.9298,2.9482,3.0474,3.0785,0.0,0.0,0.0,0.0,0.0,0.0,0.0,0.0,0.0,0.0,0.0,0.0,0.0,0.0,0.0,0.0,0.0,0.0,0.0,0.0,0.0,0.0,0.0,3.0935,3.1035,3.1092,3.1171,3.119,3.119,3.119,3.119,3.1224,3.1972,3.2878,3.3912,3.4622,3.4852,3.4733,3.4985,3.5018,3.4875,3.4739,3.4618,3.4472,3.4423,3.4349,3.4275,0.0,0.0,0.0,0.0,0.0,0.0,0.0,0.0,0.0,0.0,0.0,0.0,0.0,0.0,0.0,0.0,0.0,0.0,0.0,0.0,0.0,1.4497,1.4624,1.4752,1.4907,1.5027,1.5103,1.5117,1.5177,1.5206,1.5211,1.5275,1.5385,1.5523,1.5523,1.561,1.5743,1.5757,1.57,1.5648,1.5774,1.5752,1.565,1.5795,1.5859,1.5857,1.5847,1.585,1.6074,1.7546,0.0,0.0,0.0,0.0,1.9782,1.9576,2.0512,2.1571,2.1362,2.25,2.3984,2.4972,2.6326,2.7742,2.9111,2.9333,2.962,3.1028,0.0,0.0,0.0,0.0,0.0,0.0,0.0,0.0,0.0,0.0,0.0,0.0,0.0,0.0,0.0,0.0,0.0,0.0,0.0,0.0,0.0,0.0,3.079,3.0892,3.0992,3.1092,3.119,3.119,3.119,3.119,3.121,3.123,3.1247,3.1839,3.2513,3.3254,3.3857,3.4201,3.4325,3.4777,3.5018,3.5065,3.4851,3.4739,3.4691,3.457,3.4521,3.4472,0.0,0.0,0.0,0.0,0.0,0.0,0.0,0.0,0.0,0.0,1.3388,1.3388,0.0,0.0,0.0,0.0,0.0,0.0,1.3809,0.0,0.0,1.4493,1.4635,1.4757,1.4907,1.5027,1.5125,1.519,1.5199,1.5236,1.5282,1.5303,1.57,1.6428,1.6428,1.6848,1.7545,1.7547,1.7155,1.6595,1.7287,1.7153,1.6607,1.7375,1.7654,1.7656,1.7653,1.7642,1.7796,1.8706,1.8968,0.0,0.0,0.0,1.9851,1.965,2.0577,2.1625,2.1365,2.3176,2.5156,2.5261,2.6338,2.7774,2.9179,2.942,2.9778,0.0,0.0,0.0,0.0,0.0,0.0,0.0,0.0,0.0,0.0,0.0,0.0,0.0,0.0,0.0,0.0,0.0,0.0,0.0,0.0,0.0,0.0,3.0733,3.0892,3.0892,3.1072,3.1171,3.119,3.119,3.119,3.119,3.1254,3.1293,3.1293,3.1395,3.1797,3.2496,3.3199,3.3811,3.4314,3.437,3.4672,3.5105,3.5065,3.4899,3.4691,3.4667,3.4594,3.4497,0.0,0.0,0.0,0.0,0.0,0.0,0.0,0.0,0.0,0.0,0.0,1.3455,0.0,0.0,0.0,1.3562,1.3638,1.3759,1.3909,1.4139,1.4319,1.4446,1.4616,1.4765,1.4889,1.4984,1.5092,1.5194,1.5246,1.5514,1.6022,1.6025,1.6228,1.6613,1.71,1.7536,1.7896,1.7905,1.7705,1.7412,1.7793,1.7735,1.7462,1.7857,1.8003,1.8008,1.8006,1.7997,1.8115,1.8937,1.9153,1.9229,1.9969,0.0,0.0,0.0,2.0384,2.1262,2.1817,2.3429,2.5023,2.5287,2.6077,2.7161,2.8623,2.9179,2.9676,0.0,0.0,0.0,0.0,0.0,0.0,0.0,0.0,0.0,0.0,0.0,0.0,0.0,0.0,0.0,0.0,0.0,0.0,0.0,0.0,0.0,3.0506,3.0753,3.0892,3.0892,3.1092,3.119,3.119,3.119,3.123,3.1271,3.1368,3.1406,3.1406,3.1406,3.1516,3.1735,3.2459,3.2929,3.3242,3.3982,3.4432,3.4694,3.5078,3.5088,3.4923,3.4923,3.4851,3.4715,0.0,0.0,0.0,0.0,0.0,0.0,0.0,0.0,0.0,0.0,0.0,0.0,0.0,0.0,0.0,0.0,1.3686,1.3803,1.3984,1.4179,1.4319,1.4404,1.4589,1.4764,1.49,1.4964,1.5063,1.5197,1.5273,1.5758,1.6597,1.6825,1.7048,1.7295,1.7937,1.8349,1.855,1.856,1.8436,1.8254,1.8538,1.8515,1.8357,1.8578,1.8664,1.8651,1.8651,1.8664,0.0,0.0,0.0,0.0,2.0055,2.0131,0.0,0.0,0.0,2.1185,2.2235,2.3549,2.4733,2.5293,2.5897,2.6745,2.8169,0.0,0.0,0.0,0.0,0.0,0.0,0.0,0.0,0.0,0.0,0.0,0.0,0.0,0.0,0.0,0.0,0.0,0.0,0.0,0.0,0.0,0.0,0.0,3.0506,3.0753,3.0892,3.0892,3.1092,3.119,3.119,3.123,3.1271,3.1351,3.1481,3.1519,3.1519,3.1519,3.1423,3.1303,3.1825,3.2144,3.2395,3.3575,3.415,3.4381,3.5081,3.5268,3.5152,3.5152,3.5105,3.4994,0.0,0.0,0.0,0.0,0.0,0.0,0.0,0.0,0.0,0.0,0.0,0.0,1.3504,1.3559,1.3597,1.3597,1.3715,1.3851,1.3984,1.4134,1.4258,1.4386,1.4589,0.0,1.49,1.4964,1.5066,1.5192,1.5276,1.5753,1.6619,1.7445,1.8273,1.9064,1.9117,1.9583,2.0369,2.0369,1.9889,1.92,2.0047,1.9903,1.9312,2.0146,2.0463,2.0466,2.0468,0.0,0.0,0.0,0.0,0.0,0.0,0.0,2.0064,0.0,0.0,0.0,2.2421,2.3573,2.4728,2.5341,2.6043,2.6912,0.0,0.0,0.0,0.0,0.0,0.0,0.0,0.0,0.0,0.0,0.0,0.0,0.0,0.0,0.0,0.0,0.0,0.0,0.0,0.0,0.0,0.0,0.0,0.0,3.0506,3.0753,3.0892,3.0892,3.1092,3.119,3.119,3.1254,3.1351,3.1498,3.1559,3.1579,3.1579,3.1579,3.1559,3.1479,3.1402,3.1712,3.2361,3.3136,3.3777,3.4381,3.5189,3.5423,3.5291,3.5291,3.5291,3.5268,0.0,0.0,0.0,0.0,0.0,0.0,0.0,0.0,0.0,0.0,0.0,0.0,0.0,1.3652,1.3682,1.3723,1.3858,1.3966,1.4061,1.4223,1.4362,1.4452,1.4627,1.4756,1.4898,1.5011,1.5106,1.5192,1.5829,1.6578,1.7452,1.8339,1.9193,2.0021,2.0032,2.0204,2.0499,2.051,2.032,2.0052,2.0372,2.0344,2.018,2.0477,2.06,0.0,0.0,0.0,0.0,0.0,0.0,0.0,0.0,0.0,0.0,1.9898,2.0418,2.1193,2.1799,2.2581,2.3508,2.4644,2.5368,2.6062,2.7001,2.7915,0.0,0.0,0.0,0.0,0.0,0.0,0.0,0.0,0.0,0.0,0.0,0.0,0.0,0.0,0.0,0.0,0.0,0.0,0.0,0.0,0.0,0.0,3.0506,3.0753,3.0892,3.0892,3.1092,3.119,3.119,3.1346,3.1443,3.1498,3.1651,3.1727,3.1727,3.1727,3.1671,3.1559,3.1504,3.16,3.1879,3.306,3.366,3.3956,3.5121,3.552,3.5423,3.5423,3.536,3.5291,0.0,0.0,0.0,0.0,0.0,0.0,0.0,0.0,1.4145,1.4145,0.0,0.0,0.0,0.0,1.46,1.4671,1.453,1.4456,1.4537,1.445,1.4435,1.4522,1.4645,1.4762,1.4907,1.503,1.5123,1.5204,1.614,1.7059,1.7929,1.8781,1.9675,2.0501,2.0524,2.0522,2.0498,2.051,2.0494,2.0496,2.0524,2.0727,2.1006,2.1028,0.0,0.0,0.0,0.0,0.0,0.0,0.0,0.0,0.0,0.0,0.0,0.0,2.024,2.0773,2.1113,2.183,2.2783,2.3939,2.4676,2.5354,2.6311,0.0,0.0,0.0,0.0,0.0,0.0,0.0,0.0,0.0,0.0,0.0,0.0,0.0,0.0,0.0,0.0,0.0,0.0,0.0,0.0,0.0,0.0,0.0,3.0551,3.0773,3.0932,3.0992,3.1131,3.121,3.1232,3.1404,3.1517,3.1538,3.1726,3.18,3.18,3.18,3.1746,3.1671,3.1671,3.1596,3.1617,3.3042,3.3635,3.3768,3.5162,3.5706,3.5678,3.5678,3.5611,3.5526,0.0,0.0,0.0,0.0,0.0,0.0,0.0,0.0,1.5038,1.5038,0.0,0.0,0.0,0.0,0.0,1.6393,1.5747,1.5368,1.5439,1.4847,1.4531,1.4631,1.4705,1.4794,1.4907,1.5023,1.5143,1.5246,1.6184,1.7083,1.7967,1.8833,1.9684,2.0509,2.0567,2.0589,2.0539,2.0545,2.0548,2.0549,2.0636,2.1147,2.1851,0.0,0.0,0.0,2.3103,2.3096,0.0,2.2122,0.0,0.0,0.0,0.0,0.0,0.0,2.0206,2.0633,0.0,0.0,0.0,2.3301,2.3993,0.0,2.6219,0.0,0.0,0.0,0.0,0.0,0.0,0.0,0.0,0.0,0.0,0.0,0.0,0.0,0.0,0.0,0.0,0.0,0.0,0.0,0.0,0.0,0.0,3.0568,3.0692,3.0831,3.0992,3.119,3.119,3.1232,3.1295,3.1443,3.1538,3.1598,3.1744,3.18,3.18,3.18,3.18,3.18,3.18,3.1688,3.1619,3.3071,3.3686,3.3857,3.5382,3.598,3.5997,3.5997,3.5997,3.5975,0.0,0.0,0.0,0.0,0.0,1.4846,1.5415,1.5803,1.6009,0.0,0.0,0.0,1.6409,1.6433,1.6463,1.6551,1.6398,1.6338,1.6405,1.6327,1.606,1.5558,1.5646,1.5489,1.4976,1.5054,1.5446,1.6135,1.7084,1.7985,1.8856,1.9735,2.0299,2.0568,2.0595,2.0932,2.1501,2.1518,2.1517,2.1576,2.2166,2.2538,0.0,0.0,0.0,0.0,0.0,2.309,2.3066,0.0,2.2739,2.2568,0.0,0.0,0.0,0.0,0.0,2.0063,2.0438,0.0,0.0,0.0,0.0,0.0,0.0,0.0,0.0,0.0,0.0,0.0,0.0,0.0,0.0,0.0,0.0,0.0,0.0,0.0,0.0,0.0,0.0,0.0,0.0,0.0,0.0,0.0,3.079,3.081,3.0851,3.0932,3.1052,3.119,3.119,3.1232,3.1295,3.1443,3.1538,3.1598,3.1744,3.18,3.18,3.18,3.18,3.18,3.18,3.1763,3.1793,3.2679,3.3362,3.3925,3.4839,3.5536,3.5997,3.5997,3.5997,3.5997,0.0,0.0,0.0,0.0,0.0,1.5716,1.6208,1.6669,1.6974,0.0,0.0,0.0,1.7581,1.7579,1.7611,1.7682,1.7412,1.7279,1.7385,1.7167,1.6867,1.6498,1.6593,1.6446,1.6058,1.6145,1.6477,1.7043,1.7978,1.8703,1.9221,2.0098,2.0543,2.0613,2.0972,2.1425,2.1953,2.2656,2.2734,0.0,2.291,0.0,0.0,2.3649,2.386,0.0,0.0,0.0,2.4128,2.3764,2.3389,0.0,0.0,0.0,0.0,0.0,0.0,1.9762,2.0037,2.0586,2.1243,2.187,0.0,0.0,2.4402,2.5214,0.0,0.0,0.0,0.0,0.0,0.0,0.0,0.0,0.0,0.0,0.0,0.0,0.0,0.0,0.0,0.0,0.0,0.0,0.0,0.0,3.0892,3.0912,3.0952,3.1015,3.1131,3.119,3.123,3.1291,3.1387,3.15,3.1578,3.1673,3.1746,3.18,3.18,3.18,3.18,3.18,3.18,3.18,3.1834,3.2226,3.3033,3.4046,3.4741,3.5475,3.6127,3.6127,3.6127,3.6127,0.0,0.0,1.4943,1.5223,1.5936,1.6505,1.6658,1.7407,1.7956,0.0,1.8644,1.912,1.912,1.912,1.9153,1.9216,1.8567,1.8214,1.8356,1.7745,1.7416,1.7436,1.7516,1.7549,1.7511,1.765,1.7796,1.7935,1.8798,1.925,1.9353,2.0131,2.0532,2.0636,2.1503,2.1953,2.2148,2.3724,0.0,2.3394,2.3394,2.3841,0.0,0.0,2.5157,2.5852,2.5948,2.5977,2.5843,2.4974,2.4042,0.0,0.0,0.0,0.0,0.0,2.0576,1.9794,1.9492,1.9903,2.0569,0.0,0.0,0.0,2.4075,2.4498,0.0,0.0,0.0,0.0,0.0,0.0,0.0,0.0,0.0,0.0,0.0,0.0,0.0,0.0,0.0,0.0,0.0,0.0,3.0754,3.0854,3.0922,3.0992,3.1055,3.1171,3.123,3.123,3.1293,3.137,3.1517,3.1578,3.1671,3.18,3.18,3.18,3.18,3.18,3.18,3.18,3.18,3.18,3.18,3.1818,3.2716,3.4185,3.4821,3.5597,3.6343,3.6343,3.6322,3.6301,0.0,1.5608,1.6063,1.6809,1.7221,1.7669,1.8383,1.8735,1.895,1.9008,1.9165,1.9269,1.9269,1.9269,1.93,1.9368,1.921,1.9176,1.9332,1.9244,1.8932,1.8367,1.8467,1.8264,1.7677,1.7741,1.8122,1.886,1.9087,1.9554,2.0242,2.0489,2.0599,2.0644,2.1504,2.2264,2.2938,2.3951,0.0,2.52,2.5192,0.0,2.5525,2.6175,2.6518,2.6766,2.745,2.7712,2.7588,0.0,2.5789,2.4891,0.0,0.0,0.0,0.0,0.0,0.0,0.0,0.0,0.0,0.0,0.0,0.0,2.2854,2.3833,2.47,0.0,0.0,0.0,0.0,0.0,0.0,0.0,0.0,0.0,0.0,0.0,0.0,0.0,0.0,0.0,0.0,0.0,2.9801,3.0447,3.1042,3.1402,3.1402,3.144,3.144,3.144,3.1443,3.15,3.1578,3.1579,3.1671,3.18,3.18,3.18,3.18,3.18,3.18,3.18,3.18,3.18,3.18,3.1857,3.2794,3.4177,3.4352,3.531,3.6623,3.6623,3.6544,3.6444,1.5748,1.6331,1.6905,1.7418,1.8009,1.8557,1.902,1.9222,1.9315,1.9387,1.9782,2.02,2.0606,2.0643,2.0674,2.0737,2.0745,2.062,2.0375,2.0377,2.0068,1.9322,1.9381,1.9282,1.8947,1.9004,1.9283,1.975,1.9819,2.0068,2.0504,2.0574,2.0837,2.1289,2.2127,2.296,2.3811,2.4677,2.5522,2.6291,2.6305,0.0,2.6392,2.7238,2.7541,2.7593,2.8018,2.8157,2.8022,2.7149,2.653,0.0,0.0,2.4432,2.3807,0.0,2.1868,2.0979,0.0,0.0,0.0,2.0384,0.0,0.0,0.0,2.3437,2.4228,0.0,0.0,0.0,0.0,0.0,0.0,0.0,0.0,0.0,0.0,0.0,0.0,0.0,0.0,0.0,0.0,0.0,2.9382,2.9757,3.0508,3.0952,3.0952,3.1293,3.1498,3.1498,3.1538,3.1559,3.1598,3.1671,3.1727,3.18,3.18,3.18,3.18,3.18,3.18,3.18,3.18,3.1819,3.1873,3.2309,3.3215,3.4352,3.4312,3.5288,3.6702,3.6702,3.6643,3.6602,1.6342,1.7078,1.7719,1.7859,1.8576,1.9168,1.924,1.949,1.977,2.0013,2.0643,2.1336,2.198,2.2055,2.2085,2.2121,2.2154,2.1934,2.1394,2.1362,2.1113,2.0532,2.0393,2.0393,2.0477,2.0362,2.0352,2.0427,2.0471,2.0506,2.0511,2.0756,2.123,2.1914,2.29,2.3731,2.4468,2.5494,0.0,2.6911,0.0,2.7279,2.7225,2.8096,2.8438,2.8446,2.8544,2.8475,2.8214,2.7516,0.0,2.6569,2.5854,2.4986,0.0,0.0,0.0,0.0,0.0,0.0,0.0,0.0,0.0,2.2081,0.0,0.0,0.0,2.3747,0.0,0.0,0.0,0.0,0.0,0.0,0.0,0.0,0.0,0.0,0.0,0.0,0.0,0.0,0.0,0.0,2.9093,2.9093,2.983,3.0344,3.0481,3.1064,3.1458,3.1614,3.1671,3.1691,3.1691,3.1801,3.1873,3.1873,3.1873,3.1838,3.1819,3.1819,3.1819,3.1819,3.1819,3.1943,3.2208,3.2868,3.3779,3.4731,3.4673,3.5525,3.6763,3.6763,3.6725,3.6705,1.8104,1.8406,1.8708,1.891,1.9119,1.932,1.9452,2.0197,2.104,2.1877,2.2079,2.2154,2.2267,2.2267,2.2262,2.2284,2.2336,0.0,2.2262,0.0,2.2331,2.2321,2.1632,2.1312,2.1444,2.0743,2.0415,2.0482,2.0492,2.0539,2.0618,2.1385,2.1777,2.1888,2.3522,2.4308,2.4496,0.0,2.6787,0.0,2.8485,2.8651,0.0,2.8932,2.9271,2.9361,3.006,2.9822,2.9143,0.0,2.7989,2.6664,0.0,2.5824,0.0,0.0,0.0,0.0,0.0,0.0,0.0,0.0,2.2347,0.0,0.0,0.0,2.3966,2.3886,0.0,0.0,0.0,0.0,0.0,0.0,0.0,0.0,0.0,0.0,0.0,0.0,0.0,0.0,0.0,0.0,0.0,2.8667,2.9414,3.0144,3.0803,3.0924,3.1307,3.2002,3.2037,3.2037,3.2037,3.2055,3.2072,3.2072,3.2072,3.1984,3.1876,3.1876,3.1876,3.1876,3.1876,3.2329,3.3082,3.3278,3.4223,3.5553,3.5551,3.6136,3.6968,3.6968,3.6888,3.6788,1.8565,1.8798,1.9034,1.9243,1.977,2.0228,2.0392,2.1236,2.2136,2.2994,2.3107,2.3297,2.382,0.0,0.0,0.0,0.0,2.3733,0.0,0.0,2.3125,2.2729,2.2383,2.2252,2.2357,2.2059,2.1917,2.1947,2.1982,2.203,2.2066,2.2422,2.2849,2.3346,2.4076,0.0,2.5899,0.0,2.7385,0.0,0.0,0.0,0.0,3.0132,3.0062,3.007,3.0414,3.0318,2.9931,0.0,2.8724,0.0,0.0,0.0,0.0,0.0,0.0,0.0,0.0,0.0,0.0,0.0,0.0,0.0,0.0,0.0,2.4105,0.0,0.0,0.0,0.0,0.0,0.0,0.0,0.0,0.0,0.0,0.0,0.0,0.0,0.0,0.0,0.0,0.0,0.0,0.0,0.0,2.9576,3.0277,3.0731,3.1307,3.2073,3.209,3.209,3.209,3.209,3.209,3.209,3.209,3.2073,3.2019,3.2019,3.2019,3.2019,3.2019,3.2526,3.3366,3.3912,3.4827,3.5918,3.6434,3.6805,3.7068,3.7163,3.7143,3.7085,1.9543,1.9538,1.9573,1.9778,2.0602,2.1378,2.1784,2.2435,2.3265,2.4332,2.4447,0.0,2.5634,2.5697,0.0,0.0,2.5736,2.5514,0.0,0.0,2.4626,2.3875,2.3638,0.0,0.0,2.3091,2.3003,2.3032,2.3085,2.3108,2.3103,2.334,2.3783,2.4411,2.488,2.5749,2.6904,0.0,2.8194,2.9337,2.9781,3.0823,3.2031,3.1477,3.1216,3.113,3.0884,3.0791,3.0678,2.9792,2.9316,0.0,2.8316,0.0,0.0,0.0,0.0,0.0,2.4014,0.0,0.0,0.0,0.0,0.0,0.0,0.0,0.0,0.0,0.0,0.0,0.0,0.0,0.0,2.1449,0.0,0.0,0.0,0.0,0.0,0.0,0.0,0.0,0.0,0.0,0.0,0.0,2.8018,0.0,2.9634,3.0407,3.1145,3.1899,3.2144,3.2249,3.2249,3.2249,3.2249,3.2249,3.2249,3.2214,3.2179,3.2179,3.2144,3.2126,3.2179,3.2791,3.3844,3.4514,3.5397,3.6423,3.7066,3.726,3.7185,3.7278,3.7297,3.7278,2.1663,2.1078,2.0614,2.083,2.1675,2.2659,2.3576,0.0,0.0,0.0,0.0,0.0,0.0,0.0,0.0,0.0,0.0,2.7599,2.7586,0.0,2.7325,0.0,2.5725,2.4942,0.0,2.3403,2.3022,2.3101,2.3097,2.3094,2.3124,2.3963,2.4363,2.4477,2.6096,2.6819,2.6913,2.8524,2.9255,2.9438,3.0998,3.2122,3.2871,0.0,3.2871,3.2705,3.1865,0.0,0.0,3.056,2.971,0.0,0.0,0.0,0.0,0.0,0.0,0.0,0.0,0.0,0.0,2.4607,0.0,0.0,0.0,0.0,2.4367,0.0,0.0,0.0,0.0,0.0,2.1662,2.1589,2.1534,0.0,0.0,0.0,0.0,0.0,0.0,0.0,0.0,0.0,0.0,2.6863,2.6952,2.7599,2.9051,2.9882,3.0694,3.1492,3.2218,3.2589,3.2589,3.2589,3.2589,3.2589,3.2589,3.2523,3.2388,3.2388,3.2319,3.2197,3.2336,3.3301,3.4764,3.4942,3.5898,3.7261,3.7355,3.7393,3.7374,3.7316,3.7297,3.7297,2.2021,2.2341,2.2433,2.1978,0.0,0.0,0.0,2.5672,0.0,0.0,0.0,0.0,0.0,0.0,2.7832,0.0,0.0,2.783,2.7827,2.7848,0.0,0.0,0.0,2.6757,0.0,0.0,2.5332,2.4828,2.4829,2.4821,2.4824,2.5111,2.5544,2.6084,2.6641,2.7487,0.0,0.0,0.0,0.0,0.0,3.337,3.3505,0.0,0.0,3.2793,3.2505,3.237,0.0,3.1365,3.0865,3.0476,2.9882,2.9096,2.8334,2.8039,2.7456,0.0,0.0,0.0,2.5555,2.5514,0.0,0.0,0.0,0.0,0.0,0.0,0.0,0.0,0.0,2.115,2.0165,2.0154,2.0085,2.0034,0.0,0.0,0.0,0.0,0.0,0.0,0.0,0.0,0.0,2.6997,2.7092,2.7763,2.9283,2.9622,3.0342,3.158,3.1864,3.2254,3.2786,3.2786,3.2787,3.2722,3.2722,3.2657,3.254,3.254,3.2523,3.2507,3.307,3.3935,3.4977,3.5598,3.6505,3.7521,3.7559,3.7649,3.7703,3.7558,3.7503,3.7503,2.3126,2.3687,0.0,0.0,0.0,0.0,0.0,0.0,0.0,0.0,2.8408,0.0,2.9259,0.0,2.9413,0.0,2.9471,2.9288,2.9298,2.9019,0.0,2.8476,2.8493,0.0,0.0,0.0,2.7123,2.6615,2.632,2.6152,2.6151,2.6138,2.6407,2.692,2.7529,2.8346,2.9332,2.9902,3.0719,0.0,0.0,3.4113,0.0,0.0,3.3601,3.3578,0.0,3.3142,3.2967,3.2164,3.1669,3.1279,3.0693,2.9905,2.9129,2.8829,2.8258,2.7652,2.7388,2.6868,0.0,0.0,2.5756,0.0,2.508,0.0,0.0,0.0,0.0,0.0,0.0,0.0,1.9837,1.9523,1.9431,1.9416,0.0,1.9416,0.0,0.0,0.0,0.0,0.0,0.0,2.4802,2.6333,2.673,2.7432,0.0,0.0,3.0162,3.141,3.1733,3.2253,3.3026,3.3044,3.2997,3.2918,3.2918,3.2852,3.2737,3.2721,3.2688,3.2709,3.3489,3.4321,3.5172,3.6043,3.6916,3.7721,3.7757,3.7828,3.7881,3.7739,3.7703,3.7703,2.4941,0.0,0.0,0.0,2.5587,0.0,0.0,0.0,2.8469,0.0,2.9439,3.0071,3.1781,3.1917,3.2198,3.303,3.2353,0.0,3.1874,3.1157,0.0,0.0,2.9527,2.9142,2.8352,0.0,0.0,0.0,2.7474,2.705,2.7067,2.7005,2.6989,2.7098,2.868,0.0,2.9458,3.1025,3.1702,3.184,3.3356,3.441,3.5084,3.5011,0.0,3.4988,3.4151,3.3847,3.3733,3.2917,3.2099,3.1407,3.1355,3.0707,2.9786,2.8958,2.8638,2.8382,2.7621,2.7351,2.7261,2.7261,0.0,0.0,0.0,0.0,2.4738,0.0,0.0,0.0,0.0,0.0,2.063,1.9808,1.9643,1.9615,1.9615,0.0,0.0,0.0,0.0,0.0,0.0,2.2803,2.3419,2.4943,2.5804,2.6588,0.0,0.0,3.0079,3.0908,3.1723,3.2495,3.3253,3.3289,3.3244,3.3117,3.3117,3.3088,3.2995,3.2932,3.2886,3.2859,3.3643,3.4476,3.5397,3.6289,3.7164,3.7899,3.7899,3.7916,3.7916,3.7899,3.7899,3.7899,2.5869,2.6677,2.7217,0.0,2.742,2.7966,0.0,0.0,0.0,0.0,3.1306,3.1715,3.2822,3.2878,3.292,3.3153,3.2978,0.0,0.0,0.0,0.0,3.2278,3.1673,3.0959,3.0154,2.9501,0.0,2.8296,2.8086,2.7965,2.7956,2.7906,2.8182,2.8771,2.9154,2.9657,3.0244,3.1226,3.2276,3.3387,3.4285,3.4774,0.0,0.0,3.4859,3.485,3.4671,3.4576,3.4415,3.361,3.3147,3.2836,3.2241,3.1438,3.0673,3.0448,2.9903,2.9351,2.9143,2.861,2.8097,2.8097,2.7512,2.697,0.0,0.0,0.0,0.0,0.0,0.0,0.0,0.0,0.0,2.0694,2.0131,1.975,0.0,0.0,0.0,0.0,0.0,0.0,0.0,2.2262,2.3336,2.4285,2.5108,2.6165,0.0,0.0,0.0,3.0199,3.1037,3.1829,3.2619,3.3215,3.3466,3.3334,3.3334,3.3244,3.307,3.3055,3.3024,3.3098,3.4478,3.5229,3.5549,3.6966,3.7718,3.7984,3.8018,3.8136,3.8238,3.7985,3.7899,3.7899,2.693,0.0,0.0,2.8695,0.0,0.0,2.9997,0.0,0.0,3.2439,3.2614,0.0,3.3782,3.3826,3.3972,3.4341,3.403,0.0,0.0,0.0,0.0,3.3334,3.2878,3.2391,3.1945,3.1089,0.0,2.9961,0.0,2.8815,2.8816,2.876,2.8949,2.9366,2.971,3.0289,3.1053,3.2141,3.3284,3.4361,3.4737,0.0,0.0,3.4749,3.4708,3.4708,3.4699,3.4722,3.4725,3.4291,3.3846,3.342,3.2968,3.2241,3.1525,3.1525,3.1158,3.0669,3.033,2.987,2.9411,2.9062,2.8383,2.7834,2.7859,2.7215,2.6525,0.0,0.0,0.0,0.0,0.0,0.0,2.1205,2.0401,0.0,0.0,0.0,0.0,0.0,0.0,0.0,0.0,2.166,2.2881,2.3648,2.4772,2.5986,0.0,0.0,0.0,3.0131,3.0918,3.1704,3.2482,3.3259,3.3591,3.3495,3.3495,3.3404,3.3268,3.3241,3.3229,3.327,3.4824,3.5524,3.5717,3.7318,3.8036,3.8138,3.8203,3.8302,3.8366,3.8188,3.8105,3.8072,2.8067,0.0,0.0,0.0,0.0,0.0,0.0,3.1857,0.0,3.3462,0.0,3.3871,3.469,3.4776,3.5083,3.5841,0.0,3.4772,3.4772,3.4072,3.3689,3.3735,3.3629,3.3565,3.3578,3.2729,0.0,0.0,0.0,2.9836,2.9823,2.9647,2.9528,2.9508,3.0355,3.1174,0.0,3.3303,3.4274,3.4908,3.5002,3.4991,3.4927,3.4803,3.476,3.47,3.4487,3.4539,3.4747,3.4747,3.4239,3.3626,3.3626,3.3031,3.2332,3.2332,3.2219,3.1954,3.125,3.1062,3.0875,3.0067,2.9332,2.8822,2.8779,2.8097,2.7285,2.6605,2.6284,0.0,0.0,0.0,0.0,2.1646,0.0,0.0,0.0,0.0,0.0,0.0,0.0,0.0,0.0,0.0,2.2322,2.3023,2.4567,0.0,0.0,0.0,0.0,3.0212,3.0966,0.0,3.2449,0.0,3.3575,3.3601,3.3601,3.3577,3.3506,3.3437,3.3382,3.3412,3.4905,3.5624,3.5847,3.7468,3.8203,3.8322,3.8401,3.8415,3.8449,3.8449,3.8385,3.8322,0.0,0.0,0.0,0.0,0.0,3.3351,3.3935,3.3538,3.3491,3.4369,3.4466,0.0,3.5654,3.575,3.5828,3.5965,3.5848,0.0,0.0,0.0,0.0,3.5537,3.4868,3.4464,3.4466,3.3613,3.3178,0.0,0.0,3.1616,3.1551,3.0805,3.0436,3.0406,3.1177,3.225,3.3505,3.3663,0.0,3.4955,3.5497,3.5684,3.5619,3.5608,3.557,3.5411,3.4659,3.4439,3.4473,3.4473,3.4379,3.4248,3.4248,3.3716,3.3112,3.3112,3.2637,3.2067,3.1936,3.1898,3.1701,3.097,3.0677,3.0411,2.9803,2.9042,2.843,2.8336,2.7224,2.6169,2.5873,0.0,0.0,0.0,0.0,0.0,0.0,0.0,0.0,0.0,0.0,0.0,0.0,0.0,0.0,0.0,0.0,0.0,0.0,0.0,0.0,0.0,0.0,0.0,0.0,0.0,3.3146,3.3684,3.3684,3.3661,3.3577,3.3506,3.3481,3.3557,3.5154,3.5844,3.6002,3.7662,3.8399,3.8462,3.8478,3.8544,3.8643,3.8643,3.8578,3.8446,0.0,0.0,0.0,0.0,0.0,0.0,0.0,3.5078,0.0,3.5992,3.605,3.6382,3.7242,3.7359,3.7359,3.7359,3.7359,3.7359,3.7359,3.7359,3.7143,3.6694,3.6269,0.0,3.5371,3.4482,3.4017,3.4028,0.0,3.2683,3.2613,3.2167,3.193,3.1922,3.2589,3.3281,0.0,0.0,0.0,3.5491,3.5741,3.6085,3.641,3.6346,3.6304,3.6168,3.5273,3.4963,3.4919,3.4531,3.4386,3.4386,3.4386,3.4166,3.387,3.3903,3.3655,3.3256,3.2883,3.278,3.2613,3.1864,3.1336,3.092,3.0631,2.9926,2.9223,2.8879,2.8164,2.735,2.651,2.4974,0.0,0.0,0.0,0.0,0.0,0.0,0.0,0.0,0.0,0.0,0.0,0.0,0.0,0.0,0.0,0.0,0.0,0.0,0.0,0.0,0.0,0.0,0.0,0.0,0.0,3.3753,3.3753,3.3712,3.3643,3.3633,3.381,3.4237,3.5439,3.6185,3.6677,3.7922,3.8512,3.8609,3.8609,3.8643,3.8707,3.8707,3.8658,3.8593,0.0,3.3552,0.0,0.0,3.4524,0.0,0.0,3.6513,3.7438,3.7322,3.744,3.7811,3.8494,3.8572,3.8572,3.8572,3.8572,3.8572,3.8572,3.8572,3.828,3.7577,3.7551,3.7233,3.6551,3.5625,3.5149,0.0,0.0,3.3525,3.3444,3.3209,3.3174,3.3323,0.0,0.0,0.0,0.0,3.5577,3.6233,3.6284,3.6672,3.7206,3.7106,3.7043,3.6905,3.6036,3.5726,3.5627,3.487,3.4507,3.4351,3.4351,3.4381,3.4386,3.445,3.4484,3.4375,3.38,3.3634,3.3477,3.2731,3.2043,3.1477,3.1244,3.0673,2.997,2.9236,2.8935,2.8375,2.6931,2.5455,0.0,0.0,0.0,0.0,0.0,0.0,0.0,0.0,0.0,0.0,0.0,0.0,0.0,0.0,0.0,2.5479,2.7127,2.7154,0.0,0.0,0.0,3.0761,3.1597,0.0,3.2912,0.0,3.3807,3.378,3.3726,3.3712,3.4109,3.487,3.5659,3.6605,3.7554,3.8253,3.8609,3.8707,3.8707,3.8707,3.8707,3.8707,3.8707,3.8673,0.0,0.0,0.0,0.0,0.0,0.0,0.0,3.7773,3.8115,3.7399,3.7929,3.8417,3.8495,3.8514,3.8514,3.8514,3.8514,3.8514,3.8514,3.8514,3.8475,3.8397,3.8399,3.8348,3.827,3.7411,3.693,0.0,0.0,3.4356,3.427,3.3475,3.3417,0.0,0.0,0.0,0.0,3.5986,3.6371,3.7061,3.7715,3.7941,3.7901,3.7888,3.7814,3.7599,3.6785,3.6507,3.6377,3.5575,3.4829,3.4221,3.4221,3.4257,3.4305,3.4316,3.4397,3.4487,3.4412,3.4438,3.4314,3.357,3.3326,3.2902,3.1528,3.1128,3.0877,3.0129,2.9396,2.8617,2.7733,2.6841,2.6253,0.0,0.0,0.0,0.0,0.0,0.0,0.0,0.0,0.0,0.0,2.3848,0.0,0.0,2.4966,2.5652,2.7207,2.7232,2.7902,2.9436,0.0,3.0193,3.1597,3.1678,0.0,3.3807,3.3807,3.3807,3.3793,3.3726,3.4137,3.4942,3.5747,3.7021,3.8566,3.8655,3.8692,3.8707,3.8707,3.8707,3.8707,3.8707,3.8707,3.8707,0.0,0.0,0.0,0.0,0.0,0.0,0.0,3.8607,3.9042,3.8724,3.8998,3.9429,3.9933,3.9992,3.9992,3.9992,3.9992,3.9992,3.9992,3.9992,3.9777,3.9234,3.9215,3.8984,3.8449,3.8093,3.7879,0.0,0.0,0.0,0.0,3.4977,0.0,0.0,0.0,3.5968,3.6917,3.6862,3.7205,3.7826,3.8047,3.8376,3.8713,3.8637,3.8568,3.8419,3.7563,3.7258,3.7142,3.6387,3.5601,3.4897,3.4364,3.4221,3.4245,3.4281,3.4381,3.445,3.4495,3.4539,3.4559,3.4324,3.3883,3.3355,3.2815,3.1933,3.1134,3.0877,2.9813,2.8795,2.8471,2.7765,2.7236,0.0,0.0,0.0,0.0,0.0,0.0,0.0,0.0,0.0,0.0,0.0,0.0,0.0,0.0,2.6185,2.7248,2.7734,2.8444,2.9465,0.0,3.0644,3.1597,3.2077,3.2815,3.3807,3.3807,3.3807,3.3825,3.4261,3.5196,3.6512,3.7304,3.8053,3.8707,3.8707,3.8707,3.8707,3.8707,3.8707,3.8707,3.8707,3.8707,3.8707,3.7297,0.0,3.7642,0.0,3.8553,3.8704,3.8666,3.9379,3.9927,3.9927,3.9974,4.028,4.0901,4.0967,4.097,4.097,4.0993,4.0997,4.0997,4.097,4.0698,4.0075,4.005,0.0,3.9155,3.8883,3.8729,3.866,3.7724,0.0,0.0,0.0,0.0,0.0,3.6772,3.7129,3.7747,3.767,3.8037,3.8633,3.8515,3.8766,3.9156,3.905,3.8997,3.8894,3.8249,3.8018,3.7903,3.7161,3.6594,3.6029,3.52,3.4773,3.4599,3.4672,3.4545,3.4397,3.4484,3.4539,3.4634,3.4747,3.4326,3.3846,3.3686,3.2776,3.1808,3.1385,3.0202,2.9258,2.926,2.8612,2.8096,2.8152,0.0,0.0,0.0,0.0,0.0,0.0,0.0,2.6041,2.5965,0.0,0.0,0.0,0.0,0.0,2.7665,2.8209,0.0,0.0,0.0,0.0,0.0,3.241,3.3128,3.3807,3.3807,3.3917,3.4192,3.5243,3.6376,3.7547,3.834,3.8707,3.8707,3.8707,3.8707,3.8707,3.8707,3.8707,3.8707,3.8707,3.8707,3.8707,3.8305,3.8292,3.8277,3.8211,3.8911,3.9486,3.9495,4.0172,4.07,4.07,4.0744,4.0815,4.0883,4.0896,4.0909,4.0909,4.0964,4.0996,4.0996,4.0941,4.0909,0.0,0.0,4.0883,4.0863,4.0023,3.9558,3.9481,0.0,0.0,3.798,0.0,3.7789,3.7675,3.7623,3.7973,3.8583,3.8508,3.8836,3.9386,3.9386,3.9275,3.9087,3.9021,3.895,3.8877,3.8818,3.8788,3.8674,3.794,3.7715,3.7637,3.6901,3.6123,3.5504,3.5566,3.5011,3.4397,3.4484,3.4539,3.4623,3.4676,3.4739,3.4582,3.3781,3.3639,3.322,3.1632,3.0639,3.0082,3.0082,2.9478,2.8983,2.8989,0.0,0.0,0.0,0.0,0.0,0.0,2.7876,2.783,2.7787,0.0,0.0,0.0,0.0,0.0,0.0,0.0,0.0,2.9483,3.0277,0.0,3.1597,3.241,3.3128,3.3807,3.3807,3.4229,3.5041,3.6707,3.7474,3.7547,3.834,3.8707,3.8707,3.8707,3.8707,3.8707,3.8707,3.8707,3.8707,3.8707,3.8707,3.8707,3.9013,3.9048,3.9168,3.9734,4.0035,4.0174,4.0179,4.0432,4.0626,4.0626,4.0654,4.09,4.1513,4.112,4.0829,0.0,4.0854,4.0859,0.0,4.0835,4.0829,4.0829,4.0828,4.0832,4.0823,4.0529,4.0339,4.0314,0.0,0.0,0.0,3.7908,3.8117,3.8499,3.8413,3.8727,3.9346,3.9235,3.9258,3.9391,3.9301,3.9202,3.9087,3.8979,3.8925,3.8896,3.878,3.8765,3.877,3.8586,3.8566,3.8581,3.8405,3.7411,3.634,3.6404,3.5888,3.5294,3.5364,3.4989,3.4623,3.4676,3.4758,3.4733,3.4537,3.4074,3.3239,3.1632,3.1094,3.0746,3.0208,2.9913,2.9758,2.9812,0.0,0.0,0.0,0.0,0.0,0.0,2.7895,2.7868,0.0,2.78,0.0,0.0,0.0,0.0,0.0,0.0,0.0,0.0,3.1136,0.0,3.241,3.3222,3.3694,3.3807,3.3807,3.4523,3.5917,3.7015,3.7804,3.8322,3.8597,3.8707,3.8707,3.8707,3.8707,3.8707,3.8707,3.8707,3.8707,3.8707,3.8707,3.8707,3.9734,3.9769,3.9872,4.0423,4.05,4.0575,4.0902,4.0984,4.1115,4.1415,4.149,4.172,4.2252,4.1963,0.0,4.1736,4.1747,4.174,4.177,4.1443,4.1257,4.1257,4.0905,4.0732,4.0726,0.0,0.0,4.066,4.0041,3.9446,3.8829,3.8791,3.8963,3.9347,3.9209,3.9356,3.9689,3.9606,3.9508,3.9386,3.9315,3.9215,3.9087,3.895,3.891,3.8896,3.878,3.8762,3.8822,3.891,3.8983,3.9007,3.9101,3.8454,3.7594,3.736,3.6764,3.6201,3.626,3.5706,3.5101,3.5133,3.4942,3.4788,3.4877,3.4283,3.342,3.2403,3.1954,3.1504,3.0696,3.0582,3.0505,3.0244,0.0,2.9475,0.0,0.0,0.0,0.0,0.0,0.0,0.0,2.8727,0.0,0.0,0.0,0.0,0.0,0.0,0.0,3.0688,3.1835,0.0,3.2834,3.3604,3.3947,3.3847,3.4444,3.5454,3.6824,3.7629,3.8287,3.878,3.878,3.878,3.878,3.878,3.878,3.878,3.878,3.8765,3.8735,3.8735,3.8719,3.8707,4.0422,4.0397,0.0,0.0,4.0475,0.0,4.1634,4.1768,4.2055,4.2794,4.296,4.3019,4.3077,4.3208,4.3323,4.3459,0.0,0.0,0.0,4.2576,4.208,4.208,4.1247,4.0788,4.0788,4.0781,4.0779,4.0773,4.0688,4.0622,4.0551,4.0424,4.0339,4.0278,4.0057,3.9909,3.9783,3.9724,3.9571,3.9405,3.9391,3.9275,3.9087,3.895,3.891,3.891,3.8837,3.8822,3.8837,3.8968,3.8993,3.9021,3.9156,3.9197,3.9075,3.8394,3.7667,3.7103,3.7174,3.6592,3.5972,3.5972,3.5378,3.4793,3.4886,3.4321,3.3771,3.3714,3.3105,3.2343,3.1526,3.1439,3.1215,3.0407,3.0282,3.0291,3.0292,0.0,0.0,0.0,0.0,0.0,0.0,3.0425,3.0352,0.0,0.0,0.0,0.0,0.0,3.1073,3.0874,3.2395,3.3126,3.2969,3.3666,3.3991,3.4018,3.5643,3.682,3.7628,3.8438,3.8851,3.891,3.891,3.891,3.891,3.891,3.891,3.891,3.891,3.8848,3.8807,3.8807,3.8765,3.8707,0.0,0.0,4.0525,4.1196,4.1265,4.1533,4.2412,4.2537,4.2603,4.2795,4.2879,4.3202,4.391,4.4013,4.4333,4.5078,4.3959,4.3229,4.3255,4.3048,4.2925,4.2925,4.2698,4.2587,4.2587,4.2526,4.2471,4.2428,4.2349,4.2295,4.224,4.2154,4.2066,4.1982,4.1173,4.0764,4.0644,3.9883,3.9495,3.9391,3.9301,3.9202,3.9087,3.9007,3.8983,3.8983,3.891,3.8925,3.8968,3.8979,3.9036,3.9087,3.917,3.9269,3.9335,3.92,3.8565,3.7928,3.8007,3.7418,3.6828,3.6828,3.6205,3.548,3.5019,3.4756,3.4443,3.3818,3.3552,3.3172,3.2353,3.2226,3.1993,3.1234,3.1126,3.0913,3.0311,0.0,0.0,0.0,3.1296,3.1532,3.2149,3.2192,3.2141,0.0,0.0,0.0,0.0,3.2581,3.2822,3.2611,3.2993,3.3406,3.3802,3.3994,3.4382,3.4982,3.6597,3.7483,3.77,3.8512,3.8877,3.891,3.891,3.891,3.891,3.891,3.891,3.891,3.891,3.8896,3.8881,3.8822,3.8792,3.8854,4.1494,4.1475,4.159,4.2068,4.2126,4.2374,4.3233,4.3349,4.3483,4.3895,4.4011,4.4241,4.4758,4.4833,4.5042,4.5556,4.4826,4.4345,4.4349,4.396,4.3759,4.3759,4.3335,4.3118,4.3118,4.3038,4.2996,4.2954,4.2889,4.2842,4.2795,4.2698,4.2635,4.2572,4.1904,4.1578,4.1511,4.0904,4.0587,4.0456,4.0024,3.9774,3.964,3.917,3.8993,3.9011,3.895,3.8964,3.8993,3.9036,3.9087,3.9156,3.9256,3.9373,3.9457,3.9533,3.9208,3.8845,3.8882,3.8281,3.7549,3.7185,3.6506,3.5808,3.5438,3.5102,3.4735,3.4339,3.4254,3.3999,3.3191,3.3066,3.2843,3.2072,3.1958,3.1813,3.1451,3.1421,0.0,3.2088,3.2151,3.2321,3.2766,3.2763,3.2711,3.2616,0.0,0.0,3.2864,3.3638,3.383,3.3261,3.3575,3.3888,3.4197,3.4525,3.5277,3.6399,3.7285,3.7923,3.8345,3.8789,3.9036,3.9124,3.9124,3.9124,3.9124,3.9124,3.9078,3.905,3.905,3.9007,3.8935,3.8892,3.9091,3.9418,4.2804,4.2794,4.2832,4.2966,4.2985,4.3271,4.4064,4.4197,4.4456,4.5201,4.5348,4.5398,4.5408,4.5448,4.5485,4.5485,4.5586,4.5665,4.5676,4.4961,4.4551,4.4551,4.3801,4.3365,4.3365,4.332,4.3273,4.3273,4.3207,4.3159,4.3149,4.3046,4.2971,4.2949,4.2569,4.2391,4.2391,4.2107,4.1924,4.1759,4.1054,4.071,4.049,3.9569,3.9211,3.9174,3.9063,3.9007,3.9021,3.9087,3.9156,3.9229,3.9373,3.9457,3.9508,3.9583,3.962,3.962,3.962,3.9076,3.8324,3.7509,3.681,3.623,3.5967,3.5436,3.496,3.4886,3.4887,3.4699,3.4017,3.3931,3.3719,3.2906,3.2776,3.2786,3.2768,0.0,3.2824,3.2974,3.2984,3.3019,3.3153,3.3104,3.305,3.2969,3.3608,3.391,0.0,3.4402,3.4463,3.3711,3.414,3.4426,3.4467,3.5342,3.6451,3.7752,3.7863,3.8354,3.9161,3.9161,3.9248,3.9405,3.9405,3.9405,3.9405,3.9405,3.9328,3.9242,3.921,3.9208,3.9207,3.9192,3.9608,4.024,4.2794,4.2794,4.3004,4.3701,4.3815,4.4102,4.4972,4.5105,4.5144,4.5288,4.5307,4.5338,4.5379,4.5399,4.5429,4.541,4.5429,4.5466,4.5531,4.5351,4.5246,4.5246,4.5112,4.5036,4.5036,4.5016,4.5016,4.5016,4.4937,4.4885,4.4843,4.4748,4.468,4.4585,4.3699,4.3291,4.324,4.237,4.1965,4.1865,4.1698,4.1572,4.1394,4.0508,4.0183,4.009,3.9347,3.9087,3.9087,3.9156,3.9183,3.9224,3.9425,3.9482,3.9508,3.9583,3.9645,3.9681,3.9681,3.9585,3.93,3.8482,3.8181,3.772,3.6306,3.5901,3.561,3.496,3.4858,3.4859,3.4737,3.4718,3.4481,3.3738,3.361,3.3386,3.2721,0.0,3.3001,3.3723,3.3811,3.4071,3.4759,3.4827,3.4786,3.4721,3.4826,3.484,3.4679,3.4762,3.5003,3.5483,3.4776,3.4694,3.5318,3.6779,3.7665,3.7966,3.8635,3.9104,3.9346,3.9346,3.936,3.9405,3.9405,3.9405,3.9405,3.9405,3.9391,3.936,3.9242,3.963,4.0254,4.0073,4.0552,4.1336,4.415,4.415,4.4265,4.4647,4.4704,4.4838,4.5239,4.5307,4.5307,4.5307,4.5307,4.5317,4.5338,4.5388,4.5399,4.54,4.54,4.5409,4.5438,4.5419,4.54,4.54,4.54,4.539,4.536,4.5309,4.5297,4.5297,4.5233,4.5181,4.5148,4.508,4.5026,4.4979,4.4386,4.4146,4.4108,4.3574,4.331,4.3203,4.2665,4.2412,4.2247,4.1392,4.0773,4.036,3.9937,3.9491,3.9115,3.9183,3.9256,3.9328,3.9469,3.952,3.9571,3.9633,3.9681,3.9705,3.9691,3.9696,3.9606,3.9229,3.8826,3.8297,3.7472,3.6586,3.5851,3.5482,3.507,3.4809,3.4887,3.4898,3.4804,3.4499,3.445,0.0,0.0,3.4026,3.4203,3.4598,3.4655,3.4789,3.5171,3.5204,3.5162,3.512,3.5066,3.5192,3.5521,3.548,3.5794,3.6588,3.6077,3.6154,3.6889,3.7653,3.8249,3.8755,3.9133,3.9367,3.9452,3.9452,3.9489,3.9552,3.9552,3.9552,3.957,3.9552,3.9527,3.9489,3.9861,4.021,4.0538,4.0876,4.149,4.2177,4.5307,4.5307,4.5307,4.5307,4.5307,4.5307,4.5307,4.5307,4.5307,4.5307,4.5307,4.5307,4.5307,4.5338,4.5388,4.5388,4.5388,4.5388,4.5388,4.5351,4.5351,4.539,4.536,4.5317,4.5246,4.5203,4.5181,4.5181,4.5125,4.5103,4.508,4.5014,4.4979,4.4955,4.477,4.4712,4.4699,4.457,4.4473,4.4355,4.36,4.3266,4.3133,4.2229,4.1367,4.0657,4.0471,3.9858,3.9129,3.9229,3.9328,3.9444,3.9495,3.9571,3.9645,3.9681,3.9717,3.9715,3.9712,3.9735,3.9754,3.9754,3.9275,3.8754,3.8478,3.7431,3.6384,3.5982,3.541,3.4963,3.4895,3.4887,3.4926,3.4974,0.0,0.0,0.0,3.5191,3.5198,3.5204,3.5201,3.5209,3.5209,3.5378,3.545,3.5378,3.5504,3.5818,3.6374,3.635,3.6683,3.7446,3.7338,3.7542,3.8097,3.8302,3.8763,3.9431,3.9425,3.9483,3.9545,3.9539,3.9599,3.9701,3.9701,3.9701,3.9689,3.9691,3.9756,3.9902,4.0496,4.0884,4.119,4.1758,4.2434,4.3036,4.5307,4.5307,4.5307,4.5307,4.5307,4.5307,4.5307,4.5307,4.5307,4.5307,4.5307,4.5307,4.5307,4.5307,4.5307,4.5307,4.5307,4.5307,4.5307,4.5246,4.5235,4.5288,4.5246,4.5181,4.5114,4.5114,4.5114,4.5114,4.5103,4.508,4.5022,4.4991,4.4955,4.4895,4.4757,4.4712,4.4699,4.457,4.4501,4.4487,4.4283,4.4206,4.4084,4.3081,4.2203,4.1404,4.0661,3.9886,3.921,3.9346,3.9444,3.9495,3.9583,3.9645,3.9693,3.9693,3.9738,3.9792,3.9792,3.9826,3.9889,3.9889,3.9851,3.9583,3.8697,3.8411,3.7849,3.6231,3.5848,3.5601,3.4939,3.4858,3.4888,3.4908,0.0,0.0,3.5011,3.5129,3.52,3.5208,3.5204,3.5209,3.5209,3.5866,3.6279,3.6215,3.691,3.7318,3.7296,3.7301,3.7605,3.8293,3.8182,3.8103,3.8097,3.89,3.9375,3.9495,3.9483,3.9564,3.9693,3.9684,3.9689,3.9701,3.9701,3.9701,3.9701,3.9689,4.0125,4.0798,4.0791,4.1702,4.2988,4.2864,4.3346,4.406,4.5307,4.5307,4.5307,4.5307,4.5307,4.5307,4.5307,4.5307,4.5307,4.5307,4.5307,4.5307,4.5307,4.5256,4.5254,4.5254,4.5192,4.517,4.517,4.5159,4.5148,4.517,4.5159,4.5125,4.5103,4.5068,4.5045,4.5045,4.501,4.4955,4.4931,4.4931,4.4895,4.4833,4.4732,4.4685,4.4632,4.4537,4.4501,4.4487,4.4358,4.43,4.4248,4.3732,4.2723,4.1568,4.1314,4.0337,3.9242,3.9399,3.9482,3.9508,3.9583,3.9645,3.9717,3.975,3.9811,3.9848,3.9848,3.9878,3.99,3.99,3.99,3.9802,3.9395,3.8897,3.8294,3.7593,3.6618,3.581,3.5536,3.5118,3.4839,3.4898,0.0,3.4945,3.5001,3.5038,3.5084,3.5138,3.5593,3.5879,3.5879,3.6605,3.7062,3.7043,3.728,3.7667,3.8178,3.8637,3.9003,3.9197,3.9168,3.9107,3.9027,3.9364,3.9571,3.962,3.9607,3.9679,3.9754,3.9758,3.9781,3.9834,3.9834,3.9834,3.9823,3.9781,4.0233,4.1003,4.145,4.2248,4.3245,4.3631,4.3964,4.4169,4.5307,4.5307,4.5307,4.5307,4.5307,4.5307,4.5307,4.5286,4.5275,4.5275,4.5254,4.5243,4.5243,4.5192,4.517,4.517,4.5125,4.5103,4.5103,4.5091,4.508,4.508,4.508,4.5068,4.5045,4.4979,4.4955,4.4955,4.4919,4.4895,4.4895,4.487,4.4833,4.4802,4.4712,4.4646,4.4592,4.4528,4.4501,4.4487,4.4358,4.43,4.4248,4.3788,4.2779,4.1586,4.1384,4.044,3.9301,3.9457,3.9508,3.9546,3.9596,3.9638,3.9722,3.9811,3.9848,3.99,3.99,3.99,3.99,3.99,3.99,3.9889,3.9815,3.9324,3.8795,3.8474,3.7464,3.6584,3.634,3.5679,3.5166,3.5255,3.5049,3.5022,3.5334,3.5391,3.5533,3.5826,3.6358,3.671,3.671,3.7443,3.7907,3.7907,3.8085,3.8452,3.9039,3.9534,3.9789,3.9734,3.971,3.9674,3.9645,3.962,3.9645,3.9693,3.9686,3.9738,3.9804,3.9815,3.9867,3.99,3.99,3.99,3.9919,4.0151,4.0688,4.1455,4.2234,4.2978,4.3648,4.4123,4.4255,4.4199,4.5307,4.5307,4.5307,4.5307,4.5307,4.5307,4.5297,4.5235,4.5192,4.5192,4.5148,4.5103,4.5103,4.5103,4.5103,4.5103,4.5103,4.5103,4.5103,4.5045,4.4991,4.4991,4.4991,4.4955,4.4895,4.4895,4.4895,4.4895,4.4895,4.4895,4.4895,4.4821,4.4796,4.4783,4.4659,4.4592,4.4592,4.4528,4.4501,4.4487,4.4358,4.43,4.4192,4.3174,4.2296,4.1493,4.0784,4.0029,3.9418,3.9482,3.9546,3.9589,3.9589,3.9644,3.9724,3.9867,3.99,3.99,3.99,3.99,3.99,3.99,3.99,3.9889,3.9815,3.9747,3.9463,3.8587,3.8348,3.8068,3.7329,3.6512,3.5951,3.6086,3.5436,3.5219,3.6083,3.6264,3.6597,3.7394,3.7547,3.7614,3.7614,3.8336,3.88,3.88,3.9477,3.99,3.99,3.9826,3.9804,3.9804,3.9735,3.9696,3.9693,3.9645,3.9645,3.9693,3.9715,3.9735,3.9804,3.9878,3.99,3.99,3.99,3.99,3.9976,4.0828,4.16,4.2291,4.3152,4.3922,4.4487,4.4344,4.43,4.4255,4.5307,4.5307,4.5307,4.5307,4.5307,4.5286,4.5243,4.5203,4.5181,4.5136,4.5114,4.5103,4.5103,4.5068,4.5026,4.5026,4.4998,4.4955,4.4955,4.4931,4.4919,4.4919,4.4919,4.4919,4.4895,4.4895,4.4895,4.4895,4.4895,4.4889,4.4821,4.4808,4.4764,4.4659,4.4619,4.4565,4.4528,4.4515,4.4468,4.4411,4.4344,4.427,4.4121,4.3177,4.2326,4.1566,4.0831,4.0096,3.9482,3.9558,3.9577,3.9602,3.9668,3.9684,3.9724,3.9867,3.99,3.99,3.99,3.99,3.99,3.99,3.99,3.9889,3.9815,3.9747,3.9632,3.9366,3.878,3.8225,3.8005,3.7344,3.6825,3.6877,3.6707,3.6665,3.694,3.7039,3.7155,3.7402,3.7981,3.8371,3.8371,3.909,3.9572,3.9572,3.9778,3.99,3.99,3.9878,3.9837,3.9804,3.9781,3.9743,3.9693,3.9681,3.9681,3.9693,3.9686,3.9738,3.9804,3.9815,3.9867,3.99,3.99,4.0241,4.0828,4.1048,4.1905,4.3121,4.3346,4.3842,4.4411,4.4329,4.4255,4.4199,4.5307,4.5307,4.5307,4.5307,4.5286,4.5254,4.5203,4.5159,4.5114,4.5068,4.5045,4.5014,4.5014,4.4979,4.4955,4.4955,4.4919,4.4895,4.4895,4.4895,4.4895,4.4895,4.4895,4.4895,4.4895,4.4895,4.4895,4.4895,4.4895,4.4877,4.4796,4.4757,4.4712,4.4592,4.4565,4.4542,4.4501,4.4501,4.4473,4.4397,4.4329,4.4274,4.4072,4.2821,4.2076,4.1576,4.0531,3.9868,3.9508,3.9583,3.9589,3.9614,3.9684,3.9701,3.9724,3.9867,3.99,3.99,3.99,3.99,3.99,3.99,3.99,3.9889,3.9815,3.9747,3.9696,3.9705,3.9231,3.8807,3.8807,3.8167,3.7626,3.7668,3.7434,3.7376,3.777,3.7839,3.7995,3.8357,3.885,3.9172,3.9172,3.9597,3.99,3.99,3.99,3.99,3.99,3.99,3.9878,3.9837,3.9837,3.9789,3.971,3.971,3.9698,3.9693,3.9693,3.9722,3.9758,3.9758,3.997,4.0344,4.0344,4.0817,4.1619,4.1924,4.2599,4.3491,4.3759,4.4078,4.4383,4.4329,4.4226,4.4104,4.5307,4.5307,4.5297,4.5297,4.5235,4.5192,4.5181,4.508,4.501,4.4979,4.4931,4.4895,4.4895,4.4895,4.4895,4.4895,4.4895,4.4895,4.4895,4.4895,4.4895,4.4895,4.4895,4.4895,4.4895,4.4895,4.4895,4.4895,4.4895,4.4858,4.4783,4.4738,4.4659,4.4578,4.4528,4.4501,4.4501,4.4501,4.4473,4.4401,4.4329,4.4203,4.3904,4.2307,4.1669,4.1437,4.0005,3.9495,3.952,3.9583,3.9589,3.9614,3.9684,3.9701,3.9724,3.9867,3.99,3.99,3.99,3.99,3.99,3.99,3.99,3.9878,3.9804,3.9747,3.9708,3.9686,3.9645,3.9589,3.9589,3.8939,3.8444,3.8503,3.7905,3.7725,3.8579,3.8696,3.9002,3.9794,3.99,3.99,3.99,3.99,3.99,3.99,3.99,3.99,3.99,3.99,3.99,3.99,3.99,3.9845,3.9701,3.9701,3.9703,3.9693,3.9693,3.9698,3.9708,3.9764,4.0248,4.0995,4.1089,4.1568,4.2385,4.3158,4.3497,4.3576,4.4296,4.4496,4.4383,4.4314,4.4147,4.3974,4.5307,4.5307,4.5286,4.5224,4.5203,4.517,4.5068,4.5033,4.4967,4.4919,4.4907,4.4895,4.4895,4.4895,4.4895,4.4895,4.4895,4.4895,4.4895,4.4895,4.4895,4.4895,4.4895,4.4895,4.4895,4.4895,4.4895,4.4895,4.4895,4.4833,4.4706,4.4712,4.4632,4.4528,4.4515,4.4501,4.4501,4.4501,4.443,4.4314,4.43,4.3849,4.307,4.2083,4.1372,4.079,3.9838,3.9533,3.9583,3.9608,3.9589,3.9614,3.9684,3.9701,3.9724,3.9867,3.99,3.99,3.99,3.99,3.99,3.99,3.99,3.9867,3.9747,3.9712,3.9689,3.9638,3.962,3.9589,3.9589,3.9458,3.9326,3.9339,3.9236,3.9227,3.9429,3.9505,3.9626,3.987,3.99,3.99,3.99,3.99,3.99,3.99,3.99,3.99,3.99,3.99,3.99,3.99,3.99,3.9845,3.9701,3.9701,3.9672,3.9614,3.9614,3.9657,3.9717,4.0345,4.0765,4.1052,4.1662,4.2435,4.3228,4.3371,4.3777,4.4353,4.4426,4.4383,4.43,4.4131,4.3989,4.3897,4.5307,4.5307,4.5286,4.5203,4.517,4.5125,4.5022,4.5328,4.5406,4.4952,4.5255,4.5369,4.4952,4.4895,4.4895,4.4895,4.4895,4.4907,4.4962,4.4943,4.4955,4.4991,4.501,4.4967,4.4943,4.4943,4.4931,4.4895,4.4895,4.4821,4.4712,4.4712,4.4632,4.4501,4.4501,4.4501,4.4501,4.4501,4.4444,4.4358,4.4358,4.3795,4.2868,4.209,4.1343,4.06,3.9833,3.9571,3.9589,3.9589,3.9589,3.9602,3.9668,3.9696,3.9712,3.9815,3.9878,3.99,3.99,3.99,3.99,3.99,3.99,3.9867,3.9724,3.9701,3.9677,3.9614,3.9589,3.9589,3.9589,3.9589,3.9589,3.9589,3.9633,3.965,3.9691,3.9731,3.9781,3.9837,3.9878,3.99,3.99,3.99,3.99,3.99,3.99,3.99,3.99,3.99,3.99,3.99,3.99,3.9845,3.9701,3.9701,3.9661,3.9589,3.9984,4.0184,4.0246,4.1061,4.1669,4.2121,4.2554,4.32,4.3971,4.3904,4.412,4.4496,4.4383,4.4266,4.4147,4.4036,4.4135,4.4361,4.5307,4.5307,4.5286,4.5192,4.5251,4.5308,4.5219,4.5899,4.6146,4.5426,4.5843,4.5918,4.5198,4.499,4.4895,4.4895,4.4907,4.4931,4.501,4.5003,4.5038,4.5103,4.5103,4.508,4.4991,4.4991,4.4955,4.4895,4.4895,4.4821,4.4712,4.4712,4.4632,4.4501,4.4501,4.4501,4.4501,4.4501,4.4473,4.4397,4.4397,4.3774,4.2749,4.2127,4.1312,4.0426,3.9827,3.9589,3.9589,3.9589,3.9589,3.9602,3.9693,3.9703,3.9712,3.9792,3.9867,3.99,3.99,3.99,3.99,3.99,3.99,3.9867,3.9724,3.9701,3.9684,3.9614,3.9589,3.9589,3.9589,3.9589,3.9589,3.9589,3.9589,3.9614,3.9693,3.9703,3.9724,3.9792,3.9867,3.99,3.99,3.99,3.99,3.99,3.99,3.99,3.99,3.99,3.99,3.99,3.9889,3.9815,3.9701,3.9708,3.9724,3.979,4.0597,4.0916,4.0809,4.1753,4.2578,4.3253,4.3417,4.3854,4.4473,4.4416,4.4383,4.4368,4.4281,4.4147,4.4023,4.4106,4.4484,4.5055,4.5307,4.5307,4.5265,4.5136,4.5742,4.619,4.6069,4.6727,4.7188,4.7074,4.6563,4.6165,4.6032,4.535,4.4895,4.4895,4.4943,4.4979,4.4991,4.5049,4.5091,4.5103,4.5103,4.508,4.4991,4.4991,4.4955,4.4895,4.4895,4.4821,4.4712,4.4712,4.4632,4.4501,4.4501,4.4501,4.4501,4.4501,4.4473,4.4397,4.4397,4.3465,4.2047,4.1948,4.0995,3.9746,3.9646,3.9589,3.9589,3.9589,3.9589,3.9614,3.9672,3.9689,3.9724,3.9856,3.9889,3.99,3.99,3.99,3.99,3.99,3.99,3.9867,3.9724,3.9701,3.9684,3.9614,3.9589,3.9589,3.9589,3.9589,3.9589,3.9589,3.9589,3.9614,3.9693,3.9703,3.9724,3.9792,3.9867,3.99,3.99,3.99,3.99,3.99,3.99,3.99,3.99,3.99,3.99,3.99,3.9837,3.9781,3.9701,3.9691,3.999,4.0576,4.1362,4.1381,4.075,4.2198,4.2936,4.3067,4.3829,4.4236,4.4329,4.4314,4.4314,4.43,4.4097,4.402,4.4048,4.4524,4.511,4.5681,4.5307,4.5307,4.5418,4.5754,4.613,4.6513,4.6815,4.7586,4.7946,4.7453,4.7093,4.6695,4.6241,4.5426,4.4926,4.4943,4.4979,4.5026,4.5114,4.5148,4.517,4.5203,4.5203,4.5181,4.5114,4.508,4.5014,4.4962,4.4907,4.4846,4.4764,4.4725,4.4646,4.4551,4.4528,4.4501,4.4501,4.4501,4.4487,4.4473,4.4473,4.3741,4.2634,4.2133,4.1259,4.0209,3.9758,3.9589,3.9589,3.9589,3.9589,3.9602,3.9686,3.9696,3.9712,3.9834,3.9878,3.99,3.99,3.99,3.99,3.99,3.99,3.9867,3.9724,3.9701,3.9684,3.9614,3.9589,3.9589,3.9589,3.9589,3.9589,3.9589,3.9589,3.962,3.9645,3.9679,3.9735,3.9837,3.9889,3.99,3.99,3.99,3.99,3.99,3.99,3.99,3.99,3.99,3.99,3.99,3.9826,3.977,3.9701,4.015,4.0484,4.0718,4.1931,4.2329,4.2016,4.3197,4.3725,4.3743,4.4132,4.43,4.43,4.4274,4.4195,4.4131,4.3989,4.414,4.458,4.5644,4.6231,4.6522]}]]